<?xml version='1.0' encoding='UTF-8'?><gpx version="1.1" creator="JPX - https://github.com/jenetics/jpx" xmlns="http://www.topografix.com/GPX/1/1"><trk><trkseg><trkpt lat="39.1094032" lon="8.6689707"><ele>65.0</ele><time>2026-03-22T08:10:58.879Z</time></trkpt><trkpt lat="39.1093557" lon="8.6690436"><ele>65.0</ele><time>2026-03-22T08:11:01.88Z</time></trkpt><trkpt lat="39.1093189" lon="8.6691097"><ele>65.0</ele><time>2026-03-22T08:11:03.879Z</time></trkpt><trkpt lat="39.1092845" lon="8.6691802"><ele>65.0</ele><time>2026-03-22T08:11:05.879Z</time></trkpt><trkpt lat="39.1092989" lon="8.6692681"><ele>65.0</ele><time>2026-03-22T08:11:08.893Z</time></trkpt><trkpt lat="39.1094238" lon="8.66939"><ele>65.0</ele><time>2026-03-22T08:11:10.879Z</time></trkpt><trkpt lat="39.1094947" lon="8.6693988"><ele>65.0</ele><time>2026-03-22T08:11:12.88Z</time></trkpt><trkpt lat="39.1095738" lon="8.6694052"><ele>65.0</ele><time>2026-03-22T08:11:14.88Z</time></trkpt><trkpt lat="39.1096546" lon="8.6694056"><ele>65.0</ele><time>2026-03-22T08:11:16.879Z</time></trkpt><trkpt lat="39.1098572" lon="8.6694045"><ele>65.0</ele><time>2026-03-22T08:11:21.879Z</time></trkpt><trkpt lat="39.1099367" lon="8.6693912"><ele>65.0</ele><time>2026-03-22T08:11:23.88Z</time></trkpt><trkpt lat="39.1100244" lon="8.6693834"><ele>65.0</ele><time>2026-03-22T08:11:25.88Z</time></trkpt><trkpt lat="39.1101115" lon="8.6693726"><ele>65.0</ele><time>2026-03-22T08:11:27.879Z</time></trkpt><trkpt lat="39.110197" lon="8.6693553"><ele>65.0</ele><time>2026-03-22T08:11:29.879Z</time></trkpt><trkpt lat="39.1102771" lon="8.6693523"><ele>65.0</ele><time>2026-03-22T08:11:31.879Z</time></trkpt><trkpt lat="39.1103688" lon="8.6693429"><ele>65.0</ele><time>2026-03-22T08:11:33.879Z</time></trkpt><trkpt lat="39.1104552" lon="8.6693404"><ele>65.0</ele><time>2026-03-22T08:11:35.879Z</time></trkpt><trkpt lat="39.1105472" lon="8.6693292"><ele>65.0</ele><time>2026-03-22T08:11:37.879Z</time></trkpt><trkpt lat="39.110646" lon="8.6693099"><ele>65.0</ele><time>2026-03-22T08:11:39.88Z</time></trkpt><trkpt lat="39.1107338" lon="8.6693295"><ele>65.0</ele><time>2026-03-22T08:11:41.879Z</time></trkpt><trkpt lat="39.1108186" lon="8.6693443"><ele>65.0</ele><time>2026-03-22T08:11:43.879Z</time></trkpt><trkpt lat="39.1109019" lon="8.6693944"><ele>65.0</ele><time>2026-03-22T08:11:45.879Z</time></trkpt><trkpt lat="39.1109597" lon="8.6694396"><ele>65.0</ele><time>2026-03-22T08:11:47.879Z</time></trkpt><trkpt lat="39.1110386" lon="8.6695029"><ele>65.33333333333334</ele><time>2026-03-22T08:11:49.88Z</time></trkpt><trkpt lat="39.1111147" lon="8.6695722"><ele>65.66666666666667</ele><time>2026-03-22T08:11:51.88Z</time></trkpt><trkpt lat="39.1111677" lon="8.6696668"><ele>66.0</ele><time>2026-03-22T08:11:53.879Z</time></trkpt><trkpt lat="39.1112324" lon="8.6697664"><ele>66.33333333333333</ele><time>2026-03-22T08:11:55.88Z</time></trkpt><trkpt lat="39.1112762" lon="8.6698551"><ele>66.66666666666666</ele><time>2026-03-22T08:11:57.879Z</time></trkpt><trkpt lat="39.1113311" lon="8.6699349"><ele>67.0</ele><time>2026-03-22T08:11:59.879Z</time></trkpt><trkpt lat="39.1113738" lon="8.6700055"><ele>67.0</ele><time>2026-03-22T08:12:01.88Z</time></trkpt><trkpt lat="39.1114046" lon="8.670079"><ele>67.0</ele><time>2026-03-22T08:12:03.879Z</time></trkpt><trkpt lat="39.1114646" lon="8.6701282"><ele>67.0</ele><time>2026-03-22T08:12:05.879Z</time></trkpt><trkpt lat="39.1115371" lon="8.6701739"><ele>67.0</ele><time>2026-03-22T08:12:07.88Z</time></trkpt><trkpt lat="39.1116148" lon="8.6702269"><ele>67.0</ele><time>2026-03-22T08:12:09.879Z</time></trkpt><trkpt lat="39.1116902" lon="8.6702691"><ele>67.0</ele><time>2026-03-22T08:12:11.879Z</time></trkpt><trkpt lat="39.1117648" lon="8.6703064"><ele>67.33333333333333</ele><time>2026-03-22T08:12:13.879Z</time></trkpt><trkpt lat="39.1118401" lon="8.6703508"><ele>67.66666666666666</ele><time>2026-03-22T08:12:15.88Z</time></trkpt><trkpt lat="39.1119141" lon="8.670398"><ele>68.0</ele><time>2026-03-22T08:12:17.879Z</time></trkpt><trkpt lat="39.1119817" lon="8.67046"><ele>68.33333333333333</ele><time>2026-03-22T08:12:20.879Z</time></trkpt><trkpt lat="39.1120287" lon="8.6705163"><ele>68.66666666666667</ele><time>2026-03-22T08:12:22.88Z</time></trkpt><trkpt lat="39.1120874" lon="8.6705746"><ele>69.0</ele><time>2026-03-22T08:12:24.879Z</time></trkpt><trkpt lat="39.1121381" lon="8.6706273"><ele>69.0</ele><time>2026-03-22T08:12:26.879Z</time></trkpt><trkpt lat="39.1122014" lon="8.6706803"><ele>69.0</ele><time>2026-03-22T08:12:28.879Z</time></trkpt><trkpt lat="39.1122655" lon="8.6707273"><ele>69.0</ele><time>2026-03-22T08:12:30.879Z</time></trkpt><trkpt lat="39.1123318" lon="8.6707682"><ele>69.0</ele><time>2026-03-22T08:12:32.88Z</time></trkpt><trkpt lat="39.1124111" lon="8.67083"><ele>69.0</ele><time>2026-03-22T08:12:35.879Z</time></trkpt><trkpt lat="39.1124709" lon="8.6708982"><ele>69.0</ele><time>2026-03-22T08:12:37.88Z</time></trkpt><trkpt lat="39.1125438" lon="8.6709701"><ele>69.0</ele><time>2026-03-22T08:12:39.879Z</time></trkpt><trkpt lat="39.1126088" lon="8.6710353"><ele>69.0</ele><time>2026-03-22T08:12:41.88Z</time></trkpt><trkpt lat="39.1126401" lon="8.6711141"><ele>69.0</ele><time>2026-03-22T08:12:43.879Z</time></trkpt><trkpt lat="39.1126482" lon="8.6712045"><ele>69.0</ele><time>2026-03-22T08:12:45.879Z</time></trkpt><trkpt lat="39.1126497" lon="8.6712884"><ele>69.0</ele><time>2026-03-22T08:12:47.88Z</time></trkpt><trkpt lat="39.1127071" lon="8.6713763"><ele>69.0</ele><time>2026-03-22T08:12:49.879Z</time></trkpt><trkpt lat="39.1127697" lon="8.6714354"><ele>69.0</ele><time>2026-03-22T08:12:51.88Z</time></trkpt><trkpt lat="39.1128346" lon="8.6714891"><ele>69.0</ele><time>2026-03-22T08:12:53.879Z</time></trkpt><trkpt lat="39.1128942" lon="8.6715707"><ele>69.0</ele><time>2026-03-22T08:12:55.879Z</time></trkpt><trkpt lat="39.1129787" lon="8.6716682"><ele>69.0</ele><time>2026-03-22T08:12:57.879Z</time></trkpt><trkpt lat="39.1130495" lon="8.6717508"><ele>69.0</ele><time>2026-03-22T08:12:59.88Z</time></trkpt><trkpt lat="39.1131248" lon="8.6718496"><ele>69.0</ele><time>2026-03-22T08:13:01.88Z</time></trkpt><trkpt lat="39.1131995" lon="8.6719166"><ele>69.0</ele><time>2026-03-22T08:13:03.88Z</time></trkpt><trkpt lat="39.113294" lon="8.6719671"><ele>69.0</ele><time>2026-03-22T08:13:05.88Z</time></trkpt><trkpt lat="39.1133748" lon="8.6720182"><ele>69.0</ele><time>2026-03-22T08:13:07.88Z</time></trkpt><trkpt lat="39.1134424" lon="8.672081"><ele>69.0</ele><time>2026-03-22T08:13:09.879Z</time></trkpt><trkpt lat="39.1135318" lon="8.6721324"><ele>69.0</ele><time>2026-03-22T08:13:11.879Z</time></trkpt><trkpt lat="39.1136132" lon="8.6721817"><ele>69.0</ele><time>2026-03-22T08:13:13.879Z</time></trkpt><trkpt lat="39.1136947" lon="8.672237"><ele>69.0</ele><time>2026-03-22T08:13:15.88Z</time></trkpt><trkpt lat="39.1137554" lon="8.6722926"><ele>69.0</ele><time>2026-03-22T08:13:17.879Z</time></trkpt><trkpt lat="39.1137235" lon="8.672386"><ele>69.0</ele><time>2026-03-22T08:13:19.879Z</time></trkpt><trkpt lat="39.1136877" lon="8.67247"><ele>69.0</ele><time>2026-03-22T08:13:21.879Z</time></trkpt><trkpt lat="39.1136535" lon="8.6725626"><ele>69.0</ele><time>2026-03-22T08:13:23.879Z</time></trkpt><trkpt lat="39.1136175" lon="8.6726591"><ele>69.0</ele><time>2026-03-22T08:13:25.88Z</time></trkpt><trkpt lat="39.1135712" lon="8.6727357"><ele>69.0</ele><time>2026-03-22T08:13:27.879Z</time></trkpt><trkpt lat="39.1135188" lon="8.6728156"><ele>69.0</ele><time>2026-03-22T08:13:29.879Z</time></trkpt><trkpt lat="39.11347" lon="8.6728911"><ele>69.0</ele><time>2026-03-22T08:13:31.879Z</time></trkpt><trkpt lat="39.1134273" lon="8.6729827"><ele>69.0</ele><time>2026-03-22T08:13:33.879Z</time></trkpt><trkpt lat="39.1133761" lon="8.6730407"><ele>69.0</ele><time>2026-03-22T08:13:35.879Z</time></trkpt><trkpt lat="39.1133318" lon="8.6731276"><ele>69.0</ele><time>2026-03-22T08:13:37.879Z</time></trkpt><trkpt lat="39.1132842" lon="8.6732062"><ele>69.0</ele><time>2026-03-22T08:13:39.88Z</time></trkpt><trkpt lat="39.1132333" lon="8.6732816"><ele>69.0</ele><time>2026-03-22T08:13:42.879Z</time></trkpt><trkpt lat="39.1132074" lon="8.6733913"><ele>69.0</ele><time>2026-03-22T08:13:46.88Z</time></trkpt><trkpt lat="39.1132767" lon="8.6734761"><ele>69.0</ele><time>2026-03-22T08:13:48.879Z</time></trkpt><trkpt lat="39.1133435" lon="8.6735493"><ele>69.16666666666667</ele><time>2026-03-22T08:13:50.88Z</time></trkpt><trkpt lat="39.113397" lon="8.6736259"><ele>69.33333333333333</ele><time>2026-03-22T08:13:52.879Z</time></trkpt><trkpt lat="39.1134507" lon="8.6737039"><ele>69.5</ele><time>2026-03-22T08:13:54.879Z</time></trkpt><trkpt lat="39.1135056" lon="8.6737818"><ele>69.66666666666666</ele><time>2026-03-22T08:13:56.879Z</time></trkpt><trkpt lat="39.1135575" lon="8.673853"><ele>69.83333333333333</ele><time>2026-03-22T08:13:58.879Z</time></trkpt><trkpt lat="39.1136151" lon="8.6739287"><ele>70.0</ele><time>2026-03-22T08:14:00.88Z</time></trkpt><trkpt lat="39.1136627" lon="8.6739957"><ele>70.0</ele><time>2026-03-22T08:14:02.879Z</time></trkpt><trkpt lat="39.1137299" lon="8.6740719"><ele>70.0</ele><time>2026-03-22T08:14:05.879Z</time></trkpt><trkpt lat="39.1137896" lon="8.6741243"><ele>70.0</ele><time>2026-03-22T08:14:07.879Z</time></trkpt><trkpt lat="39.113851" lon="8.6741917"><ele>70.0</ele><time>2026-03-22T08:14:09.879Z</time></trkpt><trkpt lat="39.1139002" lon="8.6742773"><ele>70.0</ele><time>2026-03-22T08:14:11.879Z</time></trkpt><trkpt lat="39.1139608" lon="8.6743574"><ele>70.0</ele><time>2026-03-22T08:14:13.879Z</time></trkpt><trkpt lat="39.1140268" lon="8.6744528"><ele>70.33333333333333</ele><time>2026-03-22T08:14:15.88Z</time></trkpt><trkpt lat="39.1140871" lon="8.6745318"><ele>70.66666666666666</ele><time>2026-03-22T08:14:17.88Z</time></trkpt><trkpt lat="39.1141481" lon="8.6746196"><ele>71.0</ele><time>2026-03-22T08:14:19.879Z</time></trkpt><trkpt lat="39.1142132" lon="8.6746961"><ele>71.33333333333333</ele><time>2026-03-22T08:14:21.879Z</time></trkpt><trkpt lat="39.11427" lon="8.6747766"><ele>71.66666666666667</ele><time>2026-03-22T08:14:23.879Z</time></trkpt><trkpt lat="39.1143457" lon="8.6748494"><ele>72.0</ele><time>2026-03-22T08:14:25.88Z</time></trkpt><trkpt lat="39.1144085" lon="8.6749233"><ele>72.0</ele><time>2026-03-22T08:14:27.879Z</time></trkpt><trkpt lat="39.1144716" lon="8.6749875"><ele>72.0</ele><time>2026-03-22T08:14:29.879Z</time></trkpt><trkpt lat="39.1145303" lon="8.6750659"><ele>72.0</ele><time>2026-03-22T08:14:31.88Z</time></trkpt><trkpt lat="39.1145811" lon="8.6751513"><ele>72.0</ele><time>2026-03-22T08:14:33.879Z</time></trkpt><trkpt lat="39.114633" lon="8.6752452"><ele>72.0</ele><time>2026-03-22T08:14:35.879Z</time></trkpt><trkpt lat="39.1146825" lon="8.6753502"><ele>72.0</ele><time>2026-03-22T08:14:37.879Z</time></trkpt><trkpt lat="39.1147131" lon="8.6754554"><ele>72.0</ele><time>2026-03-22T08:14:39.88Z</time></trkpt><trkpt lat="39.1147363" lon="8.6755678"><ele>72.0</ele><time>2026-03-22T08:14:41.879Z</time></trkpt><trkpt lat="39.1147764" lon="8.6756883"><ele>72.0</ele><time>2026-03-22T08:14:43.879Z</time></trkpt><trkpt lat="39.1147835" lon="8.6758085"><ele>72.0</ele><time>2026-03-22T08:14:45.879Z</time></trkpt><trkpt lat="39.1147976" lon="8.6759338"><ele>72.0</ele><time>2026-03-22T08:14:47.88Z</time></trkpt><trkpt lat="39.1147992" lon="8.6760419"><ele>72.4</ele><time>2026-03-22T08:14:49.879Z</time></trkpt><trkpt lat="39.1147907" lon="8.6761632"><ele>72.80000000000001</ele><time>2026-03-22T08:14:51.879Z</time></trkpt><trkpt lat="39.1147827" lon="8.6762793"><ele>73.2</ele><time>2026-03-22T08:14:53.88Z</time></trkpt><trkpt lat="39.1147922" lon="8.6763963"><ele>73.60000000000001</ele><time>2026-03-22T08:14:55.88Z</time></trkpt><trkpt lat="39.1148387" lon="8.676523"><ele>74.0</ele><time>2026-03-22T08:14:57.88Z</time></trkpt><trkpt lat="39.1149008" lon="8.6766339"><ele>73.60000000000001</ele><time>2026-03-22T08:14:59.88Z</time></trkpt><trkpt lat="39.1149592" lon="8.6767359"><ele>73.2</ele><time>2026-03-22T08:15:01.879Z</time></trkpt><trkpt lat="39.1150154" lon="8.676824"><ele>72.80000000000001</ele><time>2026-03-22T08:15:03.879Z</time></trkpt><trkpt lat="39.1150778" lon="8.6769154"><ele>72.4</ele><time>2026-03-22T08:15:05.879Z</time></trkpt><trkpt lat="39.1151369" lon="8.6770141"><ele>72.0</ele><time>2026-03-22T08:15:07.879Z</time></trkpt><trkpt lat="39.1151923" lon="8.6771064"><ele>72.0</ele><time>2026-03-22T08:15:09.879Z</time></trkpt><trkpt lat="39.1152548" lon="8.6771975"><ele>72.0</ele><time>2026-03-22T08:15:11.879Z</time></trkpt><trkpt lat="39.1153109" lon="8.6772869"><ele>72.0</ele><time>2026-03-22T08:15:13.879Z</time></trkpt><trkpt lat="39.1153714" lon="8.6773772"><ele>72.0</ele><time>2026-03-22T08:15:15.879Z</time></trkpt><trkpt lat="39.1154181" lon="8.6774695"><ele>72.0</ele><time>2026-03-22T08:15:17.88Z</time></trkpt><trkpt lat="39.1154692" lon="8.6775648"><ele>72.0</ele><time>2026-03-22T08:15:19.879Z</time></trkpt><trkpt lat="39.1155223" lon="8.6776501"><ele>72.0</ele><time>2026-03-22T08:15:21.88Z</time></trkpt><trkpt lat="39.1155907" lon="8.6777474"><ele>72.0</ele><time>2026-03-22T08:15:23.879Z</time></trkpt><trkpt lat="39.1156451" lon="8.6778423"><ele>72.0</ele><time>2026-03-22T08:15:25.879Z</time></trkpt><trkpt lat="39.1156974" lon="8.6779312"><ele>72.0</ele><time>2026-03-22T08:15:27.879Z</time></trkpt><trkpt lat="39.1157482" lon="8.6780278"><ele>72.4</ele><time>2026-03-22T08:15:29.879Z</time></trkpt><trkpt lat="39.1158244" lon="8.6781084"><ele>72.80000000000001</ele><time>2026-03-22T08:15:31.879Z</time></trkpt><trkpt lat="39.1158814" lon="8.6781861"><ele>73.2</ele><time>2026-03-22T08:15:33.879Z</time></trkpt><trkpt lat="39.1159487" lon="8.6782707"><ele>73.60000000000001</ele><time>2026-03-22T08:15:35.879Z</time></trkpt><trkpt lat="39.116011" lon="8.6783698"><ele>74.0</ele><time>2026-03-22T08:15:37.879Z</time></trkpt><trkpt lat="39.1160688" lon="8.6784452"><ele>74.0</ele><time>2026-03-22T08:15:39.879Z</time></trkpt><trkpt lat="39.1161129" lon="8.6785373"><ele>74.0</ele><time>2026-03-22T08:15:41.879Z</time></trkpt><trkpt lat="39.1161931" lon="8.6786013"><ele>74.0</ele><time>2026-03-22T08:15:43.879Z</time></trkpt><trkpt lat="39.1162331" lon="8.6787021"><ele>74.0</ele><time>2026-03-22T08:15:45.88Z</time></trkpt><trkpt lat="39.1163098" lon="8.6787549"><ele>74.0</ele><time>2026-03-22T08:15:47.879Z</time></trkpt><trkpt lat="39.1163978" lon="8.6788095"><ele>74.33333333333334</ele><time>2026-03-22T08:15:49.879Z</time></trkpt><trkpt lat="39.1164117" lon="8.6789092"><ele>74.66666666666667</ele><time>2026-03-22T08:15:51.879Z</time></trkpt><trkpt lat="39.116464" lon="8.6789973"><ele>75.0</ele><time>2026-03-22T08:15:53.879Z</time></trkpt><trkpt lat="39.1165199" lon="8.6790912"><ele>75.33333333333333</ele><time>2026-03-22T08:15:55.88Z</time></trkpt><trkpt lat="39.1165597" lon="8.6791818"><ele>75.66666666666666</ele><time>2026-03-22T08:15:57.879Z</time></trkpt><trkpt lat="39.116591" lon="8.6792717"><ele>76.0</ele><time>2026-03-22T08:15:59.879Z</time></trkpt><trkpt lat="39.1166331" lon="8.6793493"><ele>76.16666666666666</ele><time>2026-03-22T08:16:01.88Z</time></trkpt><trkpt lat="39.1166802" lon="8.6794345"><ele>76.33333333333333</ele><time>2026-03-22T08:16:03.88Z</time></trkpt><trkpt lat="39.116731" lon="8.6795138"><ele>76.5</ele><time>2026-03-22T08:16:05.88Z</time></trkpt><trkpt lat="39.1167773" lon="8.6796002"><ele>76.66666666666667</ele><time>2026-03-22T08:16:07.879Z</time></trkpt><trkpt lat="39.116819" lon="8.6796807"><ele>76.83333333333334</ele><time>2026-03-22T08:16:09.879Z</time></trkpt><trkpt lat="39.1168696" lon="8.6797555"><ele>77.0</ele><time>2026-03-22T08:16:11.879Z</time></trkpt><trkpt lat="39.1169156" lon="8.6798441"><ele>77.0</ele><time>2026-03-22T08:16:13.879Z</time></trkpt><trkpt lat="39.1169537" lon="8.6799217"><ele>77.0</ele><time>2026-03-22T08:16:15.879Z</time></trkpt><trkpt lat="39.1169906" lon="8.6799927"><ele>77.0</ele><time>2026-03-22T08:16:17.879Z</time></trkpt><trkpt lat="39.1170379" lon="8.6800623"><ele>77.0</ele><time>2026-03-22T08:16:19.88Z</time></trkpt><trkpt lat="39.1170987" lon="8.6801233"><ele>77.0</ele><time>2026-03-22T08:16:21.879Z</time></trkpt><trkpt lat="39.1171722" lon="8.68018"><ele>77.0</ele><time>2026-03-22T08:16:23.88Z</time></trkpt><trkpt lat="39.1172495" lon="8.6802312"><ele>77.66666666666667</ele><time>2026-03-22T08:16:25.88Z</time></trkpt><trkpt lat="39.117323" lon="8.6802831"><ele>78.33333333333334</ele><time>2026-03-22T08:16:27.879Z</time></trkpt><trkpt lat="39.1173981" lon="8.680331"><ele>79.0</ele><time>2026-03-22T08:16:29.88Z</time></trkpt><trkpt lat="39.1174715" lon="8.6803759"><ele>79.66666666666667</ele><time>2026-03-22T08:16:31.88Z</time></trkpt><trkpt lat="39.1175466" lon="8.6804226"><ele>80.33333333333333</ele><time>2026-03-22T08:16:33.879Z</time></trkpt><trkpt lat="39.1176214" lon="8.6804692"><ele>81.0</ele><time>2026-03-22T08:16:35.879Z</time></trkpt><trkpt lat="39.1176939" lon="8.6805148"><ele>81.0</ele><time>2026-03-22T08:16:37.879Z</time></trkpt><trkpt lat="39.1177513" lon="8.6805577"><ele>81.0</ele><time>2026-03-22T08:16:39.879Z</time></trkpt><trkpt lat="39.1178172" lon="8.6806152"><ele>81.0</ele><time>2026-03-22T08:16:41.88Z</time></trkpt><trkpt lat="39.1178829" lon="8.6806745"><ele>81.0</ele><time>2026-03-22T08:16:43.879Z</time></trkpt><trkpt lat="39.1179517" lon="8.6807296"><ele>81.0</ele><time>2026-03-22T08:16:45.879Z</time></trkpt><trkpt lat="39.1180538" lon="8.6807714"><ele>81.0</ele><time>2026-03-22T08:16:47.879Z</time></trkpt><trkpt lat="39.1181065" lon="8.6808244"><ele>81.0</ele><time>2026-03-22T08:16:49.879Z</time></trkpt><trkpt lat="39.1181771" lon="8.6809028"><ele>81.0</ele><time>2026-03-22T08:16:51.879Z</time></trkpt><trkpt lat="39.1182682" lon="8.6809518"><ele>81.0</ele><time>2026-03-22T08:16:53.879Z</time></trkpt><trkpt lat="39.1183417" lon="8.6810223"><ele>81.0</ele><time>2026-03-22T08:16:55.879Z</time></trkpt><trkpt lat="39.1184161" lon="8.6810868"><ele>81.0</ele><time>2026-03-22T08:16:57.879Z</time></trkpt><trkpt lat="39.1184861" lon="8.6811538"><ele>81.16666666666667</ele><time>2026-03-22T08:16:59.879Z</time></trkpt><trkpt lat="39.1185499" lon="8.6812237"><ele>81.33333333333333</ele><time>2026-03-22T08:17:01.88Z</time></trkpt><trkpt lat="39.118619" lon="8.6812954"><ele>81.5</ele><time>2026-03-22T08:17:03.879Z</time></trkpt><trkpt lat="39.118687" lon="8.6813555"><ele>81.66666666666666</ele><time>2026-03-22T08:17:05.88Z</time></trkpt><trkpt lat="39.1187659" lon="8.6814062"><ele>81.83333333333333</ele><time>2026-03-22T08:17:07.88Z</time></trkpt><trkpt lat="39.1188513" lon="8.6814643"><ele>82.0</ele><time>2026-03-22T08:17:09.879Z</time></trkpt><trkpt lat="39.1189231" lon="8.681528"><ele>81.5</ele><time>2026-03-22T08:17:11.88Z</time></trkpt><trkpt lat="39.1190809" lon="8.6815969"><ele>81.0</ele><time>2026-03-22T08:17:14.879Z</time></trkpt><trkpt lat="39.1191782" lon="8.6816507"><ele>80.5</ele><time>2026-03-22T08:17:16.879Z</time></trkpt><trkpt lat="39.1192578" lon="8.6817159"><ele>80.0</ele><time>2026-03-22T08:17:18.88Z</time></trkpt><trkpt lat="39.119319" lon="8.6817878"><ele>80.0</ele><time>2026-03-22T08:17:20.88Z</time></trkpt><trkpt lat="39.1194238" lon="8.681871"><ele>80.0</ele><time>2026-03-22T08:17:22.879Z</time></trkpt><trkpt lat="39.1194925" lon="8.6819704"><ele>80.0</ele><time>2026-03-22T08:17:24.879Z</time></trkpt><trkpt lat="39.1195697" lon="8.6820406"><ele>80.0</ele><time>2026-03-22T08:17:26.879Z</time></trkpt><trkpt lat="39.1196608" lon="8.6820987"><ele>80.0</ele><time>2026-03-22T08:17:28.879Z</time></trkpt><trkpt lat="39.1197318" lon="8.682189"><ele>80.0</ele><time>2026-03-22T08:17:30.879Z</time></trkpt><trkpt lat="39.119786" lon="8.6822609"><ele>80.0</ele><time>2026-03-22T08:17:32.88Z</time></trkpt><trkpt lat="39.1198726" lon="8.6823121"><ele>80.0</ele><time>2026-03-22T08:17:34.879Z</time></trkpt><trkpt lat="39.1199383" lon="8.6823855"><ele>80.0</ele><time>2026-03-22T08:17:36.879Z</time></trkpt><trkpt lat="39.1199916" lon="8.6824667"><ele>80.0</ele><time>2026-03-22T08:17:38.88Z</time></trkpt><trkpt lat="39.1200561" lon="8.6825128"><ele>80.0</ele><time>2026-03-22T08:17:40.879Z</time></trkpt><trkpt lat="39.1201279" lon="8.6825603"><ele>80.0</ele><time>2026-03-22T08:17:42.88Z</time></trkpt><trkpt lat="39.1202029" lon="8.682612"><ele>80.0</ele><time>2026-03-22T08:17:44.88Z</time></trkpt><trkpt lat="39.1202612" lon="8.6826775"><ele>80.0</ele><time>2026-03-22T08:17:46.879Z</time></trkpt><trkpt lat="39.1203285" lon="8.6827352"><ele>80.0</ele><time>2026-03-22T08:17:48.879Z</time></trkpt><trkpt lat="39.1203905" lon="8.6828018"><ele>80.0</ele><time>2026-03-22T08:17:50.879Z</time></trkpt><trkpt lat="39.1204469" lon="8.682878"><ele>80.0</ele><time>2026-03-22T08:17:52.88Z</time></trkpt><trkpt lat="39.1205142" lon="8.6829596"><ele>80.33333333333334</ele><time>2026-03-22T08:17:54.879Z</time></trkpt><trkpt lat="39.1206022" lon="8.6830324"><ele>80.66666666666667</ele><time>2026-03-22T08:17:56.88Z</time></trkpt><trkpt lat="39.1206736" lon="8.6831134"><ele>81.0</ele><time>2026-03-22T08:17:58.879Z</time></trkpt><trkpt lat="39.1207393" lon="8.6831772"><ele>81.33333333333333</ele><time>2026-03-22T08:18:00.88Z</time></trkpt><trkpt lat="39.1207969" lon="8.6832414"><ele>81.66666666666666</ele><time>2026-03-22T08:18:02.879Z</time></trkpt><trkpt lat="39.1208666" lon="8.683302"><ele>82.0</ele><time>2026-03-22T08:18:04.879Z</time></trkpt><trkpt lat="39.1209266" lon="8.683368"><ele>82.16666666666666</ele><time>2026-03-22T08:18:06.879Z</time></trkpt><trkpt lat="39.120971" lon="8.6834741"><ele>82.33333333333333</ele><time>2026-03-22T08:18:09.88Z</time></trkpt><trkpt lat="39.120955" lon="8.6835606"><ele>82.5</ele><time>2026-03-22T08:18:11.879Z</time></trkpt><trkpt lat="39.1209225" lon="8.6836408"><ele>82.66666666666667</ele><time>2026-03-22T08:18:13.88Z</time></trkpt><trkpt lat="39.120875" lon="8.68371"><ele>82.83333333333334</ele><time>2026-03-22T08:18:15.88Z</time></trkpt><trkpt lat="39.1208223" lon="8.6837817"><ele>83.0</ele><time>2026-03-22T08:18:17.879Z</time></trkpt><trkpt lat="39.1207648" lon="8.6838632"><ele>83.0</ele><time>2026-03-22T08:18:19.88Z</time></trkpt><trkpt lat="39.1207102" lon="8.6839473"><ele>83.0</ele><time>2026-03-22T08:18:21.879Z</time></trkpt><trkpt lat="39.1206559" lon="8.6840171"><ele>83.0</ele><time>2026-03-22T08:18:23.879Z</time></trkpt><trkpt lat="39.120598" lon="8.6840861"><ele>83.0</ele><time>2026-03-22T08:18:25.879Z</time></trkpt><trkpt lat="39.12054" lon="8.6841711"><ele>83.0</ele><time>2026-03-22T08:18:27.879Z</time></trkpt><trkpt lat="39.1204804" lon="8.6842618"><ele>83.0</ele><time>2026-03-22T08:18:29.879Z</time></trkpt><trkpt lat="39.1204122" lon="8.6843405"><ele>83.0</ele><time>2026-03-22T08:18:31.88Z</time></trkpt><trkpt lat="39.1203492" lon="8.6844294"><ele>83.0</ele><time>2026-03-22T08:18:33.88Z</time></trkpt><trkpt lat="39.1202819" lon="8.6845089"><ele>83.0</ele><time>2026-03-22T08:18:35.879Z</time></trkpt><trkpt lat="39.1202207" lon="8.6845904"><ele>83.0</ele><time>2026-03-22T08:18:37.879Z</time></trkpt><trkpt lat="39.1201572" lon="8.6846767"><ele>83.0</ele><time>2026-03-22T08:18:39.88Z</time></trkpt><trkpt lat="39.1200967" lon="8.6847476"><ele>83.0</ele><time>2026-03-22T08:18:41.879Z</time></trkpt><trkpt lat="39.1200393" lon="8.6848356"><ele>83.0</ele><time>2026-03-22T08:18:43.879Z</time></trkpt><trkpt lat="39.1199926" lon="8.684932"><ele>83.0</ele><time>2026-03-22T08:18:45.879Z</time></trkpt><trkpt lat="39.1199448" lon="8.6850362"><ele>83.0</ele><time>2026-03-22T08:18:47.879Z</time></trkpt><trkpt lat="39.1198899" lon="8.6851395"><ele>83.0</ele><time>2026-03-22T08:18:49.879Z</time></trkpt><trkpt lat="39.1198464" lon="8.6852435"><ele>83.0</ele><time>2026-03-22T08:18:51.879Z</time></trkpt><trkpt lat="39.1197986" lon="8.6853295"><ele>83.0</ele><time>2026-03-22T08:18:53.879Z</time></trkpt><trkpt lat="39.1197458" lon="8.6854067"><ele>83.0</ele><time>2026-03-22T08:18:55.879Z</time></trkpt><trkpt lat="39.1196936" lon="8.6854994"><ele>83.0</ele><time>2026-03-22T08:18:57.879Z</time></trkpt><trkpt lat="39.1196281" lon="8.6856072"><ele>83.0</ele><time>2026-03-22T08:18:59.879Z</time></trkpt><trkpt lat="39.1195564" lon="8.685691"><ele>83.0</ele><time>2026-03-22T08:19:01.879Z</time></trkpt><trkpt lat="39.1194763" lon="8.6857737"><ele>83.0</ele><time>2026-03-22T08:19:03.879Z</time></trkpt><trkpt lat="39.1194018" lon="8.6858514"><ele>83.0</ele><time>2026-03-22T08:19:05.88Z</time></trkpt><trkpt lat="39.1193356" lon="8.6859471"><ele>83.0</ele><time>2026-03-22T08:19:07.879Z</time></trkpt><trkpt lat="39.1192687" lon="8.6860444"><ele>83.0</ele><time>2026-03-22T08:19:09.879Z</time></trkpt><trkpt lat="39.1191968" lon="8.6861336"><ele>83.0</ele><time>2026-03-22T08:19:11.88Z</time></trkpt><trkpt lat="39.1191158" lon="8.686249"><ele>83.60000000000001</ele><time>2026-03-22T08:19:13.88Z</time></trkpt><trkpt lat="39.1190382" lon="8.6863201"><ele>84.2</ele><time>2026-03-22T08:19:15.879Z</time></trkpt><trkpt lat="39.1189572" lon="8.6863825"><ele>84.8</ele><time>2026-03-22T08:19:17.879Z</time></trkpt><trkpt lat="39.1188821" lon="8.6864651"><ele>85.4</ele><time>2026-03-22T08:19:19.88Z</time></trkpt><trkpt lat="39.1188274" lon="8.686561"><ele>86.0</ele><time>2026-03-22T08:19:21.879Z</time></trkpt><trkpt lat="39.1187654" lon="8.6866562"><ele>86.0</ele><time>2026-03-22T08:19:23.879Z</time></trkpt><trkpt lat="39.1187115" lon="8.6867532"><ele>86.0</ele><time>2026-03-22T08:19:25.88Z</time></trkpt><trkpt lat="39.1186653" lon="8.6868507"><ele>86.0</ele><time>2026-03-22T08:19:27.88Z</time></trkpt><trkpt lat="39.1186388" lon="8.6869494"><ele>86.0</ele><time>2026-03-22T08:19:29.88Z</time></trkpt><trkpt lat="39.1185854" lon="8.6870782"><ele>86.0</ele><time>2026-03-22T08:19:31.88Z</time></trkpt><trkpt lat="39.1185562" lon="8.6871883"><ele>86.16666666666667</ele><time>2026-03-22T08:19:33.88Z</time></trkpt><trkpt lat="39.118532" lon="8.6873193"><ele>86.33333333333334</ele><time>2026-03-22T08:19:35.879Z</time></trkpt><trkpt lat="39.1185041" lon="8.6874074"><ele>86.5</ele><time>2026-03-22T08:19:37.88Z</time></trkpt><trkpt lat="39.1185024" lon="8.687491"><ele>86.66666666666667</ele><time>2026-03-22T08:19:38.879Z</time></trkpt><trkpt lat="39.1184806" lon="8.6875868"><ele>86.83333333333333</ele><time>2026-03-22T08:19:40.879Z</time></trkpt><trkpt lat="39.1184621" lon="8.687694"><ele>87.0</ele><time>2026-03-22T08:19:42.879Z</time></trkpt><trkpt lat="39.1184465" lon="8.6878065"><ele>87.0</ele><time>2026-03-22T08:19:44.879Z</time></trkpt><trkpt lat="39.1184312" lon="8.6879183"><ele>87.0</ele><time>2026-03-22T08:19:46.879Z</time></trkpt><trkpt lat="39.1184133" lon="8.6880232"><ele>87.0</ele><time>2026-03-22T08:19:48.879Z</time></trkpt><trkpt lat="39.1183914" lon="8.6881243"><ele>87.0</ele><time>2026-03-22T08:19:50.879Z</time></trkpt><trkpt lat="39.118372" lon="8.6882256"><ele>87.0</ele><time>2026-03-22T08:19:52.88Z</time></trkpt><trkpt lat="39.1183513" lon="8.6883349"><ele>87.0</ele><time>2026-03-22T08:19:54.879Z</time></trkpt><trkpt lat="39.1183255" lon="8.6884443"><ele>87.0</ele><time>2026-03-22T08:19:56.88Z</time></trkpt><trkpt lat="39.1182981" lon="8.6885404"><ele>87.0</ele><time>2026-03-22T08:19:58.879Z</time></trkpt><trkpt lat="39.1182647" lon="8.6886457"><ele>87.0</ele><time>2026-03-22T08:20:00.88Z</time></trkpt><trkpt lat="39.1182342" lon="8.6887558"><ele>87.0</ele><time>2026-03-22T08:20:02.879Z</time></trkpt><trkpt lat="39.1182303" lon="8.6888413"><ele>87.0</ele><time>2026-03-22T08:20:03.879Z</time></trkpt><trkpt lat="39.1181965" lon="8.688969"><ele>87.0</ele><time>2026-03-22T08:20:06.88Z</time></trkpt><trkpt lat="39.1181335" lon="8.6890491"><ele>87.19999999999999</ele><time>2026-03-22T08:20:09.879Z</time></trkpt><trkpt lat="39.118135" lon="8.6891868"><ele>87.4</ele><time>2026-03-22T08:20:11.879Z</time></trkpt><trkpt lat="39.1180999" lon="8.6893526"><ele>87.6</ele><time>2026-03-22T08:20:13.879Z</time></trkpt><trkpt lat="39.1180625" lon="8.6894691"><ele>87.80000000000001</ele><time>2026-03-22T08:20:15.88Z</time></trkpt><trkpt lat="39.1180338" lon="8.6895786"><ele>88.0</ele><time>2026-03-22T08:20:17.879Z</time></trkpt><trkpt lat="39.1180002" lon="8.6896973"><ele>88.25</ele><time>2026-03-22T08:20:19.879Z</time></trkpt><trkpt lat="39.1179666" lon="8.6897944"><ele>88.5</ele><time>2026-03-22T08:20:21.879Z</time></trkpt><trkpt lat="39.1179455" lon="8.6899139"><ele>88.75</ele><time>2026-03-22T08:20:23.879Z</time></trkpt><trkpt lat="39.1178939" lon="8.6900392"><ele>89.0</ele><time>2026-03-22T08:20:25.88Z</time></trkpt><trkpt lat="39.1178352" lon="8.690248"><ele>89.16666666666667</ele><time>2026-03-22T08:20:27.88Z</time></trkpt><trkpt lat="39.1178028" lon="8.6903545"><ele>89.33333333333334</ele><time>2026-03-22T08:20:29.88Z</time></trkpt><trkpt lat="39.1177472" lon="8.6904522"><ele>89.5</ele><time>2026-03-22T08:20:31.879Z</time></trkpt><trkpt lat="39.1177001" lon="8.6905617"><ele>89.66666666666667</ele><time>2026-03-22T08:20:33.879Z</time></trkpt><trkpt lat="39.1176464" lon="8.6906485"><ele>89.83333333333333</ele><time>2026-03-22T08:20:35.879Z</time></trkpt><trkpt lat="39.1176221" lon="8.6907391"><ele>90.0</ele><time>2026-03-22T08:20:36.879Z</time></trkpt><trkpt lat="39.1175898" lon="8.690818"><ele>90.0</ele><time>2026-03-22T08:20:38.879Z</time></trkpt><trkpt lat="39.1175468" lon="8.6909376"><ele>90.0</ele><time>2026-03-22T08:20:40.879Z</time></trkpt><trkpt lat="39.1174941" lon="8.6910214"><ele>90.0</ele><time>2026-03-22T08:20:43.879Z</time></trkpt><trkpt lat="39.1174295" lon="8.6911038"><ele>90.0</ele><time>2026-03-22T08:20:46.879Z</time></trkpt><trkpt lat="39.1173993" lon="8.6911985"><ele>90.0</ele><time>2026-03-22T08:20:48.88Z</time></trkpt><trkpt lat="39.1173601" lon="8.6912753"><ele>90.0</ele><time>2026-03-22T08:20:50.879Z</time></trkpt><trkpt lat="39.1173251" lon="8.6913466"><ele>90.5</ele><time>2026-03-22T08:20:52.879Z</time></trkpt><trkpt lat="39.1172645" lon="8.6914406"><ele>91.0</ele><time>2026-03-22T08:20:55.88Z</time></trkpt><trkpt lat="39.1172278" lon="8.6915092"><ele>91.5</ele><time>2026-03-22T08:20:57.879Z</time></trkpt><trkpt lat="39.1171903" lon="8.6915762"><ele>92.0</ele><time>2026-03-22T08:20:59.879Z</time></trkpt><trkpt lat="39.1171379" lon="8.6916478"><ele>92.5</ele><time>2026-03-22T08:21:02.879Z</time></trkpt><trkpt lat="39.1170735" lon="8.6916659"><ele>93.0</ele><time>2026-03-22T08:21:40.879Z</time></trkpt><trkpt lat="39.1170036" lon="8.6917299"><ele>93.0</ele><time>2026-03-22T08:21:43.879Z</time></trkpt><trkpt lat="39.1169323" lon="8.6918074"><ele>93.0</ele><time>2026-03-22T08:21:45.88Z</time></trkpt><trkpt lat="39.1168774" lon="8.6918825"><ele>93.0</ele><time>2026-03-22T08:21:47.88Z</time></trkpt><trkpt lat="39.1168245" lon="8.6919499"><ele>93.0</ele><time>2026-03-22T08:21:49.879Z</time></trkpt><trkpt lat="39.1167517" lon="8.6920512"><ele>93.0</ele><time>2026-03-22T08:21:52.88Z</time></trkpt><trkpt lat="39.1166935" lon="8.6921232"><ele>93.0</ele><time>2026-03-22T08:21:54.879Z</time></trkpt><trkpt lat="39.1166451" lon="8.692184"><ele>93.33333333333333</ele><time>2026-03-22T08:21:56.88Z</time></trkpt><trkpt lat="39.116587" lon="8.6922215"><ele>93.66666666666667</ele><time>2026-03-22T08:21:58.88Z</time></trkpt><trkpt lat="39.1165251" lon="8.692354"><ele>94.0</ele><time>2026-03-22T08:22:00.882Z</time></trkpt><trkpt lat="39.1164744" lon="8.6924038"><ele>94.33333333333334</ele><time>2026-03-22T08:22:02.879Z</time></trkpt><trkpt lat="39.1164183" lon="8.6924652"><ele>94.66666666666667</ele><time>2026-03-22T08:22:04.94Z</time></trkpt><trkpt lat="39.116367" lon="8.6925129"><ele>95.0</ele><time>2026-03-22T08:22:06.88Z</time></trkpt><trkpt lat="39.1163205" lon="8.6925792"><ele>95.33333333333334</ele><time>2026-03-22T08:22:08.88Z</time></trkpt><trkpt lat="39.1162603" lon="8.6926403"><ele>95.66666666666667</ele><time>2026-03-22T08:22:10.881Z</time></trkpt><trkpt lat="39.1162073" lon="8.6927091"><ele>96.0</ele><time>2026-03-22T08:22:12.88Z</time></trkpt><trkpt lat="39.116147" lon="8.6927721"><ele>96.33333333333334</ele><time>2026-03-22T08:22:14.88Z</time></trkpt><trkpt lat="39.1160906" lon="8.692827"><ele>96.66666666666667</ele><time>2026-03-22T08:22:16.881Z</time></trkpt><trkpt lat="39.1160077" lon="8.6928771"><ele>97.0</ele><time>2026-03-22T08:22:19.881Z</time></trkpt><trkpt lat="39.1159289" lon="8.692928"><ele>97.33333333333334</ele><time>2026-03-22T08:22:22.88Z</time></trkpt><trkpt lat="39.11588" lon="8.692981"><ele>97.66666666666667</ele><time>2026-03-22T08:22:24.881Z</time></trkpt><trkpt lat="39.1158109" lon="8.6930616"><ele>98.0</ele><time>2026-03-22T08:22:27.88Z</time></trkpt><trkpt lat="39.1157432" lon="8.6931288"><ele>98.33333333333334</ele><time>2026-03-22T08:22:30.88Z</time></trkpt><trkpt lat="39.1156895" lon="8.6932089"><ele>98.66666666666667</ele><time>2026-03-22T08:22:33.88Z</time></trkpt><trkpt lat="39.115707" lon="8.693297"><ele>99.0</ele><time>2026-03-22T08:22:37.881Z</time></trkpt><trkpt lat="39.1157395" lon="8.6933954"><ele>99.0</ele><time>2026-03-22T08:22:39.88Z</time></trkpt><trkpt lat="39.1157897" lon="8.6934721"><ele>99.0</ele><time>2026-03-22T08:22:41.88Z</time></trkpt><trkpt lat="39.1158406" lon="8.693551"><ele>99.0</ele><time>2026-03-22T08:22:43.881Z</time></trkpt><trkpt lat="39.1158898" lon="8.6936062"><ele>99.0</ele><time>2026-03-22T08:22:45.881Z</time></trkpt><trkpt lat="39.1159323" lon="8.6936684"><ele>99.0</ele><time>2026-03-22T08:22:47.881Z</time></trkpt><trkpt lat="39.1159728" lon="8.6937371"><ele>99.0</ele><time>2026-03-22T08:22:49.881Z</time></trkpt><trkpt lat="39.1160077" lon="8.6938097"><ele>99.0</ele><time>2026-03-22T08:22:51.88Z</time></trkpt><trkpt lat="39.1160514" lon="8.6938782"><ele>99.42857142857143</ele><time>2026-03-22T08:22:53.88Z</time></trkpt><trkpt lat="39.1160942" lon="8.6939466"><ele>99.85714285714285</ele><time>2026-03-22T08:22:55.88Z</time></trkpt><trkpt lat="39.116137" lon="8.6940137"><ele>100.28571428571428</ele><time>2026-03-22T08:22:57.88Z</time></trkpt><trkpt lat="39.1161831" lon="8.6940808"><ele>100.71428571428572</ele><time>2026-03-22T08:22:59.88Z</time></trkpt><trkpt lat="39.1162296" lon="8.694144"><ele>101.14285714285714</ele><time>2026-03-22T08:23:01.88Z</time></trkpt><trkpt lat="39.1162736" lon="8.6942121"><ele>101.57142857142857</ele><time>2026-03-22T08:23:03.88Z</time></trkpt><trkpt lat="39.1163321" lon="8.6942926"><ele>102.0</ele><time>2026-03-22T08:23:06.881Z</time></trkpt><trkpt lat="39.1163836" lon="8.6943619"><ele>102.16666666666667</ele><time>2026-03-22T08:23:09.881Z</time></trkpt><trkpt lat="39.1164318" lon="8.6944432"><ele>102.33333333333334</ele><time>2026-03-22T08:23:13.88Z</time></trkpt><trkpt lat="39.1164705" lon="8.6945382"><ele>102.5</ele><time>2026-03-22T08:23:16.88Z</time></trkpt><trkpt lat="39.1164771" lon="8.6946364"><ele>102.66666666666667</ele><time>2026-03-22T08:23:19.881Z</time></trkpt><trkpt lat="39.1164985" lon="8.6947407"><ele>102.83333333333334</ele><time>2026-03-22T08:23:22.881Z</time></trkpt><trkpt lat="39.1165236" lon="8.6948382"><ele>103.0</ele><time>2026-03-22T08:23:25.881Z</time></trkpt><trkpt lat="39.1165237" lon="8.694941"><ele>103.00000000000001</ele><time>2026-03-22T08:23:28.88Z</time></trkpt><trkpt lat="39.1165301" lon="8.6950436"><ele>103.0</ele><time>2026-03-22T08:23:31.881Z</time></trkpt><trkpt lat="39.1165468" lon="8.6951544"><ele>103.0</ele><time>2026-03-22T08:23:34.88Z</time></trkpt><trkpt lat="39.1165651" lon="8.6952702"><ele>103.0</ele><time>2026-03-22T08:23:37.88Z</time></trkpt><trkpt lat="39.1165891" lon="8.6953616"><ele>103.00000000000001</ele><time>2026-03-22T08:23:39.88Z</time></trkpt><trkpt lat="39.1166063" lon="8.6954408"><ele>103.0</ele><time>2026-03-22T08:23:41.881Z</time></trkpt><trkpt lat="39.116625" lon="8.6955197"><ele>103.28571428571428</ele><time>2026-03-22T08:23:43.88Z</time></trkpt><trkpt lat="39.1166544" lon="8.6956336"><ele>103.57142857142857</ele><time>2026-03-22T08:23:46.88Z</time></trkpt><trkpt lat="39.1166777" lon="8.6957122"><ele>103.85714285714286</ele><time>2026-03-22T08:23:48.881Z</time></trkpt><trkpt lat="39.1166982" lon="8.6957911"><ele>104.14285714285714</ele><time>2026-03-22T08:23:50.88Z</time></trkpt><trkpt lat="39.116723" lon="8.6958981"><ele>104.42857142857143</ele><time>2026-03-22T08:23:53.88Z</time></trkpt><trkpt lat="39.1167499" lon="8.6959774"><ele>104.71428571428571</ele><time>2026-03-22T08:23:55.88Z</time></trkpt><trkpt lat="39.1167773" lon="8.6960542"><ele>105.0</ele><time>2026-03-22T08:23:57.881Z</time></trkpt><trkpt lat="39.116803" lon="8.6961341"><ele>105.0</ele><time>2026-03-22T08:23:59.88Z</time></trkpt><trkpt lat="39.1168369" lon="8.6962428"><ele>105.0</ele><time>2026-03-22T08:24:02.88Z</time></trkpt><trkpt lat="39.1168639" lon="8.6963278"><ele>105.0</ele><time>2026-03-22T08:24:04.88Z</time></trkpt><trkpt lat="39.1168831" lon="8.6964078"><ele>105.0</ele><time>2026-03-22T08:24:06.88Z</time></trkpt><trkpt lat="39.116915" lon="8.6964923"><ele>105.0</ele><time>2026-03-22T08:24:08.881Z</time></trkpt><trkpt lat="39.1169439" lon="8.6965743"><ele>105.0</ele><time>2026-03-22T08:24:10.88Z</time></trkpt><trkpt lat="39.1169748" lon="8.6966622"><ele>105.0</ele><time>2026-03-22T08:24:12.88Z</time></trkpt><trkpt lat="39.1170061" lon="8.6967724"><ele>105.0</ele><time>2026-03-22T08:24:15.88Z</time></trkpt><trkpt lat="39.1170255" lon="8.6968773"><ele>105.0</ele><time>2026-03-22T08:24:18.88Z</time></trkpt><trkpt lat="39.1170632" lon="8.6969742"><ele>105.0</ele><time>2026-03-22T08:24:21.88Z</time></trkpt><trkpt lat="39.1170671" lon="8.697064"><ele>105.0</ele><time>2026-03-22T08:24:24.88Z</time></trkpt><trkpt lat="39.1170992" lon="8.6971773"><ele>105.0</ele><time>2026-03-22T08:24:27.881Z</time></trkpt><trkpt lat="39.1171318" lon="8.6972691"><ele>105.0</ele><time>2026-03-22T08:24:29.88Z</time></trkpt><trkpt lat="39.1171652" lon="8.697357"><ele>105.14285714285714</ele><time>2026-03-22T08:24:31.88Z</time></trkpt><trkpt lat="39.1171983" lon="8.6974462"><ele>105.28571428571428</ele><time>2026-03-22T08:24:33.88Z</time></trkpt><trkpt lat="39.1172285" lon="8.6975306"><ele>105.42857142857143</ele><time>2026-03-22T08:24:35.881Z</time></trkpt><trkpt lat="39.1172638" lon="8.6976122"><ele>105.57142857142857</ele><time>2026-03-22T08:24:37.88Z</time></trkpt><trkpt lat="39.1173013" lon="8.6976957"><ele>105.71428571428571</ele><time>2026-03-22T08:24:39.88Z</time></trkpt><trkpt lat="39.1173363" lon="8.6977838"><ele>105.85714285714286</ele><time>2026-03-22T08:24:41.881Z</time></trkpt><trkpt lat="39.1173662" lon="8.6978727"><ele>106.0</ele><time>2026-03-22T08:24:43.88Z</time></trkpt><trkpt lat="39.1173979" lon="8.6979651"><ele>106.14285714285715</ele><time>2026-03-22T08:24:45.881Z</time></trkpt><trkpt lat="39.1174236" lon="8.6980566"><ele>106.28571428571428</ele><time>2026-03-22T08:24:47.88Z</time></trkpt><trkpt lat="39.1174479" lon="8.6981483"><ele>106.42857142857143</ele><time>2026-03-22T08:24:49.88Z</time></trkpt><trkpt lat="39.1174656" lon="8.6982423"><ele>106.57142857142858</ele><time>2026-03-22T08:24:51.88Z</time></trkpt><trkpt lat="39.1174917" lon="8.698328"><ele>106.71428571428572</ele><time>2026-03-22T08:24:53.88Z</time></trkpt><trkpt lat="39.1175097" lon="8.6984166"><ele>106.85714285714286</ele><time>2026-03-22T08:24:55.88Z</time></trkpt><trkpt lat="39.1175317" lon="8.6985062"><ele>107.0</ele><time>2026-03-22T08:24:57.881Z</time></trkpt><trkpt lat="39.1175582" lon="8.6985989"><ele>107.42857142857143</ele><time>2026-03-22T08:24:59.88Z</time></trkpt><trkpt lat="39.117585" lon="8.6986904"><ele>107.85714285714286</ele><time>2026-03-22T08:25:01.881Z</time></trkpt><trkpt lat="39.1176051" lon="8.6987804"><ele>108.28571428571428</ele><time>2026-03-22T08:25:03.88Z</time></trkpt><trkpt lat="39.1176256" lon="8.6988707"><ele>108.71428571428572</ele><time>2026-03-22T08:25:05.881Z</time></trkpt><trkpt lat="39.1176442" lon="8.6989567"><ele>109.14285714285714</ele><time>2026-03-22T08:25:07.881Z</time></trkpt><trkpt lat="39.11766" lon="8.699051"><ele>109.57142857142857</ele><time>2026-03-22T08:25:09.88Z</time></trkpt><trkpt lat="39.1176711" lon="8.6991468"><ele>110.0</ele><time>2026-03-22T08:25:11.881Z</time></trkpt><trkpt lat="39.1176889" lon="8.6992436"><ele>109.99999999999999</ele><time>2026-03-22T08:25:13.88Z</time></trkpt><trkpt lat="39.1176987" lon="8.6993427"><ele>110.0</ele><time>2026-03-22T08:25:15.88Z</time></trkpt><trkpt lat="39.1176955" lon="8.6994341"><ele>110.0</ele><time>2026-03-22T08:25:17.88Z</time></trkpt><trkpt lat="39.1176825" lon="8.699526"><ele>110.0</ele><time>2026-03-22T08:25:19.88Z</time></trkpt><trkpt lat="39.1176756" lon="8.6996143"><ele>110.0</ele><time>2026-03-22T08:25:21.88Z</time></trkpt><trkpt lat="39.1176631" lon="8.699707"><ele>109.99999999999999</ele><time>2026-03-22T08:25:23.88Z</time></trkpt><trkpt lat="39.1176559" lon="8.6998059"><ele>110.0</ele><time>2026-03-22T08:25:25.88Z</time></trkpt><trkpt lat="39.1176509" lon="8.6999069"><ele>109.99999999999999</ele><time>2026-03-22T08:25:27.88Z</time></trkpt><trkpt lat="39.1176568" lon="8.7000075"><ele>110.0</ele><time>2026-03-22T08:25:29.88Z</time></trkpt><trkpt lat="39.1176635" lon="8.7001009"><ele>110.0</ele><time>2026-03-22T08:25:31.881Z</time></trkpt><trkpt lat="39.1176763" lon="8.700199"><ele>110.0</ele><time>2026-03-22T08:25:33.881Z</time></trkpt><trkpt lat="39.1176868" lon="8.7002918"><ele>109.99999999999999</ele><time>2026-03-22T08:25:35.881Z</time></trkpt><trkpt lat="39.117701" lon="8.7003891"><ele>110.0</ele><time>2026-03-22T08:25:37.881Z</time></trkpt><trkpt lat="39.117718" lon="8.7004859"><ele>110.33333333333333</ele><time>2026-03-22T08:25:39.88Z</time></trkpt><trkpt lat="39.1177326" lon="8.7005822"><ele>110.66666666666666</ele><time>2026-03-22T08:25:41.88Z</time></trkpt><trkpt lat="39.1177455" lon="8.7006798"><ele>111.0</ele><time>2026-03-22T08:25:43.88Z</time></trkpt><trkpt lat="39.117761" lon="8.7007802"><ele>111.33333333333334</ele><time>2026-03-22T08:25:45.88Z</time></trkpt><trkpt lat="39.11778" lon="8.7008815"><ele>111.66666666666667</ele><time>2026-03-22T08:25:47.881Z</time></trkpt><trkpt lat="39.1178011" lon="8.7009799"><ele>112.0</ele><time>2026-03-22T08:25:49.88Z</time></trkpt><trkpt lat="39.1178138" lon="8.7010721"><ele>112.33333333333334</ele><time>2026-03-22T08:25:51.88Z</time></trkpt><trkpt lat="39.1178247" lon="8.7011652"><ele>112.66666666666667</ele><time>2026-03-22T08:25:53.88Z</time></trkpt><trkpt lat="39.1178317" lon="8.7012591"><ele>113.0</ele><time>2026-03-22T08:25:55.881Z</time></trkpt><trkpt lat="39.1178417" lon="8.7013543"><ele>113.33333333333334</ele><time>2026-03-22T08:25:57.881Z</time></trkpt><trkpt lat="39.1178485" lon="8.7014465"><ele>113.66666666666667</ele><time>2026-03-22T08:25:59.88Z</time></trkpt><trkpt lat="39.1178658" lon="8.7015517"><ele>114.0</ele><time>2026-03-22T08:26:01.88Z</time></trkpt><trkpt lat="39.1178812" lon="8.7016497"><ele>114.0</ele><time>2026-03-22T08:26:03.88Z</time></trkpt><trkpt lat="39.1178978" lon="8.701749"><ele>113.99999999999999</ele><time>2026-03-22T08:26:05.88Z</time></trkpt><trkpt lat="39.1179166" lon="8.7018468"><ele>114.0</ele><time>2026-03-22T08:26:07.881Z</time></trkpt><trkpt lat="39.1179338" lon="8.7019356"><ele>114.0</ele><time>2026-03-22T08:26:09.881Z</time></trkpt><trkpt lat="39.1179416" lon="8.7020163"><ele>113.99999999999999</ele><time>2026-03-22T08:26:11.881Z</time></trkpt><trkpt lat="39.1179478" lon="8.7021006"><ele>114.0</ele><time>2026-03-22T08:26:13.88Z</time></trkpt><trkpt lat="39.1179616" lon="8.7022004"><ele>114.0</ele><time>2026-03-22T08:26:15.88Z</time></trkpt><trkpt lat="39.1179802" lon="8.7023052"><ele>114.16666666666667</ele><time>2026-03-22T08:26:17.881Z</time></trkpt><trkpt lat="39.1179971" lon="8.7024138"><ele>114.33333333333334</ele><time>2026-03-22T08:26:19.881Z</time></trkpt><trkpt lat="39.1180156" lon="8.7025123"><ele>114.5</ele><time>2026-03-22T08:26:21.88Z</time></trkpt><trkpt lat="39.1180378" lon="8.7026124"><ele>114.66666666666667</ele><time>2026-03-22T08:26:23.88Z</time></trkpt><trkpt lat="39.1180561" lon="8.7027178"><ele>114.83333333333334</ele><time>2026-03-22T08:26:25.881Z</time></trkpt><trkpt lat="39.1180752" lon="8.7028235"><ele>115.0</ele><time>2026-03-22T08:26:27.881Z</time></trkpt><trkpt lat="39.1181033" lon="8.7029175"><ele>115.33333333333334</ele><time>2026-03-22T08:26:29.88Z</time></trkpt><trkpt lat="39.1181347" lon="8.7030402"><ele>115.66666666666667</ele><time>2026-03-22T08:26:32.881Z</time></trkpt><trkpt lat="39.1181242" lon="8.7031343"><ele>116.0</ele><time>2026-03-22T08:26:34.88Z</time></trkpt><trkpt lat="39.1181125" lon="8.7032267"><ele>116.33333333333334</ele><time>2026-03-22T08:26:36.881Z</time></trkpt><trkpt lat="39.1180815" lon="8.7033257"><ele>116.66666666666667</ele><time>2026-03-22T08:26:38.88Z</time></trkpt><trkpt lat="39.1180288" lon="8.7033976"><ele>117.0</ele><time>2026-03-22T08:26:40.88Z</time></trkpt><trkpt lat="39.1179706" lon="8.7034545"><ele>117.0</ele><time>2026-03-22T08:26:42.881Z</time></trkpt><trkpt lat="39.1179092" lon="8.7035154"><ele>117.0</ele><time>2026-03-22T08:26:44.88Z</time></trkpt><trkpt lat="39.1178487" lon="8.7035612"><ele>117.0</ele><time>2026-03-22T08:26:46.88Z</time></trkpt><trkpt lat="39.1177791" lon="8.70361"><ele>117.0</ele><time>2026-03-22T08:26:48.881Z</time></trkpt><trkpt lat="39.1177105" lon="8.7036668"><ele>117.0</ele><time>2026-03-22T08:26:50.881Z</time></trkpt><trkpt lat="39.1176484" lon="8.7037286"><ele>117.0</ele><time>2026-03-22T08:26:52.88Z</time></trkpt><trkpt lat="39.1175867" lon="8.7037987"><ele>117.33333333333333</ele><time>2026-03-22T08:26:54.88Z</time></trkpt><trkpt lat="39.1175178" lon="8.7038697"><ele>117.66666666666666</ele><time>2026-03-22T08:26:56.881Z</time></trkpt><trkpt lat="39.1174599" lon="8.7039274"><ele>118.0</ele><time>2026-03-22T08:26:58.88Z</time></trkpt><trkpt lat="39.1173817" lon="8.7039721"><ele>118.33333333333333</ele><time>2026-03-22T08:27:01.88Z</time></trkpt><trkpt lat="39.1172805" lon="8.70399"><ele>118.66666666666666</ele><time>2026-03-22T08:27:03.88Z</time></trkpt><trkpt lat="39.1171851" lon="8.704005"><ele>119.0</ele><time>2026-03-22T08:27:05.88Z</time></trkpt><trkpt lat="39.1171048" lon="8.7040276"><ele>119.16666666666666</ele><time>2026-03-22T08:27:07.88Z</time></trkpt><trkpt lat="39.1170327" lon="8.7040634"><ele>119.33333333333333</ele><time>2026-03-22T08:27:09.88Z</time></trkpt><trkpt lat="39.1169493" lon="8.7041169"><ele>119.5</ele><time>2026-03-22T08:27:11.881Z</time></trkpt><trkpt lat="39.1168618" lon="8.7041661"><ele>119.66666666666666</ele><time>2026-03-22T08:27:13.88Z</time></trkpt><trkpt lat="39.1167773" lon="8.7042188"><ele>119.83333333333333</ele><time>2026-03-22T08:27:15.88Z</time></trkpt><trkpt lat="39.1167009" lon="8.7042748"><ele>120.0</ele><time>2026-03-22T08:27:17.88Z</time></trkpt><trkpt lat="39.1166255" lon="8.7043162"><ele>119.83333333333333</ele><time>2026-03-22T08:27:19.881Z</time></trkpt><trkpt lat="39.1165453" lon="8.7043501"><ele>119.66666666666666</ele><time>2026-03-22T08:27:21.881Z</time></trkpt><trkpt lat="39.1164595" lon="8.7043881"><ele>119.5</ele><time>2026-03-22T08:27:23.88Z</time></trkpt><trkpt lat="39.1163738" lon="8.7044148"><ele>119.33333333333333</ele><time>2026-03-22T08:27:25.88Z</time></trkpt><trkpt lat="39.1162881" lon="8.7044393"><ele>119.16666666666666</ele><time>2026-03-22T08:27:27.88Z</time></trkpt><trkpt lat="39.1162057" lon="8.7044675"><ele>119.0</ele><time>2026-03-22T08:27:29.88Z</time></trkpt><trkpt lat="39.1161197" lon="8.7044857"><ele>119.4</ele><time>2026-03-22T08:27:31.881Z</time></trkpt><trkpt lat="39.1160287" lon="8.7044994"><ele>119.80000000000001</ele><time>2026-03-22T08:27:33.88Z</time></trkpt><trkpt lat="39.1159489" lon="8.7045124"><ele>120.19999999999999</ele><time>2026-03-22T08:27:35.881Z</time></trkpt><trkpt lat="39.1158438" lon="8.7045309"><ele>120.6</ele><time>2026-03-22T08:27:37.88Z</time></trkpt><trkpt lat="39.1157452" lon="8.7045598"><ele>121.0</ele><time>2026-03-22T08:27:39.88Z</time></trkpt><trkpt lat="39.1156556" lon="8.7045915"><ele>121.0</ele><time>2026-03-22T08:27:41.88Z</time></trkpt><trkpt lat="39.1155578" lon="8.704616"><ele>121.0</ele><time>2026-03-22T08:27:43.881Z</time></trkpt><trkpt lat="39.1154741" lon="8.7046386"><ele>121.0</ele><time>2026-03-22T08:27:45.881Z</time></trkpt><trkpt lat="39.1153823" lon="8.7046614"><ele>121.0</ele><time>2026-03-22T08:27:47.88Z</time></trkpt><trkpt lat="39.1152963" lon="8.7046955"><ele>121.0</ele><time>2026-03-22T08:27:49.881Z</time></trkpt><trkpt lat="39.1152139" lon="8.7047305"><ele>121.0</ele><time>2026-03-22T08:27:51.88Z</time></trkpt><trkpt lat="39.1151239" lon="8.7047579"><ele>121.0</ele><time>2026-03-22T08:27:53.881Z</time></trkpt><trkpt lat="39.1150368" lon="8.7047912"><ele>121.0</ele><time>2026-03-22T08:27:55.88Z</time></trkpt><trkpt lat="39.1149527" lon="8.7048197"><ele>121.0</ele><time>2026-03-22T08:27:57.881Z</time></trkpt><trkpt lat="39.1148617" lon="8.7048458"><ele>121.0</ele><time>2026-03-22T08:27:59.881Z</time></trkpt><trkpt lat="39.1147652" lon="8.7048684"><ele>121.0</ele><time>2026-03-22T08:28:01.88Z</time></trkpt><trkpt lat="39.1146716" lon="8.7049223"><ele>121.0</ele><time>2026-03-22T08:28:03.88Z</time></trkpt><trkpt lat="39.1145877" lon="8.7049576"><ele>121.0</ele><time>2026-03-22T08:28:05.88Z</time></trkpt><trkpt lat="39.1144848" lon="8.7049807"><ele>121.0</ele><time>2026-03-22T08:28:07.88Z</time></trkpt><trkpt lat="39.1144026" lon="8.7050125"><ele>121.0</ele><time>2026-03-22T08:28:09.88Z</time></trkpt><trkpt lat="39.1143193" lon="8.7050427"><ele>121.0</ele><time>2026-03-22T08:28:11.88Z</time></trkpt><trkpt lat="39.1142237" lon="8.7050632"><ele>121.0</ele><time>2026-03-22T08:28:13.88Z</time></trkpt><trkpt lat="39.1141247" lon="8.7051127"><ele>121.0</ele><time>2026-03-22T08:28:15.88Z</time></trkpt><trkpt lat="39.1140303" lon="8.7051594"><ele>121.0</ele><time>2026-03-22T08:28:17.881Z</time></trkpt><trkpt lat="39.1139459" lon="8.7051904"><ele>121.0</ele><time>2026-03-22T08:28:19.88Z</time></trkpt><trkpt lat="39.1138509" lon="8.70521"><ele>121.00000000000001</ele><time>2026-03-22T08:28:21.88Z</time></trkpt><trkpt lat="39.1137645" lon="8.705244"><ele>121.0</ele><time>2026-03-22T08:28:23.88Z</time></trkpt><trkpt lat="39.1136866" lon="8.705295"><ele>121.0</ele><time>2026-03-22T08:28:25.881Z</time></trkpt><trkpt lat="39.1136496" lon="8.7053925"><ele>121.0</ele><time>2026-03-22T08:28:27.88Z</time></trkpt><trkpt lat="39.1136393" lon="8.7054995"><ele>121.00000000000001</ele><time>2026-03-22T08:28:29.88Z</time></trkpt><trkpt lat="39.1136396" lon="8.7056018"><ele>121.0</ele><time>2026-03-22T08:28:31.88Z</time></trkpt><trkpt lat="39.1136348" lon="8.7056991"><ele>121.16666666666667</ele><time>2026-03-22T08:28:33.88Z</time></trkpt><trkpt lat="39.1136284" lon="8.7058082"><ele>121.33333333333334</ele><time>2026-03-22T08:28:35.88Z</time></trkpt><trkpt lat="39.1136266" lon="8.7059156"><ele>121.5</ele><time>2026-03-22T08:28:37.88Z</time></trkpt><trkpt lat="39.1136278" lon="8.706019"><ele>121.66666666666666</ele><time>2026-03-22T08:28:39.88Z</time></trkpt><trkpt lat="39.1136248" lon="8.7061232"><ele>121.83333333333333</ele><time>2026-03-22T08:28:41.88Z</time></trkpt><trkpt lat="39.1136157" lon="8.706219"><ele>122.0</ele><time>2026-03-22T08:28:43.88Z</time></trkpt><trkpt lat="39.1136103" lon="8.7063212"><ele>122.33333333333333</ele><time>2026-03-22T08:28:45.88Z</time></trkpt><trkpt lat="39.1136094" lon="8.7064328"><ele>122.66666666666666</ele><time>2026-03-22T08:28:47.88Z</time></trkpt><trkpt lat="39.1136134" lon="8.7065461"><ele>123.0</ele><time>2026-03-22T08:28:49.881Z</time></trkpt><trkpt lat="39.1136239" lon="8.7066499"><ele>123.33333333333334</ele><time>2026-03-22T08:28:51.88Z</time></trkpt><trkpt lat="39.1136269" lon="8.7067458"><ele>123.66666666666667</ele><time>2026-03-22T08:28:53.88Z</time></trkpt><trkpt lat="39.1136267" lon="8.7068371"><ele>124.0</ele><time>2026-03-22T08:28:55.881Z</time></trkpt><trkpt lat="39.1136339" lon="8.7069478"><ele>124.16666666666667</ele><time>2026-03-22T08:28:58.881Z</time></trkpt><trkpt lat="39.1136474" lon="8.707031"><ele>124.33333333333334</ele><time>2026-03-22T08:29:00.881Z</time></trkpt><trkpt lat="39.1136785" lon="8.7071259"><ele>124.5</ele><time>2026-03-22T08:29:02.881Z</time></trkpt><trkpt lat="39.113719" lon="8.7072206"><ele>124.66666666666666</ele><time>2026-03-22T08:29:04.88Z</time></trkpt><trkpt lat="39.1137619" lon="8.7073124"><ele>124.83333333333333</ele><time>2026-03-22T08:29:06.881Z</time></trkpt><trkpt lat="39.1137999" lon="8.707398"><ele>125.0</ele><time>2026-03-22T08:29:08.88Z</time></trkpt><trkpt lat="39.1138329" lon="8.7074829"><ele>124.99999999999999</ele><time>2026-03-22T08:29:10.881Z</time></trkpt><trkpt lat="39.113855" lon="8.7075666"><ele>125.0</ele><time>2026-03-22T08:29:12.88Z</time></trkpt><trkpt lat="39.1138702" lon="8.70766"><ele>125.0</ele><time>2026-03-22T08:29:14.88Z</time></trkpt><trkpt lat="39.1138794" lon="8.7077532"><ele>125.0</ele><time>2026-03-22T08:29:16.88Z</time></trkpt><trkpt lat="39.1139029" lon="8.7078604"><ele>124.99999999999999</ele><time>2026-03-22T08:29:18.88Z</time></trkpt><trkpt lat="39.113926" lon="8.7079766"><ele>125.0</ele><time>2026-03-22T08:29:20.88Z</time></trkpt><trkpt lat="39.1139412" lon="8.7080621"><ele>125.14285714285714</ele><time>2026-03-22T08:29:22.88Z</time></trkpt><trkpt lat="39.1139498" lon="8.7081452"><ele>125.28571428571429</ele><time>2026-03-22T08:29:24.88Z</time></trkpt><trkpt lat="39.1139726" lon="8.7082391"><ele>125.42857142857143</ele><time>2026-03-22T08:29:26.881Z</time></trkpt><trkpt lat="39.1139906" lon="8.7083259"><ele>125.57142857142857</ele><time>2026-03-22T08:29:28.881Z</time></trkpt><trkpt lat="39.1140197" lon="8.708431"><ele>125.71428571428572</ele><time>2026-03-22T08:29:31.88Z</time></trkpt><trkpt lat="39.1140505" lon="8.7085096"><ele>125.85714285714286</ele><time>2026-03-22T08:29:33.88Z</time></trkpt><trkpt lat="39.1140858" lon="8.7085902"><ele>126.0</ele><time>2026-03-22T08:29:35.88Z</time></trkpt><trkpt lat="39.1141252" lon="8.7086726"><ele>126.5</ele><time>2026-03-22T08:29:37.88Z</time></trkpt><trkpt lat="39.1141611" lon="8.7087532"><ele>127.0</ele><time>2026-03-22T08:29:39.881Z</time></trkpt><trkpt lat="39.1142035" lon="8.7088339"><ele>127.5</ele><time>2026-03-22T08:29:41.88Z</time></trkpt><trkpt lat="39.1142488" lon="8.7089058"><ele>128.0</ele><time>2026-03-22T08:29:43.88Z</time></trkpt><trkpt lat="39.1143043" lon="8.7089833"><ele>128.5</ele><time>2026-03-22T08:29:45.88Z</time></trkpt><trkpt lat="39.114361" lon="8.7090585"><ele>129.0</ele><time>2026-03-22T08:29:47.881Z</time></trkpt><trkpt lat="39.1144112" lon="8.7091346"><ele>129.0</ele><time>2026-03-22T08:29:49.881Z</time></trkpt><trkpt lat="39.1144631" lon="8.7092112"><ele>129.0</ele><time>2026-03-22T08:29:51.88Z</time></trkpt><trkpt lat="39.1145067" lon="8.7092851"><ele>129.0</ele><time>2026-03-22T08:29:53.881Z</time></trkpt><trkpt lat="39.1145571" lon="8.7093595"><ele>129.0</ele><time>2026-03-22T08:29:55.88Z</time></trkpt><trkpt lat="39.1146024" lon="8.7094322"><ele>129.0</ele><time>2026-03-22T08:29:57.88Z</time></trkpt><trkpt lat="39.1146422" lon="8.7095133"><ele>129.0</ele><time>2026-03-22T08:29:59.88Z</time></trkpt><trkpt lat="39.1146762" lon="8.7096041"><ele>129.28571428571428</ele><time>2026-03-22T08:30:01.88Z</time></trkpt><trkpt lat="39.1146995" lon="8.7096826"><ele>129.57142857142856</ele><time>2026-03-22T08:30:03.881Z</time></trkpt><trkpt lat="39.1147279" lon="8.7097741"><ele>129.85714285714286</ele><time>2026-03-22T08:30:05.88Z</time></trkpt><trkpt lat="39.1147396" lon="8.7098651"><ele>130.14285714285714</ele><time>2026-03-22T08:30:07.88Z</time></trkpt><trkpt lat="39.1147482" lon="8.709957"><ele>130.42857142857144</ele><time>2026-03-22T08:30:09.88Z</time></trkpt><trkpt lat="39.1147492" lon="8.710039"><ele>130.71428571428572</ele><time>2026-03-22T08:30:11.881Z</time></trkpt><trkpt lat="39.1147503" lon="8.7101273"><ele>131.0</ele><time>2026-03-22T08:30:13.88Z</time></trkpt><trkpt lat="39.1147482" lon="8.7102124"><ele>131.14285714285714</ele><time>2026-03-22T08:30:15.88Z</time></trkpt><trkpt lat="39.1147467" lon="8.7103073"><ele>131.2857142857143</ele><time>2026-03-22T08:30:17.88Z</time></trkpt><trkpt lat="39.1147471" lon="8.7103945"><ele>131.42857142857144</ele><time>2026-03-22T08:30:19.88Z</time></trkpt><trkpt lat="39.1147486" lon="8.7104863"><ele>131.57142857142858</ele><time>2026-03-22T08:30:21.881Z</time></trkpt><trkpt lat="39.1147464" lon="8.7105739"><ele>131.71428571428572</ele><time>2026-03-22T08:30:23.88Z</time></trkpt><trkpt lat="39.1147414" lon="8.710663"><ele>131.85714285714286</ele><time>2026-03-22T08:30:25.881Z</time></trkpt><trkpt lat="39.1147392" lon="8.7107588"><ele>132.0</ele><time>2026-03-22T08:30:27.88Z</time></trkpt><trkpt lat="39.1147419" lon="8.7108534"><ele>132.0</ele><time>2026-03-22T08:30:29.881Z</time></trkpt><trkpt lat="39.1147552" lon="8.7109565"><ele>132.0</ele><time>2026-03-22T08:30:31.88Z</time></trkpt><trkpt lat="39.1147711" lon="8.7110642"><ele>132.0</ele><time>2026-03-22T08:30:33.88Z</time></trkpt><trkpt lat="39.1147868" lon="8.7111556"><ele>132.0</ele><time>2026-03-22T08:30:35.88Z</time></trkpt><trkpt lat="39.1147974" lon="8.7112484"><ele>132.0</ele><time>2026-03-22T08:30:37.88Z</time></trkpt><trkpt lat="39.1148022" lon="8.7113465"><ele>132.0</ele><time>2026-03-22T08:30:39.88Z</time></trkpt><trkpt lat="39.1148124" lon="8.7114443"><ele>132.33333333333334</ele><time>2026-03-22T08:30:41.88Z</time></trkpt><trkpt lat="39.1148222" lon="8.7115442"><ele>132.66666666666666</ele><time>2026-03-22T08:30:43.88Z</time></trkpt><trkpt lat="39.1148305" lon="8.7116388"><ele>133.0</ele><time>2026-03-22T08:30:45.881Z</time></trkpt><trkpt lat="39.1148426" lon="8.7117322"><ele>133.33333333333331</ele><time>2026-03-22T08:30:47.88Z</time></trkpt><trkpt lat="39.1148524" lon="8.7118326"><ele>133.66666666666666</ele><time>2026-03-22T08:30:49.88Z</time></trkpt><trkpt lat="39.1148633" lon="8.7119351"><ele>134.0</ele><time>2026-03-22T08:30:51.881Z</time></trkpt><trkpt lat="39.1148753" lon="8.71204"><ele>134.0</ele><time>2026-03-22T08:30:53.88Z</time></trkpt><trkpt lat="39.1148854" lon="8.7121394"><ele>134.0</ele><time>2026-03-22T08:30:55.88Z</time></trkpt><trkpt lat="39.1148927" lon="8.7122343"><ele>134.0</ele><time>2026-03-22T08:30:57.88Z</time></trkpt><trkpt lat="39.1149007" lon="8.7123282"><ele>134.0</ele><time>2026-03-22T08:30:59.88Z</time></trkpt><trkpt lat="39.1149104" lon="8.7124287"><ele>134.0</ele><time>2026-03-22T08:31:01.88Z</time></trkpt><trkpt lat="39.114917" lon="8.7125233"><ele>134.0</ele><time>2026-03-22T08:31:03.88Z</time></trkpt><trkpt lat="39.1149233" lon="8.7126185"><ele>134.33333333333331</ele><time>2026-03-22T08:31:05.88Z</time></trkpt><trkpt lat="39.1149274" lon="8.7127078"><ele>134.66666666666666</ele><time>2026-03-22T08:31:07.881Z</time></trkpt><trkpt lat="39.1149387" lon="8.7128009"><ele>135.0</ele><time>2026-03-22T08:31:09.88Z</time></trkpt><trkpt lat="39.1149455" lon="8.7128949"><ele>135.33333333333334</ele><time>2026-03-22T08:31:11.88Z</time></trkpt><trkpt lat="39.1149541" lon="8.7129862"><ele>135.66666666666669</ele><time>2026-03-22T08:31:13.88Z</time></trkpt><trkpt lat="39.114962" lon="8.7131057"><ele>136.0</ele><time>2026-03-22T08:31:16.88Z</time></trkpt><trkpt lat="39.1149681" lon="8.7131984"><ele>135.99999999999997</ele><time>2026-03-22T08:31:18.88Z</time></trkpt><trkpt lat="39.1149809" lon="8.7132852"><ele>136.0</ele><time>2026-03-22T08:31:20.88Z</time></trkpt><trkpt lat="39.1150166" lon="8.7133582"><ele>136.0</ele><time>2026-03-22T08:31:22.88Z</time></trkpt><trkpt lat="39.1150824" lon="8.7133949"><ele>136.0</ele><time>2026-03-22T08:31:24.88Z</time></trkpt><trkpt lat="39.1151537" lon="8.7133975"><ele>136.0</ele><time>2026-03-22T08:31:26.88Z</time></trkpt><trkpt lat="39.1152299" lon="8.7133938"><ele>135.99999999999997</ele><time>2026-03-22T08:31:28.88Z</time></trkpt><trkpt lat="39.115301" lon="8.7133939"><ele>136.0</ele><time>2026-03-22T08:31:30.881Z</time></trkpt><trkpt lat="39.1153789" lon="8.7133814"><ele>136.0</ele><time>2026-03-22T08:31:32.881Z</time></trkpt><trkpt lat="39.1154522" lon="8.7133726"><ele>136.0</ele><time>2026-03-22T08:31:34.88Z</time></trkpt><trkpt lat="39.115525" lon="8.7133593"><ele>136.0</ele><time>2026-03-22T08:31:36.88Z</time></trkpt><trkpt lat="39.1156015" lon="8.7133428"><ele>136.0</ele><time>2026-03-22T08:31:38.881Z</time></trkpt><trkpt lat="39.1156784" lon="8.7133296"><ele>136.0</ele><time>2026-03-22T08:31:40.881Z</time></trkpt><trkpt lat="39.1157554" lon="8.7133153"><ele>136.0</ele><time>2026-03-22T08:31:42.88Z</time></trkpt><trkpt lat="39.1158507" lon="8.7132947"><ele>136.33333333333334</ele><time>2026-03-22T08:31:45.88Z</time></trkpt><trkpt lat="39.1159213" lon="8.7132814"><ele>136.66666666666669</ele><time>2026-03-22T08:31:47.88Z</time></trkpt><trkpt lat="39.1160061" lon="8.7132556"><ele>137.0</ele><time>2026-03-22T08:31:49.881Z</time></trkpt><trkpt lat="39.1160776" lon="8.7132426"><ele>137.33333333333334</ele><time>2026-03-22T08:31:51.88Z</time></trkpt><trkpt lat="39.1161592" lon="8.7132196"><ele>137.66666666666666</ele><time>2026-03-22T08:31:53.881Z</time></trkpt><trkpt lat="39.1162435" lon="8.7131946"><ele>138.0</ele><time>2026-03-22T08:31:55.88Z</time></trkpt><trkpt lat="39.1163263" lon="8.7131683"><ele>138.0</ele><time>2026-03-22T08:31:57.88Z</time></trkpt><trkpt lat="39.1164068" lon="8.7131472"><ele>138.0</ele><time>2026-03-22T08:31:59.88Z</time></trkpt><trkpt lat="39.1164785" lon="8.7131218"><ele>138.0</ele><time>2026-03-22T08:32:01.881Z</time></trkpt><trkpt lat="39.116557" lon="8.7131023"><ele>138.0</ele><time>2026-03-22T08:32:03.88Z</time></trkpt><trkpt lat="39.1166499" lon="8.713087"><ele>138.0</ele><time>2026-03-22T08:32:05.881Z</time></trkpt><trkpt lat="39.1167396" lon="8.7130943"><ele>138.0</ele><time>2026-03-22T08:32:07.881Z</time></trkpt><trkpt lat="39.1168184" lon="8.7131255"><ele>138.33333333333334</ele><time>2026-03-22T08:32:09.88Z</time></trkpt><trkpt lat="39.1168906" lon="8.7131848"><ele>138.66666666666666</ele><time>2026-03-22T08:32:11.881Z</time></trkpt><trkpt lat="39.1169532" lon="8.7132406"><ele>139.0</ele><time>2026-03-22T08:32:13.88Z</time></trkpt><trkpt lat="39.1170091" lon="8.7133002"><ele>139.33333333333331</ele><time>2026-03-22T08:32:15.88Z</time></trkpt><trkpt lat="39.1170615" lon="8.713363"><ele>139.66666666666666</ele><time>2026-03-22T08:32:17.88Z</time></trkpt><trkpt lat="39.1171114" lon="8.7134422"><ele>140.0</ele><time>2026-03-22T08:32:19.881Z</time></trkpt><trkpt lat="39.1171603" lon="8.7135261"><ele>140.33333333333331</ele><time>2026-03-22T08:32:21.88Z</time></trkpt><trkpt lat="39.1172007" lon="8.7136065"><ele>140.66666666666666</ele><time>2026-03-22T08:32:23.88Z</time></trkpt><trkpt lat="39.1172759" lon="8.7136484"><ele>141.0</ele><time>2026-03-22T08:32:25.88Z</time></trkpt><trkpt lat="39.1173678" lon="8.7136369"><ele>141.33333333333334</ele><time>2026-03-22T08:32:27.88Z</time></trkpt><trkpt lat="39.1174411" lon="8.7136171"><ele>141.66666666666669</ele><time>2026-03-22T08:32:29.88Z</time></trkpt><trkpt lat="39.1175081" lon="8.713601"><ele>142.0</ele><time>2026-03-22T08:32:31.88Z</time></trkpt><trkpt lat="39.1175749" lon="8.7135867"><ele>141.83333333333334</ele><time>2026-03-22T08:32:33.88Z</time></trkpt><trkpt lat="39.1176494" lon="8.7135642"><ele>141.66666666666669</ele><time>2026-03-22T08:32:35.881Z</time></trkpt><trkpt lat="39.1177319" lon="8.7135473"><ele>141.5</ele><time>2026-03-22T08:32:37.881Z</time></trkpt><trkpt lat="39.1178176" lon="8.7135394"><ele>141.33333333333334</ele><time>2026-03-22T08:32:39.881Z</time></trkpt><trkpt lat="39.1179013" lon="8.7135353"><ele>141.16666666666666</ele><time>2026-03-22T08:32:41.88Z</time></trkpt><trkpt lat="39.1179673" lon="8.7135579"><ele>141.0</ele><time>2026-03-22T08:32:43.881Z</time></trkpt><trkpt lat="39.1180343" lon="8.7136063"><ele>141.33333333333334</ele><time>2026-03-22T08:32:45.88Z</time></trkpt><trkpt lat="39.1181104" lon="8.713678"><ele>141.66666666666666</ele><time>2026-03-22T08:32:47.88Z</time></trkpt><trkpt lat="39.1181772" lon="8.7137449"><ele>142.0</ele><time>2026-03-22T08:32:49.88Z</time></trkpt><trkpt lat="39.1182309" lon="8.7138151"><ele>142.33333333333331</ele><time>2026-03-22T08:32:51.88Z</time></trkpt><trkpt lat="39.1182644" lon="8.7139047"><ele>142.66666666666666</ele><time>2026-03-22T08:32:53.88Z</time></trkpt><trkpt lat="39.1182975" lon="8.7139956"><ele>143.0</ele><time>2026-03-22T08:32:55.88Z</time></trkpt><trkpt lat="39.1183224" lon="8.71408"><ele>143.16666666666666</ele><time>2026-03-22T08:32:57.88Z</time></trkpt><trkpt lat="39.1183548" lon="8.7142003"><ele>143.33333333333331</ele><time>2026-03-22T08:33:00.88Z</time></trkpt><trkpt lat="39.1183776" lon="8.7142889"><ele>143.5</ele><time>2026-03-22T08:33:02.88Z</time></trkpt><trkpt lat="39.1183999" lon="8.7143815"><ele>143.66666666666666</ele><time>2026-03-22T08:33:04.88Z</time></trkpt><trkpt lat="39.118425" lon="8.7144755"><ele>143.83333333333334</ele><time>2026-03-22T08:33:06.881Z</time></trkpt><trkpt lat="39.1184352" lon="8.7145679"><ele>144.0</ele><time>2026-03-22T08:33:08.88Z</time></trkpt><trkpt lat="39.118457" lon="8.7146555"><ele>144.16666666666666</ele><time>2026-03-22T08:33:10.881Z</time></trkpt><trkpt lat="39.1185026" lon="8.7147345"><ele>144.33333333333334</ele><time>2026-03-22T08:33:12.88Z</time></trkpt><trkpt lat="39.1185744" lon="8.7147901"><ele>144.5</ele><time>2026-03-22T08:33:14.881Z</time></trkpt><trkpt lat="39.1186587" lon="8.714823"><ele>144.66666666666669</ele><time>2026-03-22T08:33:16.88Z</time></trkpt><trkpt lat="39.1187393" lon="8.7148293"><ele>144.83333333333334</ele><time>2026-03-22T08:33:18.881Z</time></trkpt><trkpt lat="39.1188243" lon="8.7148372"><ele>145.0</ele><time>2026-03-22T08:33:20.88Z</time></trkpt><trkpt lat="39.1189063" lon="8.7148471"><ele>145.0</ele><time>2026-03-22T08:33:22.88Z</time></trkpt><trkpt lat="39.1189882" lon="8.7148532"><ele>145.0</ele><time>2026-03-22T08:33:24.88Z</time></trkpt><trkpt lat="39.1190754" lon="8.7148555"><ele>145.0</ele><time>2026-03-22T08:33:26.881Z</time></trkpt><trkpt lat="39.11916" lon="8.7148512"><ele>145.0</ele><time>2026-03-22T08:33:28.88Z</time></trkpt><trkpt lat="39.1192363" lon="8.7148467"><ele>145.0</ele><time>2026-03-22T08:33:30.88Z</time></trkpt><trkpt lat="39.1193117" lon="8.7148421"><ele>145.0</ele><time>2026-03-22T08:33:32.88Z</time></trkpt><trkpt lat="39.1193956" lon="8.7148389"><ele>145.0</ele><time>2026-03-22T08:33:34.88Z</time></trkpt><trkpt lat="39.1194765" lon="8.7148337"><ele>145.0</ele><time>2026-03-22T08:33:36.881Z</time></trkpt><trkpt lat="39.1195602" lon="8.7148346"><ele>145.0</ele><time>2026-03-22T08:33:38.88Z</time></trkpt><trkpt lat="39.1196509" lon="8.7148312"><ele>145.0</ele><time>2026-03-22T08:33:40.88Z</time></trkpt><trkpt lat="39.1197443" lon="8.7148222"><ele>145.0</ele><time>2026-03-22T08:33:42.88Z</time></trkpt><trkpt lat="39.1198336" lon="8.7148271"><ele>145.0</ele><time>2026-03-22T08:33:44.881Z</time></trkpt><trkpt lat="39.1199361" lon="8.7148304"><ele>145.16666666666669</ele><time>2026-03-22T08:33:46.88Z</time></trkpt><trkpt lat="39.1200449" lon="8.7148258"><ele>145.33333333333334</ele><time>2026-03-22T08:33:48.88Z</time></trkpt><trkpt lat="39.1201389" lon="8.7148344"><ele>145.5</ele><time>2026-03-22T08:33:50.88Z</time></trkpt><trkpt lat="39.1202147" lon="8.7148625"><ele>145.66666666666666</ele><time>2026-03-22T08:33:52.88Z</time></trkpt><trkpt lat="39.1202924" lon="8.714879"><ele>145.83333333333331</ele><time>2026-03-22T08:33:54.881Z</time></trkpt><trkpt lat="39.1203689" lon="8.7148955"><ele>146.0</ele><time>2026-03-22T08:33:56.88Z</time></trkpt><trkpt lat="39.120453" lon="8.7149193"><ele>146.0</ele><time>2026-03-22T08:33:58.881Z</time></trkpt><trkpt lat="39.1205401" lon="8.7149378"><ele>146.0</ele><time>2026-03-22T08:34:00.881Z</time></trkpt><trkpt lat="39.1206161" lon="8.7149558"><ele>146.0</ele><time>2026-03-22T08:34:02.88Z</time></trkpt><trkpt lat="39.1206588" lon="8.7148949"><ele>146.0</ele><time>2026-03-22T08:34:04.88Z</time></trkpt><trkpt lat="39.1206716" lon="8.7148004"><ele>146.0</ele><time>2026-03-22T08:34:06.88Z</time></trkpt><trkpt lat="39.1206604" lon="8.7146953"><ele>146.0</ele><time>2026-03-22T08:34:08.881Z</time></trkpt><trkpt lat="39.1206715" lon="8.7145737"><ele>146.0</ele><time>2026-03-22T08:34:10.88Z</time></trkpt><trkpt lat="39.1206925" lon="8.7144532"><ele>146.0</ele><time>2026-03-22T08:34:12.881Z</time></trkpt><trkpt lat="39.1207198" lon="8.7143274"><ele>146.0</ele><time>2026-03-22T08:34:14.881Z</time></trkpt><trkpt lat="39.1207354" lon="8.7141905"><ele>146.0</ele><time>2026-03-22T08:34:16.88Z</time></trkpt><trkpt lat="39.1207553" lon="8.7140558"><ele>146.0</ele><time>2026-03-22T08:34:18.88Z</time></trkpt><trkpt lat="39.120786" lon="8.7139296"><ele>145.8</ele><time>2026-03-22T08:34:20.88Z</time></trkpt><trkpt lat="39.1208191" lon="8.7138026"><ele>145.6</ele><time>2026-03-22T08:34:22.88Z</time></trkpt><trkpt lat="39.120843" lon="8.7137039"><ele>145.4</ele><time>2026-03-22T08:34:24.88Z</time></trkpt><trkpt lat="39.1208916" lon="8.7136066"><ele>145.2</ele><time>2026-03-22T08:34:26.881Z</time></trkpt><trkpt lat="39.1209554" lon="8.713494"><ele>145.0</ele><time>2026-03-22T08:34:28.881Z</time></trkpt><trkpt lat="39.121015" lon="8.7134257"><ele>144.0</ele><time>2026-03-22T08:34:30.881Z</time></trkpt><trkpt lat="39.1211772" lon="8.7133759"><ele>143.0</ele><time>2026-03-22T08:34:34.88Z</time></trkpt><trkpt lat="39.1212898" lon="8.7133841"><ele>142.0</ele><time>2026-03-22T08:34:36.88Z</time></trkpt><trkpt lat="39.1213934" lon="8.7133703"><ele>141.0</ele><time>2026-03-22T08:34:38.88Z</time></trkpt><trkpt lat="39.1215276" lon="8.7133795"><ele>140.83333333333334</ele><time>2026-03-22T08:34:41.881Z</time></trkpt><trkpt lat="39.1216177" lon="8.713384"><ele>140.66666666666666</ele><time>2026-03-22T08:34:43.881Z</time></trkpt><trkpt lat="39.1217043" lon="8.713402"><ele>140.5</ele><time>2026-03-22T08:34:45.881Z</time></trkpt><trkpt lat="39.1218031" lon="8.7133963"><ele>140.33333333333331</ele><time>2026-03-22T08:34:47.88Z</time></trkpt><trkpt lat="39.1218812" lon="8.7133972"><ele>140.16666666666666</ele><time>2026-03-22T08:34:49.88Z</time></trkpt><trkpt lat="39.1219697" lon="8.7133796"><ele>140.0</ele><time>2026-03-22T08:34:51.881Z</time></trkpt><trkpt lat="39.1220525" lon="8.7133524"><ele>140.0</ele><time>2026-03-22T08:34:53.88Z</time></trkpt><trkpt lat="39.1221338" lon="8.713321"><ele>140.0</ele><time>2026-03-22T08:34:55.88Z</time></trkpt><trkpt lat="39.1222174" lon="8.7132898"><ele>140.0</ele><time>2026-03-22T08:34:57.88Z</time></trkpt><trkpt lat="39.1222965" lon="8.7132628"><ele>140.0</ele><time>2026-03-22T08:34:59.88Z</time></trkpt><trkpt lat="39.1223775" lon="8.7132405"><ele>140.0</ele><time>2026-03-22T08:35:01.881Z</time></trkpt><trkpt lat="39.122459" lon="8.7132074"><ele>140.0</ele><time>2026-03-22T08:35:03.88Z</time></trkpt><trkpt lat="39.1225355" lon="8.7131718"><ele>140.0</ele><time>2026-03-22T08:35:05.88Z</time></trkpt><trkpt lat="39.1226111" lon="8.71314"><ele>140.0</ele><time>2026-03-22T08:35:07.88Z</time></trkpt><trkpt lat="39.1226953" lon="8.7131061"><ele>140.0</ele><time>2026-03-22T08:35:09.881Z</time></trkpt><trkpt lat="39.1227898" lon="8.7130766"><ele>140.0</ele><time>2026-03-22T08:35:11.88Z</time></trkpt><trkpt lat="39.122871" lon="8.7130356"><ele>140.0</ele><time>2026-03-22T08:35:13.88Z</time></trkpt><trkpt lat="39.1229409" lon="8.7129946"><ele>140.0</ele><time>2026-03-22T08:35:15.881Z</time></trkpt><trkpt lat="39.1230096" lon="8.7129634"><ele>140.0</ele><time>2026-03-22T08:35:17.88Z</time></trkpt><trkpt lat="39.1230721" lon="8.7129097"><ele>140.0</ele><time>2026-03-22T08:35:19.88Z</time></trkpt><trkpt lat="39.1231281" lon="8.7128502"><ele>140.0</ele><time>2026-03-22T08:35:21.88Z</time></trkpt><trkpt lat="39.1231845" lon="8.7127893"><ele>140.0</ele><time>2026-03-22T08:35:24.88Z</time></trkpt><trkpt lat="39.1232024" lon="8.7127017"><ele>140.0</ele><time>2026-03-22T08:37:06.88Z</time></trkpt><trkpt lat="39.1232498" lon="8.7126417"><ele>140.0</ele><time>2026-03-22T08:37:10.88Z</time></trkpt><trkpt lat="39.1232883" lon="8.7125616"><ele>140.0</ele><time>2026-03-22T08:37:14.88Z</time></trkpt><trkpt lat="39.1233291" lon="8.7124739"><ele>140.28571428571428</ele><time>2026-03-22T08:37:18.88Z</time></trkpt><trkpt lat="39.1233679" lon="8.7123945"><ele>140.57142857142856</ele><time>2026-03-22T08:37:21.88Z</time></trkpt><trkpt lat="39.1234021" lon="8.7123235"><ele>140.85714285714286</ele><time>2026-03-22T08:37:23.881Z</time></trkpt><trkpt lat="39.1234363" lon="8.7122527"><ele>141.14285714285714</ele><time>2026-03-22T08:37:25.88Z</time></trkpt><trkpt lat="39.1234894" lon="8.7121735"><ele>141.42857142857142</ele><time>2026-03-22T08:37:28.881Z</time></trkpt><trkpt lat="39.1235412" lon="8.7121229"><ele>141.71428571428572</ele><time>2026-03-22T08:37:30.88Z</time></trkpt><trkpt lat="39.1236113" lon="8.7120619"><ele>142.0</ele><time>2026-03-22T08:37:33.881Z</time></trkpt><trkpt lat="39.1236665" lon="8.7120187"><ele>142.0</ele><time>2026-03-22T08:37:36.88Z</time></trkpt><trkpt lat="39.1237149" lon="8.7119664"><ele>142.0</ele><time>2026-03-22T08:37:39.881Z</time></trkpt><trkpt lat="39.1237712" lon="8.7119007"><ele>142.0</ele><time>2026-03-22T08:37:42.881Z</time></trkpt><trkpt lat="39.1238239" lon="8.7118388"><ele>142.0</ele><time>2026-03-22T08:37:45.88Z</time></trkpt><trkpt lat="39.1238832" lon="8.711786"><ele>142.0</ele><time>2026-03-22T08:37:48.88Z</time></trkpt><trkpt lat="39.1239475" lon="8.7117302"><ele>142.0</ele><time>2026-03-22T08:37:51.88Z</time></trkpt><trkpt lat="39.1240044" lon="8.7116718"><ele>142.0</ele><time>2026-03-22T08:37:54.88Z</time></trkpt><trkpt lat="39.1240275" lon="8.7115809"><ele>142.16666666666669</ele><time>2026-03-22T08:37:57.88Z</time></trkpt><trkpt lat="39.1240629" lon="8.7114868"><ele>142.33333333333334</ele><time>2026-03-22T08:38:00.88Z</time></trkpt><trkpt lat="39.124099" lon="8.7113932"><ele>142.5</ele><time>2026-03-22T08:38:03.88Z</time></trkpt><trkpt lat="39.1241435" lon="8.7113074"><ele>142.66666666666666</ele><time>2026-03-22T08:38:06.881Z</time></trkpt><trkpt lat="39.1241987" lon="8.7112257"><ele>142.83333333333331</ele><time>2026-03-22T08:38:09.88Z</time></trkpt><trkpt lat="39.1242556" lon="8.7111374"><ele>143.0</ele><time>2026-03-22T08:38:12.88Z</time></trkpt><trkpt lat="39.1243142" lon="8.7110675"><ele>143.16666666666666</ele><time>2026-03-22T08:38:15.88Z</time></trkpt><trkpt lat="39.1243736" lon="8.7109975"><ele>143.33333333333331</ele><time>2026-03-22T08:38:18.88Z</time></trkpt><trkpt lat="39.1244307" lon="8.710925"><ele>143.5</ele><time>2026-03-22T08:38:21.88Z</time></trkpt><trkpt lat="39.1244778" lon="8.7108504"><ele>143.66666666666666</ele><time>2026-03-22T08:38:24.88Z</time></trkpt><trkpt lat="39.1245446" lon="8.710831"><ele>143.83333333333334</ele><time>2026-03-22T08:38:29.881Z</time></trkpt><trkpt lat="39.1245687" lon="8.7109212"><ele>144.0</ele><time>2026-03-22T08:38:35.88Z</time></trkpt><trkpt lat="39.1245924" lon="8.7110177"><ele>144.42857142857144</ele><time>2026-03-22T08:38:40.88Z</time></trkpt><trkpt lat="39.1246315" lon="8.7110976"><ele>144.85714285714286</ele><time>2026-03-22T08:38:44.881Z</time></trkpt><trkpt lat="39.1246581" lon="8.7111852"><ele>145.28571428571428</ele><time>2026-03-22T08:38:48.88Z</time></trkpt><trkpt lat="39.1246973" lon="8.7112487"><ele>145.71428571428572</ele><time>2026-03-22T08:38:51.88Z</time></trkpt><trkpt lat="39.1247425" lon="8.7113337"><ele>146.14285714285714</ele><time>2026-03-22T08:38:55.88Z</time></trkpt><trkpt lat="39.1247865" lon="8.7114019"><ele>146.57142857142858</ele><time>2026-03-22T08:38:59.881Z</time></trkpt><trkpt lat="39.1248338" lon="8.7114831"><ele>147.0</ele><time>2026-03-22T08:39:03.88Z</time></trkpt><trkpt lat="39.1248629" lon="8.7115665"><ele>147.0</ele><time>2026-03-22T08:39:07.88Z</time></trkpt><trkpt lat="39.1248985" lon="8.7116502"><ele>147.0</ele><time>2026-03-22T08:39:11.881Z</time></trkpt><trkpt lat="39.1249232" lon="8.7117265"><ele>147.0</ele><time>2026-03-22T08:39:14.881Z</time></trkpt><trkpt lat="39.1249438" lon="8.7118051"><ele>147.0</ele><time>2026-03-22T08:39:17.881Z</time></trkpt><trkpt lat="39.1249726" lon="8.7118801"><ele>147.0</ele><time>2026-03-22T08:39:20.88Z</time></trkpt><trkpt lat="39.1250063" lon="8.7119524"><ele>147.0</ele><time>2026-03-22T08:40:00.88Z</time></trkpt><trkpt lat="39.1250206" lon="8.7120362"><ele>147.0</ele><time>2026-03-22T08:40:06.88Z</time></trkpt><trkpt lat="39.125043" lon="8.7121329"><ele>148.0</ele><time>2026-03-22T08:40:10.881Z</time></trkpt><trkpt lat="39.125062" lon="8.7122212"><ele>149.0</ele><time>2026-03-22T08:40:14.88Z</time></trkpt><trkpt lat="39.1250859" lon="8.7122995"><ele>150.0</ele><time>2026-03-22T08:40:17.88Z</time></trkpt><trkpt lat="39.1251127" lon="8.7123841"><ele>151.0</ele><time>2026-03-22T08:40:20.881Z</time></trkpt><trkpt lat="39.125137" lon="8.7124616"><ele>152.0</ele><time>2026-03-22T08:40:23.88Z</time></trkpt><trkpt lat="39.1251645" lon="8.7125393"><ele>153.0</ele><time>2026-03-22T08:40:26.88Z</time></trkpt><trkpt lat="39.1251965" lon="8.7126131"><ele>154.0</ele><time>2026-03-22T08:40:29.88Z</time></trkpt><trkpt lat="39.1252391" lon="8.7126934"><ele>154.42857142857142</ele><time>2026-03-22T08:40:32.881Z</time></trkpt><trkpt lat="39.1252667" lon="8.7127761"><ele>154.85714285714286</ele><time>2026-03-22T08:40:35.881Z</time></trkpt><trkpt lat="39.1252881" lon="8.7128588"><ele>155.28571428571428</ele><time>2026-03-22T08:40:38.88Z</time></trkpt><trkpt lat="39.1253017" lon="8.7129429"><ele>155.71428571428572</ele><time>2026-03-22T08:40:41.881Z</time></trkpt><trkpt lat="39.12532" lon="8.7130361"><ele>156.14285714285714</ele><time>2026-03-22T08:40:44.881Z</time></trkpt><trkpt lat="39.1253401" lon="8.7131375"><ele>156.57142857142856</ele><time>2026-03-22T08:40:47.88Z</time></trkpt><trkpt lat="39.1253598" lon="8.7132253"><ele>157.0</ele><time>2026-03-22T08:40:50.88Z</time></trkpt><trkpt lat="39.1253861" lon="8.7133181"><ele>157.0</ele><time>2026-03-22T08:40:53.88Z</time></trkpt><trkpt lat="39.1254177" lon="8.7134046"><ele>157.0</ele><time>2026-03-22T08:40:56.88Z</time></trkpt><trkpt lat="39.1254401" lon="8.7134941"><ele>157.0</ele><time>2026-03-22T08:40:59.88Z</time></trkpt><trkpt lat="39.1254523" lon="8.7135952"><ele>157.0</ele><time>2026-03-22T08:41:02.88Z</time></trkpt><trkpt lat="39.1254742" lon="8.7136958"><ele>157.0</ele><time>2026-03-22T08:41:05.88Z</time></trkpt><trkpt lat="39.1254976" lon="8.7137984"><ele>157.0</ele><time>2026-03-22T08:41:08.88Z</time></trkpt><trkpt lat="39.1255215" lon="8.7139011"><ele>156.66666666666669</ele><time>2026-03-22T08:41:11.88Z</time></trkpt><trkpt lat="39.1255342" lon="8.713996"><ele>156.33333333333334</ele><time>2026-03-22T08:41:14.88Z</time></trkpt><trkpt lat="39.1255476" lon="8.7141022"><ele>156.0</ele><time>2026-03-22T08:41:17.88Z</time></trkpt><trkpt lat="39.1255795" lon="8.7142083"><ele>155.66666666666666</ele><time>2026-03-22T08:41:20.88Z</time></trkpt><trkpt lat="39.1256022" lon="8.7142882"><ele>155.33333333333331</ele><time>2026-03-22T08:41:22.88Z</time></trkpt><trkpt lat="39.1256187" lon="8.714394"><ele>155.0</ele><time>2026-03-22T08:41:25.88Z</time></trkpt><trkpt lat="39.1256379" lon="8.714499"><ele>154.5</ele><time>2026-03-22T08:41:28.88Z</time></trkpt><trkpt lat="39.1256547" lon="8.7146085"><ele>154.0</ele><time>2026-03-22T08:41:31.88Z</time></trkpt><trkpt lat="39.1256668" lon="8.7147243"><ele>153.5</ele><time>2026-03-22T08:41:34.881Z</time></trkpt><trkpt lat="39.1256876" lon="8.7148408"><ele>153.0</ele><time>2026-03-22T08:41:37.881Z</time></trkpt><trkpt lat="39.1257047" lon="8.714924"><ele>152.5</ele><time>2026-03-22T08:41:39.88Z</time></trkpt><trkpt lat="39.1257306" lon="8.7150292"><ele>152.0</ele><time>2026-03-22T08:41:42.88Z</time></trkpt><trkpt lat="39.1257443" lon="8.7151232"><ele>153.0</ele><time>2026-03-22T08:41:45.881Z</time></trkpt><trkpt lat="39.1257582" lon="8.7152133"><ele>154.0</ele><time>2026-03-22T08:41:48.88Z</time></trkpt><trkpt lat="39.1257634" lon="8.7152956"><ele>155.0</ele><time>2026-03-22T08:41:51.881Z</time></trkpt><trkpt lat="39.1257624" lon="8.7153831"><ele>156.0</ele><time>2026-03-22T08:41:54.881Z</time></trkpt><trkpt lat="39.1257707" lon="8.7154725"><ele>157.0</ele><time>2026-03-22T08:41:57.881Z</time></trkpt><trkpt lat="39.1257805" lon="8.7155707"><ele>158.0</ele><time>2026-03-22T08:42:00.88Z</time></trkpt><trkpt lat="39.1258" lon="8.7156786"><ele>159.0</ele><time>2026-03-22T08:42:03.881Z</time></trkpt><trkpt lat="39.1258185" lon="8.7157815"><ele>159.16666666666666</ele><time>2026-03-22T08:42:06.88Z</time></trkpt><trkpt lat="39.1258444" lon="8.7158835"><ele>159.33333333333334</ele><time>2026-03-22T08:42:09.881Z</time></trkpt><trkpt lat="39.1258775" lon="8.7159815"><ele>159.5</ele><time>2026-03-22T08:42:12.88Z</time></trkpt><trkpt lat="39.125906" lon="8.7160722"><ele>159.66666666666669</ele><time>2026-03-22T08:42:15.881Z</time></trkpt><trkpt lat="39.1259359" lon="8.7161704"><ele>159.83333333333334</ele><time>2026-03-22T08:42:18.88Z</time></trkpt><trkpt lat="39.1259609" lon="8.7162688"><ele>160.0</ele><time>2026-03-22T08:42:21.881Z</time></trkpt><trkpt lat="39.1259743" lon="8.7163707"><ele>160.28571428571428</ele><time>2026-03-22T08:42:24.88Z</time></trkpt><trkpt lat="39.1259856" lon="8.7164585"><ele>160.57142857142858</ele><time>2026-03-22T08:42:27.88Z</time></trkpt><trkpt lat="39.1259925" lon="8.7165447"><ele>160.85714285714286</ele><time>2026-03-22T08:42:30.88Z</time></trkpt><trkpt lat="39.1259994" lon="8.7166374"><ele>161.14285714285714</ele><time>2026-03-22T08:42:33.881Z</time></trkpt><trkpt lat="39.1259999" lon="8.7167242"><ele>161.42857142857142</ele><time>2026-03-22T08:42:36.881Z</time></trkpt><trkpt lat="39.1259872" lon="8.716809"><ele>161.71428571428572</ele><time>2026-03-22T08:42:39.88Z</time></trkpt><trkpt lat="39.1259803" lon="8.7169011"><ele>162.0</ele><time>2026-03-22T08:42:42.88Z</time></trkpt><trkpt lat="39.1259808" lon="8.7170104"><ele>163.0</ele><time>2026-03-22T08:42:45.88Z</time></trkpt><trkpt lat="39.1259841" lon="8.7171099"><ele>164.0</ele><time>2026-03-22T08:42:48.88Z</time></trkpt><trkpt lat="39.1259951" lon="8.7172002"><ele>165.0</ele><time>2026-03-22T08:42:51.881Z</time></trkpt><trkpt lat="39.1259981" lon="8.7172837"><ele>166.0</ele><time>2026-03-22T08:42:54.88Z</time></trkpt><trkpt lat="39.1259991" lon="8.717376"><ele>167.0</ele><time>2026-03-22T08:42:57.88Z</time></trkpt><trkpt lat="39.1260071" lon="8.7174832"><ele>168.0</ele><time>2026-03-22T08:43:01.881Z</time></trkpt><trkpt lat="39.1260099" lon="8.717577"><ele>169.0</ele><time>2026-03-22T08:43:04.88Z</time></trkpt><trkpt lat="39.1260144" lon="8.7176673"><ele>169.42857142857144</ele><time>2026-03-22T08:43:07.88Z</time></trkpt><trkpt lat="39.126014" lon="8.7177617"><ele>169.85714285714286</ele><time>2026-03-22T08:43:10.88Z</time></trkpt><trkpt lat="39.1260133" lon="8.7178583"><ele>170.28571428571428</ele><time>2026-03-22T08:43:13.881Z</time></trkpt><trkpt lat="39.1260099" lon="8.7179477"><ele>170.71428571428572</ele><time>2026-03-22T08:43:16.88Z</time></trkpt><trkpt lat="39.1260088" lon="8.7180403"><ele>171.14285714285714</ele><time>2026-03-22T08:43:19.88Z</time></trkpt><trkpt lat="39.1260013" lon="8.7181336"><ele>171.57142857142858</ele><time>2026-03-22T08:43:22.881Z</time></trkpt><trkpt lat="39.1259959" lon="8.7182263"><ele>172.0</ele><time>2026-03-22T08:43:25.88Z</time></trkpt><trkpt lat="39.1259873" lon="8.7183221"><ele>172.0</ele><time>2026-03-22T08:43:28.88Z</time></trkpt><trkpt lat="39.1259877" lon="8.7184214"><ele>172.0</ele><time>2026-03-22T08:43:31.881Z</time></trkpt><trkpt lat="39.1259873" lon="8.7185184"><ele>172.0</ele><time>2026-03-22T08:43:34.88Z</time></trkpt><trkpt lat="39.1260054" lon="8.718627"><ele>172.0</ele><time>2026-03-22T08:43:37.88Z</time></trkpt><trkpt lat="39.1260128" lon="8.7187238"><ele>172.0</ele><time>2026-03-22T08:43:40.881Z</time></trkpt><trkpt lat="39.1260156" lon="8.7188139"><ele>172.0</ele><time>2026-03-22T08:43:43.88Z</time></trkpt><trkpt lat="39.1260058" lon="8.7189101"><ele>172.14285714285717</ele><time>2026-03-22T08:43:46.88Z</time></trkpt><trkpt lat="39.1260039" lon="8.719013"><ele>172.28571428571428</ele><time>2026-03-22T08:43:49.88Z</time></trkpt><trkpt lat="39.1259975" lon="8.7191019"><ele>172.42857142857144</ele><time>2026-03-22T08:43:52.88Z</time></trkpt><trkpt lat="39.1259992" lon="8.7191947"><ele>172.57142857142858</ele><time>2026-03-22T08:43:55.881Z</time></trkpt><trkpt lat="39.1260069" lon="8.7192753"><ele>172.71428571428572</ele><time>2026-03-22T08:43:58.881Z</time></trkpt><trkpt lat="39.1260054" lon="8.7193688"><ele>172.85714285714286</ele><time>2026-03-22T08:44:01.881Z</time></trkpt><trkpt lat="39.1260166" lon="8.7194698"><ele>173.0</ele><time>2026-03-22T08:44:04.88Z</time></trkpt><trkpt lat="39.1260342" lon="8.7195689"><ele>173.16666666666666</ele><time>2026-03-22T08:44:07.88Z</time></trkpt><trkpt lat="39.1260472" lon="8.7196695"><ele>173.33333333333331</ele><time>2026-03-22T08:44:10.88Z</time></trkpt><trkpt lat="39.1260587" lon="8.7197727"><ele>173.5</ele><time>2026-03-22T08:44:13.88Z</time></trkpt><trkpt lat="39.1260792" lon="8.7198704"><ele>173.66666666666666</ele><time>2026-03-22T08:44:16.881Z</time></trkpt><trkpt lat="39.1260904" lon="8.7199727"><ele>173.83333333333334</ele><time>2026-03-22T08:44:19.881Z</time></trkpt><trkpt lat="39.1260964" lon="8.7200743"><ele>174.0</ele><time>2026-03-22T08:44:22.88Z</time></trkpt><trkpt lat="39.1261155" lon="8.7201766"><ele>174.0</ele><time>2026-03-22T08:44:25.88Z</time></trkpt><trkpt lat="39.1261265" lon="8.7202852"><ele>174.0</ele><time>2026-03-22T08:44:28.88Z</time></trkpt><trkpt lat="39.1261516" lon="8.7203973"><ele>174.0</ele><time>2026-03-22T08:44:31.88Z</time></trkpt><trkpt lat="39.1261715" lon="8.7205027"><ele>174.0</ele><time>2026-03-22T08:44:34.88Z</time></trkpt><trkpt lat="39.1261798" lon="8.7206114"><ele>174.0</ele><time>2026-03-22T08:44:37.88Z</time></trkpt><trkpt lat="39.1261814" lon="8.7207209"><ele>174.0</ele><time>2026-03-22T08:44:40.881Z</time></trkpt><trkpt lat="39.1261729" lon="8.720831"><ele>174.0</ele><time>2026-03-22T08:44:43.881Z</time></trkpt><trkpt lat="39.1261587" lon="8.7209332"><ele>174.0</ele><time>2026-03-22T08:44:46.88Z</time></trkpt><trkpt lat="39.126156" lon="8.7210278"><ele>174.0</ele><time>2026-03-22T08:44:49.88Z</time></trkpt><trkpt lat="39.1261378" lon="8.7211312"><ele>174.0</ele><time>2026-03-22T08:44:52.881Z</time></trkpt><trkpt lat="39.1261442" lon="8.7212289"><ele>174.0</ele><time>2026-03-22T08:44:55.881Z</time></trkpt><trkpt lat="39.1261614" lon="8.7213381"><ele>174.0</ele><time>2026-03-22T08:44:58.88Z</time></trkpt><trkpt lat="39.1261728" lon="8.7214358"><ele>174.14285714285714</ele><time>2026-03-22T08:45:01.88Z</time></trkpt><trkpt lat="39.1261767" lon="8.7215412"><ele>174.28571428571428</ele><time>2026-03-22T08:45:04.881Z</time></trkpt><trkpt lat="39.1261674" lon="8.7216278"><ele>174.42857142857144</ele><time>2026-03-22T08:45:07.881Z</time></trkpt><trkpt lat="39.1261624" lon="8.7217121"><ele>174.57142857142856</ele><time>2026-03-22T08:45:10.88Z</time></trkpt><trkpt lat="39.1261547" lon="8.7217977"><ele>174.71428571428572</ele><time>2026-03-22T08:45:13.88Z</time></trkpt><trkpt lat="39.126157" lon="8.721885"><ele>174.85714285714286</ele><time>2026-03-22T08:45:16.88Z</time></trkpt><trkpt lat="39.1261494" lon="8.7219757"><ele>175.0</ele><time>2026-03-22T08:45:19.881Z</time></trkpt><trkpt lat="39.1261553" lon="8.7220645"><ele>175.16666666666669</ele><time>2026-03-22T08:45:22.88Z</time></trkpt><trkpt lat="39.1261553" lon="8.7221767"><ele>175.33333333333334</ele><time>2026-03-22T08:45:26.88Z</time></trkpt><trkpt lat="39.1261768" lon="8.7222721"><ele>175.5</ele><time>2026-03-22T08:45:29.88Z</time></trkpt><trkpt lat="39.1261937" lon="8.7223807"><ele>175.66666666666666</ele><time>2026-03-22T08:45:32.881Z</time></trkpt><trkpt lat="39.1261917" lon="8.7224755"><ele>175.83333333333331</ele><time>2026-03-22T08:45:35.88Z</time></trkpt><trkpt lat="39.1262074" lon="8.7225643"><ele>176.0</ele><time>2026-03-22T08:45:38.88Z</time></trkpt><trkpt lat="39.1262059" lon="8.7226629"><ele>176.33333333333331</ele><time>2026-03-22T08:45:41.881Z</time></trkpt><trkpt lat="39.1262034" lon="8.7227669"><ele>176.66666666666666</ele><time>2026-03-22T08:45:44.88Z</time></trkpt><trkpt lat="39.1262093" lon="8.7228684"><ele>177.0</ele><time>2026-03-22T08:45:47.88Z</time></trkpt><trkpt lat="39.1261971" lon="8.7229561"><ele>177.33333333333334</ele><time>2026-03-22T08:45:50.881Z</time></trkpt><trkpt lat="39.1261942" lon="8.7230575"><ele>177.66666666666669</ele><time>2026-03-22T08:45:53.881Z</time></trkpt><trkpt lat="39.1261914" lon="8.7231428"><ele>178.0</ele><time>2026-03-22T08:45:56.88Z</time></trkpt><trkpt lat="39.1261855" lon="8.7232486"><ele>177.99999999999997</ele><time>2026-03-22T08:46:00.88Z</time></trkpt><trkpt lat="39.1261861" lon="8.7233317"><ele>178.0</ele><time>2026-03-22T08:46:03.881Z</time></trkpt><trkpt lat="39.1261882" lon="8.7234184"><ele>178.0</ele><time>2026-03-22T08:46:06.881Z</time></trkpt><trkpt lat="39.1261898" lon="8.7235052"><ele>178.0</ele><time>2026-03-22T08:46:09.881Z</time></trkpt><trkpt lat="39.1262035" lon="8.7236001"><ele>178.0</ele><time>2026-03-22T08:46:12.881Z</time></trkpt><trkpt lat="39.1262137" lon="8.7236897"><ele>177.99999999999997</ele><time>2026-03-22T08:46:15.88Z</time></trkpt><trkpt lat="39.1262227" lon="8.7237765"><ele>178.0</ele><time>2026-03-22T08:46:18.88Z</time></trkpt><trkpt lat="39.1262413" lon="8.7238674"><ele>178.57142857142856</ele><time>2026-03-22T08:46:21.88Z</time></trkpt><trkpt lat="39.1262491" lon="8.7239554"><ele>179.14285714285714</ele><time>2026-03-22T08:46:24.881Z</time></trkpt><trkpt lat="39.1262553" lon="8.7240437"><ele>179.71428571428572</ele><time>2026-03-22T08:46:27.88Z</time></trkpt><trkpt lat="39.1262599" lon="8.7241426"><ele>180.28571428571428</ele><time>2026-03-22T08:46:30.88Z</time></trkpt><trkpt lat="39.1262669" lon="8.7242369"><ele>180.85714285714286</ele><time>2026-03-22T08:46:33.88Z</time></trkpt><trkpt lat="39.1262843" lon="8.724339"><ele>181.42857142857142</ele><time>2026-03-22T08:46:36.88Z</time></trkpt><trkpt lat="39.1263016" lon="8.7244268"><ele>182.0</ele><time>2026-03-22T08:46:39.881Z</time></trkpt><trkpt lat="39.126313" lon="8.724519"><ele>183.16666666666666</ele><time>2026-03-22T08:46:42.881Z</time></trkpt><trkpt lat="39.1263208" lon="8.7246137"><ele>184.33333333333331</ele><time>2026-03-22T08:46:45.88Z</time></trkpt><trkpt lat="39.1263218" lon="8.7247173"><ele>185.5</ele><time>2026-03-22T08:46:48.881Z</time></trkpt><trkpt lat="39.1263179" lon="8.7248227"><ele>186.66666666666666</ele><time>2026-03-22T08:46:51.881Z</time></trkpt><trkpt lat="39.126317" lon="8.7249175"><ele>187.83333333333334</ele><time>2026-03-22T08:46:54.881Z</time></trkpt><trkpt lat="39.1263109" lon="8.7250085"><ele>189.0</ele><time>2026-03-22T08:46:57.88Z</time></trkpt><trkpt lat="39.1263094" lon="8.7251083"><ele>189.0</ele><time>2026-03-22T08:47:00.88Z</time></trkpt><trkpt lat="39.1263041" lon="8.725207"><ele>189.0</ele><time>2026-03-22T08:47:03.88Z</time></trkpt><trkpt lat="39.1262975" lon="8.7253004"><ele>189.0</ele><time>2026-03-22T08:47:06.88Z</time></trkpt><trkpt lat="39.1262889" lon="8.7253903"><ele>189.0</ele><time>2026-03-22T08:47:09.88Z</time></trkpt><trkpt lat="39.1262881" lon="8.7254879"><ele>189.0</ele><time>2026-03-22T08:47:12.881Z</time></trkpt><trkpt lat="39.1262928" lon="8.725579"><ele>189.0</ele><time>2026-03-22T08:47:15.88Z</time></trkpt><trkpt lat="39.1262981" lon="8.7256725"><ele>189.0</ele><time>2026-03-22T08:47:18.88Z</time></trkpt><trkpt lat="39.1263041" lon="8.7257627"><ele>190.28571428571428</ele><time>2026-03-22T08:47:21.88Z</time></trkpt><trkpt lat="39.1263057" lon="8.7258625"><ele>191.57142857142856</ele><time>2026-03-22T08:47:24.88Z</time></trkpt><trkpt lat="39.1263159" lon="8.7259591"><ele>192.85714285714286</ele><time>2026-03-22T08:47:27.881Z</time></trkpt><trkpt lat="39.1263177" lon="8.7260406"><ele>194.14285714285714</ele><time>2026-03-22T08:47:30.881Z</time></trkpt><trkpt lat="39.1263167" lon="8.7261315"><ele>195.42857142857142</ele><time>2026-03-22T08:47:33.881Z</time></trkpt><trkpt lat="39.1263162" lon="8.7262269"><ele>196.71428571428572</ele><time>2026-03-22T08:47:36.881Z</time></trkpt><trkpt lat="39.1263189" lon="8.7263142"><ele>198.0</ele><time>2026-03-22T08:47:39.881Z</time></trkpt><trkpt lat="39.1263279" lon="8.7264082"><ele>198.57142857142858</ele><time>2026-03-22T08:47:42.881Z</time></trkpt><trkpt lat="39.1263409" lon="8.7265093"><ele>199.14285714285714</ele><time>2026-03-22T08:47:45.88Z</time></trkpt><trkpt lat="39.1263341" lon="8.7266038"><ele>199.71428571428572</ele><time>2026-03-22T08:47:48.881Z</time></trkpt><trkpt lat="39.1263182" lon="8.7266895"><ele>200.28571428571428</ele><time>2026-03-22T08:47:51.88Z</time></trkpt><trkpt lat="39.1263069" lon="8.7267694"><ele>200.85714285714283</ele><time>2026-03-22T08:47:54.88Z</time></trkpt><trkpt lat="39.1262943" lon="8.7268565"><ele>201.42857142857142</ele><time>2026-03-22T08:47:57.88Z</time></trkpt><trkpt lat="39.1262709" lon="8.7269398"><ele>202.0</ele><time>2026-03-22T08:48:00.88Z</time></trkpt><trkpt lat="39.1262522" lon="8.7270365"><ele>202.33333333333331</ele><time>2026-03-22T08:48:03.88Z</time></trkpt><trkpt lat="39.1262325" lon="8.7271366"><ele>202.66666666666666</ele><time>2026-03-22T08:48:06.881Z</time></trkpt><trkpt lat="39.1262199" lon="8.7272316"><ele>203.0</ele><time>2026-03-22T08:48:09.881Z</time></trkpt><trkpt lat="39.1262049" lon="8.7273127"><ele>203.33333333333331</ele><time>2026-03-22T08:48:12.88Z</time></trkpt><trkpt lat="39.1261931" lon="8.7274194"><ele>203.66666666666666</ele><time>2026-03-22T08:48:16.88Z</time></trkpt><trkpt lat="39.1261809" lon="8.7275223"><ele>204.0</ele><time>2026-03-22T08:48:19.88Z</time></trkpt><trkpt lat="39.1261816" lon="8.7276376"><ele>204.28571428571428</ele><time>2026-03-22T08:48:22.881Z</time></trkpt><trkpt lat="39.1261945" lon="8.7277414"><ele>204.57142857142858</ele><time>2026-03-22T08:48:25.881Z</time></trkpt><trkpt lat="39.1262173" lon="8.7278286"><ele>204.85714285714283</ele><time>2026-03-22T08:48:28.88Z</time></trkpt><trkpt lat="39.1262335" lon="8.7279081"><ele>205.14285714285714</ele><time>2026-03-22T08:48:31.88Z</time></trkpt><trkpt lat="39.1262525" lon="8.7279978"><ele>205.42857142857142</ele><time>2026-03-22T08:48:34.88Z</time></trkpt><trkpt lat="39.1262688" lon="8.7280788"><ele>205.7142857142857</ele><time>2026-03-22T08:48:37.88Z</time></trkpt><trkpt lat="39.126283" lon="8.7281581"><ele>206.0</ele><time>2026-03-22T08:48:40.881Z</time></trkpt><trkpt lat="39.1263091" lon="8.7282571"><ele>206.00000000000003</ele><time>2026-03-22T08:48:44.881Z</time></trkpt><trkpt lat="39.1263347" lon="8.7283593"><ele>206.0</ele><time>2026-03-22T08:48:48.881Z</time></trkpt><trkpt lat="39.1263698" lon="8.7284413"><ele>206.0</ele><time>2026-03-22T08:48:51.88Z</time></trkpt><trkpt lat="39.1264293" lon="8.728519"><ele>206.0</ele><time>2026-03-22T08:48:54.881Z</time></trkpt><trkpt lat="39.126473" lon="8.7285984"><ele>206.00000000000003</ele><time>2026-03-22T08:48:57.88Z</time></trkpt><trkpt lat="39.1264617" lon="8.7287032"><ele>206.0</ele><time>2026-03-22T08:49:01.88Z</time></trkpt><trkpt lat="39.1264608" lon="8.7287907"><ele>206.42857142857142</ele><time>2026-03-22T08:49:04.881Z</time></trkpt><trkpt lat="39.1265006" lon="8.7288641"><ele>206.85714285714286</ele><time>2026-03-22T08:49:07.881Z</time></trkpt><trkpt lat="39.1265394" lon="8.7289321"><ele>207.28571428571428</ele><time>2026-03-22T08:49:10.88Z</time></trkpt><trkpt lat="39.1265627" lon="8.729015"><ele>207.71428571428572</ele><time>2026-03-22T08:49:13.88Z</time></trkpt><trkpt lat="39.1265898" lon="8.7291008"><ele>208.14285714285714</ele><time>2026-03-22T08:49:16.88Z</time></trkpt><trkpt lat="39.1266173" lon="8.7291918"><ele>208.57142857142856</ele><time>2026-03-22T08:49:19.88Z</time></trkpt><trkpt lat="39.1266413" lon="8.7292748"><ele>209.0</ele><time>2026-03-22T08:49:22.88Z</time></trkpt><trkpt lat="39.1266786" lon="8.7293498"><ele>209.00000000000003</ele><time>2026-03-22T08:49:25.88Z</time></trkpt><trkpt lat="39.1267174" lon="8.7294263"><ele>209.0</ele><time>2026-03-22T08:49:28.881Z</time></trkpt><trkpt lat="39.1267556" lon="8.7295012"><ele>209.0</ele><time>2026-03-22T08:49:31.88Z</time></trkpt><trkpt lat="39.1268078" lon="8.7295772"><ele>209.0</ele><time>2026-03-22T08:49:34.88Z</time></trkpt><trkpt lat="39.126863" lon="8.7296527"><ele>209.00000000000003</ele><time>2026-03-22T08:49:37.881Z</time></trkpt><trkpt lat="39.1269132" lon="8.7297243"><ele>209.0</ele><time>2026-03-22T08:49:40.88Z</time></trkpt><trkpt lat="39.1269633" lon="8.7297965"><ele>209.00000000000003</ele><time>2026-03-22T08:49:43.881Z</time></trkpt><trkpt lat="39.127017" lon="8.7298736"><ele>209.0</ele><time>2026-03-22T08:49:46.88Z</time></trkpt><trkpt lat="39.1270626" lon="8.7299569"><ele>209.0</ele><time>2026-03-22T08:49:49.881Z</time></trkpt><trkpt lat="39.1271035" lon="8.7300405"><ele>209.0</ele><time>2026-03-22T08:49:52.88Z</time></trkpt><trkpt lat="39.1271336" lon="8.7301278"><ele>209.00000000000003</ele><time>2026-03-22T08:49:55.88Z</time></trkpt><trkpt lat="39.127167" lon="8.7302185"><ele>209.0</ele><time>2026-03-22T08:49:58.88Z</time></trkpt><trkpt lat="39.1271972" lon="8.7303115"><ele>208.83333333333334</ele><time>2026-03-22T08:50:01.881Z</time></trkpt><trkpt lat="39.1272334" lon="8.7304018"><ele>208.66666666666669</ele><time>2026-03-22T08:50:04.881Z</time></trkpt><trkpt lat="39.1272649" lon="8.7304916"><ele>208.5</ele><time>2026-03-22T08:50:07.881Z</time></trkpt><trkpt lat="39.1272951" lon="8.7305844"><ele>208.33333333333331</ele><time>2026-03-22T08:50:10.88Z</time></trkpt><trkpt lat="39.1273285" lon="8.7306716"><ele>208.16666666666666</ele><time>2026-03-22T08:50:13.88Z</time></trkpt><trkpt lat="39.1273574" lon="8.7307639"><ele>208.0</ele><time>2026-03-22T08:50:16.88Z</time></trkpt><trkpt lat="39.1273999" lon="8.7308564"><ele>208.83333333333331</ele><time>2026-03-22T08:50:19.88Z</time></trkpt><trkpt lat="39.1274339" lon="8.730957"><ele>209.66666666666666</ele><time>2026-03-22T08:50:22.881Z</time></trkpt><trkpt lat="39.1274784" lon="8.7310457"><ele>210.5</ele><time>2026-03-22T08:50:25.88Z</time></trkpt><trkpt lat="39.1275169" lon="8.7311472"><ele>211.33333333333331</ele><time>2026-03-22T08:50:28.881Z</time></trkpt><trkpt lat="39.127555" lon="8.731242"><ele>212.16666666666666</ele><time>2026-03-22T08:50:31.88Z</time></trkpt><trkpt lat="39.1276072" lon="8.7313225"><ele>213.0</ele><time>2026-03-22T08:50:34.88Z</time></trkpt><trkpt lat="39.1276648" lon="8.7314073"><ele>213.0</ele><time>2026-03-22T08:50:37.88Z</time></trkpt><trkpt lat="39.127741" lon="8.7314778"><ele>213.0</ele><time>2026-03-22T08:50:40.88Z</time></trkpt><trkpt lat="39.1278146" lon="8.7315494"><ele>213.0</ele><time>2026-03-22T08:50:43.88Z</time></trkpt><trkpt lat="39.1278775" lon="8.7316284"><ele>213.0</ele><time>2026-03-22T08:50:46.881Z</time></trkpt><trkpt lat="39.1279454" lon="8.731709"><ele>213.0</ele><time>2026-03-22T08:50:49.88Z</time></trkpt><trkpt lat="39.1280145" lon="8.7317824"><ele>213.0</ele><time>2026-03-22T08:50:52.88Z</time></trkpt><trkpt lat="39.1280811" lon="8.7318524"><ele>213.0</ele><time>2026-03-22T08:50:55.88Z</time></trkpt><trkpt lat="39.1281478" lon="8.7319231"><ele>213.0</ele><time>2026-03-22T08:50:58.88Z</time></trkpt><trkpt lat="39.1282154" lon="8.7319948"><ele>213.0</ele><time>2026-03-22T08:51:01.88Z</time></trkpt><trkpt lat="39.1282781" lon="8.7320586"><ele>213.0</ele><time>2026-03-22T08:51:04.88Z</time></trkpt><trkpt lat="39.1283386" lon="8.7321218"><ele>213.0</ele><time>2026-03-22T08:51:07.88Z</time></trkpt><trkpt lat="39.128404" lon="8.7321853"><ele>213.85714285714283</ele><time>2026-03-22T08:51:10.881Z</time></trkpt><trkpt lat="39.128459" lon="8.7322319"><ele>214.71428571428572</ele><time>2026-03-22T08:51:12.88Z</time></trkpt><trkpt lat="39.1285135" lon="8.7322967"><ele>215.57142857142856</ele><time>2026-03-22T08:51:14.88Z</time></trkpt><trkpt lat="39.1285581" lon="8.7323732"><ele>216.42857142857142</ele><time>2026-03-22T08:51:16.88Z</time></trkpt><trkpt lat="39.1285867" lon="8.7324495"><ele>217.28571428571428</ele><time>2026-03-22T08:51:18.881Z</time></trkpt><trkpt lat="39.1286097" lon="8.7325379"><ele>218.14285714285714</ele><time>2026-03-22T08:51:21.88Z</time></trkpt><trkpt lat="39.1286301" lon="8.7326195"><ele>219.0</ele><time>2026-03-22T08:51:24.88Z</time></trkpt><trkpt lat="39.1286664" lon="8.7327012"><ele>219.0</ele><time>2026-03-22T08:51:27.88Z</time></trkpt><trkpt lat="39.1287064" lon="8.7327827"><ele>219.0</ele><time>2026-03-22T08:51:30.88Z</time></trkpt><trkpt lat="39.128736" lon="8.732875"><ele>219.0</ele><time>2026-03-22T08:51:33.88Z</time></trkpt><trkpt lat="39.1287698" lon="8.7329656"><ele>219.0</ele><time>2026-03-22T08:51:36.88Z</time></trkpt><trkpt lat="39.1288012" lon="8.7330482"><ele>219.0</ele><time>2026-03-22T08:51:39.88Z</time></trkpt><trkpt lat="39.1288353" lon="8.7331333"><ele>219.0</ele><time>2026-03-22T08:51:43.881Z</time></trkpt><trkpt lat="39.1288505" lon="8.7332215"><ele>219.0</ele><time>2026-03-22T08:51:49.88Z</time></trkpt><trkpt lat="39.1288604" lon="8.733314"><ele>219.0</ele><time>2026-03-22T08:51:56.88Z</time></trkpt><trkpt lat="39.1288591" lon="8.733416"><ele>219.0</ele><time>2026-03-22T08:51:59.88Z</time></trkpt><trkpt lat="39.1288608" lon="8.7335002"><ele>219.0</ele><time>2026-03-22T08:52:01.88Z</time></trkpt><trkpt lat="39.1288373" lon="8.7336142"><ele>219.0</ele><time>2026-03-22T08:52:04.88Z</time></trkpt><trkpt lat="39.1287991" lon="8.7337243"><ele>219.0</ele><time>2026-03-22T08:52:07.88Z</time></trkpt><trkpt lat="39.1287792" lon="8.7338056"><ele>219.0</ele><time>2026-03-22T08:52:09.88Z</time></trkpt><trkpt lat="39.1287634" lon="8.7338874"><ele>219.66666666666666</ele><time>2026-03-22T08:52:11.881Z</time></trkpt><trkpt lat="39.1287476" lon="8.7339714"><ele>220.33333333333331</ele><time>2026-03-22T08:52:13.881Z</time></trkpt><trkpt lat="39.1287204" lon="8.7340954"><ele>221.0</ele><time>2026-03-22T08:52:16.88Z</time></trkpt><trkpt lat="39.1287022" lon="8.7341823"><ele>221.66666666666666</ele><time>2026-03-22T08:52:18.881Z</time></trkpt><trkpt lat="39.1286821" lon="8.7342794"><ele>222.33333333333331</ele><time>2026-03-22T08:52:20.88Z</time></trkpt><trkpt lat="39.1286673" lon="8.7343828"><ele>223.0</ele><time>2026-03-22T08:52:22.88Z</time></trkpt><trkpt lat="39.1286479" lon="8.7344656"><ele>223.28571428571428</ele><time>2026-03-22T08:52:24.88Z</time></trkpt><trkpt lat="39.1286191" lon="8.734541"><ele>223.57142857142856</ele><time>2026-03-22T08:52:26.88Z</time></trkpt><trkpt lat="39.1285945" lon="8.734634"><ele>223.8571428571429</ele><time>2026-03-22T08:52:28.881Z</time></trkpt><trkpt lat="39.1285662" lon="8.7347068"><ele>224.14285714285717</ele><time>2026-03-22T08:52:30.88Z</time></trkpt><trkpt lat="39.1285292" lon="8.7347827"><ele>224.42857142857144</ele><time>2026-03-22T08:52:33.881Z</time></trkpt><trkpt lat="39.1285024" lon="8.7348839"><ele>224.71428571428575</ele><time>2026-03-22T08:52:35.881Z</time></trkpt><trkpt lat="39.128488" lon="8.7349668"><ele>225.00000000000003</ele><time>2026-03-22T08:52:37.881Z</time></trkpt><trkpt lat="39.1284738" lon="8.7350583"><ele>225.00000000000003</ele><time>2026-03-22T08:52:39.88Z</time></trkpt><trkpt lat="39.12847" lon="8.7351433"><ele>225.0</ele><time>2026-03-22T08:52:41.88Z</time></trkpt><trkpt lat="39.1284615" lon="8.7352267"><ele>225.00000000000003</ele><time>2026-03-22T08:52:43.881Z</time></trkpt><trkpt lat="39.1284528" lon="8.7353291"><ele>225.00000000000003</ele><time>2026-03-22T08:52:45.881Z</time></trkpt><trkpt lat="39.1284474" lon="8.7354197"><ele>225.0</ele><time>2026-03-22T08:52:47.881Z</time></trkpt><trkpt lat="39.1284506" lon="8.7355246"><ele>225.00000000000003</ele><time>2026-03-22T08:52:49.88Z</time></trkpt><trkpt lat="39.1284522" lon="8.7356128"><ele>225.00000000000003</ele><time>2026-03-22T08:52:51.88Z</time></trkpt><trkpt lat="39.128442" lon="8.7356946"><ele>225.33333333333334</ele><time>2026-03-22T08:52:53.88Z</time></trkpt><trkpt lat="39.1284193" lon="8.7357979"><ele>225.66666666666669</ele><time>2026-03-22T08:52:56.88Z</time></trkpt><trkpt lat="39.1284087" lon="8.7359203"><ele>226.0</ele><time>2026-03-22T08:52:59.881Z</time></trkpt><trkpt lat="39.1284095" lon="8.7360031"><ele>226.33333333333334</ele><time>2026-03-22T08:53:01.88Z</time></trkpt><trkpt lat="39.1283926" lon="8.7360998"><ele>226.66666666666669</ele><time>2026-03-22T08:53:04.881Z</time></trkpt><trkpt lat="39.1283697" lon="8.736198"><ele>227.0</ele><time>2026-03-22T08:53:07.88Z</time></trkpt><trkpt lat="39.1283526" lon="8.7363026"><ele>227.33333333333334</ele><time>2026-03-22T08:53:10.881Z</time></trkpt><trkpt lat="39.1283507" lon="8.7364222"><ele>227.66666666666669</ele><time>2026-03-22T08:53:13.88Z</time></trkpt><trkpt lat="39.1283566" lon="8.7365436"><ele>228.0</ele><time>2026-03-22T08:53:16.881Z</time></trkpt><trkpt lat="39.1283593" lon="8.7366525"><ele>228.33333333333331</ele><time>2026-03-22T08:53:19.88Z</time></trkpt><trkpt lat="39.1283637" lon="8.7367613"><ele>228.66666666666666</ele><time>2026-03-22T08:53:22.88Z</time></trkpt><trkpt lat="39.1283727" lon="8.7368426"><ele>229.0</ele><time>2026-03-22T08:53:24.88Z</time></trkpt><trkpt lat="39.1283775" lon="8.7369511"><ele>229.66666666666666</ele><time>2026-03-22T08:53:27.88Z</time></trkpt><trkpt lat="39.1283772" lon="8.7370567"><ele>230.33333333333331</ele><time>2026-03-22T08:53:30.88Z</time></trkpt><trkpt lat="39.1283825" lon="8.7371553"><ele>231.0</ele><time>2026-03-22T08:53:33.88Z</time></trkpt><trkpt lat="39.128383" lon="8.7372589"><ele>231.66666666666669</ele><time>2026-03-22T08:53:36.88Z</time></trkpt><trkpt lat="39.1283826" lon="8.7373404"><ele>232.33333333333334</ele><time>2026-03-22T08:53:38.881Z</time></trkpt><trkpt lat="39.1283929" lon="8.7374407"><ele>233.0</ele><time>2026-03-22T08:53:40.881Z</time></trkpt><trkpt lat="39.1283919" lon="8.7375539"><ele>233.00000000000003</ele><time>2026-03-22T08:53:43.88Z</time></trkpt><trkpt lat="39.1283804" lon="8.7376578"><ele>233.0</ele><time>2026-03-22T08:53:46.881Z</time></trkpt><trkpt lat="39.128373" lon="8.7377427"><ele>233.0</ele><time>2026-03-22T08:53:48.88Z</time></trkpt><trkpt lat="39.1283686" lon="8.7378432"><ele>233.0</ele><time>2026-03-22T08:53:50.88Z</time></trkpt><trkpt lat="39.1283686" lon="8.7379297"><ele>233.00000000000003</ele><time>2026-03-22T08:53:52.88Z</time></trkpt><trkpt lat="39.1283648" lon="8.7380476"><ele>233.0</ele><time>2026-03-22T08:53:55.88Z</time></trkpt><trkpt lat="39.1283706" lon="8.7381414"><ele>233.42857142857144</ele><time>2026-03-22T08:53:57.881Z</time></trkpt><trkpt lat="39.128379" lon="8.7382288"><ele>233.85714285714283</ele><time>2026-03-22T08:53:59.88Z</time></trkpt><trkpt lat="39.1283929" lon="8.7383132"><ele>234.28571428571428</ele><time>2026-03-22T08:54:01.88Z</time></trkpt><trkpt lat="39.1284122" lon="8.7383978"><ele>234.71428571428572</ele><time>2026-03-22T08:54:03.88Z</time></trkpt><trkpt lat="39.1284365" lon="8.7385098"><ele>235.14285714285717</ele><time>2026-03-22T08:54:06.88Z</time></trkpt><trkpt lat="39.1284689" lon="8.7385949"><ele>235.57142857142856</ele><time>2026-03-22T08:54:08.881Z</time></trkpt><trkpt lat="39.1285009" lon="8.7386758"><ele>236.0</ele><time>2026-03-22T08:54:10.88Z</time></trkpt><trkpt lat="39.1285344" lon="8.7387863"><ele>236.16666666666669</ele><time>2026-03-22T08:54:13.88Z</time></trkpt><trkpt lat="39.1285629" lon="8.7388871"><ele>236.33333333333334</ele><time>2026-03-22T08:54:16.88Z</time></trkpt><trkpt lat="39.128584" lon="8.7389801"><ele>236.5</ele><time>2026-03-22T08:54:19.88Z</time></trkpt><trkpt lat="39.1285993" lon="8.7390801"><ele>236.66666666666669</ele><time>2026-03-22T08:54:22.88Z</time></trkpt><trkpt lat="39.1286227" lon="8.7391705"><ele>236.83333333333334</ele><time>2026-03-22T08:54:25.88Z</time></trkpt><trkpt lat="39.1286354" lon="8.7392692"><ele>237.0</ele><time>2026-03-22T08:54:28.88Z</time></trkpt><trkpt lat="39.1286403" lon="8.7393599"><ele>237.71428571428567</ele><time>2026-03-22T08:54:31.881Z</time></trkpt><trkpt lat="39.1286442" lon="8.7394483"><ele>238.42857142857142</ele><time>2026-03-22T08:54:34.881Z</time></trkpt><trkpt lat="39.1286497" lon="8.7395459"><ele>239.1428571428571</ele><time>2026-03-22T08:54:37.88Z</time></trkpt><trkpt lat="39.1286485" lon="8.7396463"><ele>239.85714285714283</ele><time>2026-03-22T08:54:41.88Z</time></trkpt><trkpt lat="39.1286447" lon="8.739728"><ele>240.57142857142856</ele><time>2026-03-22T08:54:44.881Z</time></trkpt><trkpt lat="39.1286491" lon="8.7398287"><ele>241.28571428571428</ele><time>2026-03-22T08:54:47.881Z</time></trkpt><trkpt lat="39.1286487" lon="8.739937"><ele>242.0</ele><time>2026-03-22T08:54:50.881Z</time></trkpt><trkpt lat="39.1286569" lon="8.7400413"><ele>242.00000000000003</ele><time>2026-03-22T08:54:53.88Z</time></trkpt><trkpt lat="39.1286663" lon="8.7401471"><ele>242.0</ele><time>2026-03-22T08:54:56.881Z</time></trkpt><trkpt lat="39.1286729" lon="8.7402454"><ele>242.0</ele><time>2026-03-22T08:54:59.881Z</time></trkpt><trkpt lat="39.1286765" lon="8.7403438"><ele>242.0</ele><time>2026-03-22T08:55:02.88Z</time></trkpt><trkpt lat="39.1286728" lon="8.7404507"><ele>242.00000000000003</ele><time>2026-03-22T08:55:06.88Z</time></trkpt><trkpt lat="39.1286751" lon="8.7405544"><ele>242.0</ele><time>2026-03-22T08:55:09.88Z</time></trkpt><trkpt lat="39.1286752" lon="8.7406521"><ele>244.50000000000003</ele><time>2026-03-22T08:55:13.88Z</time></trkpt><trkpt lat="39.1286874" lon="8.7407618"><ele>247.0</ele><time>2026-03-22T08:55:17.88Z</time></trkpt><trkpt lat="39.1287027" lon="8.7408634"><ele>249.5</ele><time>2026-03-22T08:55:21.881Z</time></trkpt><trkpt lat="39.1287254" lon="8.7409603"><ele>252.0</ele><time>2026-03-22T08:55:24.88Z</time></trkpt><trkpt lat="39.1287433" lon="8.7410525"><ele>254.50000000000003</ele><time>2026-03-22T08:55:27.88Z</time></trkpt><trkpt lat="39.1287647" lon="8.7411583"><ele>257.0</ele><time>2026-03-22T08:55:31.879Z</time></trkpt><trkpt lat="39.1287906" lon="8.7412368"><ele>258.7142857142857</ele><time>2026-03-22T08:55:34.881Z</time></trkpt><trkpt lat="39.1287947" lon="8.7413371"><ele>260.42857142857144</ele><time>2026-03-22T08:55:39.879Z</time></trkpt><trkpt lat="39.1288205" lon="8.7414208"><ele>262.14285714285717</ele><time>2026-03-22T08:55:43.88Z</time></trkpt><trkpt lat="39.1288312" lon="8.7415172"><ele>263.8571428571429</ele><time>2026-03-22T08:55:47.879Z</time></trkpt><trkpt lat="39.128838" lon="8.741598"><ele>265.5714285714286</ele><time>2026-03-22T08:55:50.88Z</time></trkpt><trkpt lat="39.1288159" lon="8.7416874"><ele>267.2857142857143</ele><time>2026-03-22T08:55:56.88Z</time></trkpt><trkpt lat="39.1288101" lon="8.7417816"><ele>269.0</ele><time>2026-03-22T08:56:02.879Z</time></trkpt><trkpt lat="39.1288043" lon="8.7418709"><ele>270.14285714285717</ele><time>2026-03-22T08:56:06.88Z</time></trkpt><trkpt lat="39.128796" lon="8.7419747"><ele>271.28571428571433</ele><time>2026-03-22T08:56:10.879Z</time></trkpt><trkpt lat="39.1287804" lon="8.7420734"><ele>272.42857142857144</ele><time>2026-03-22T08:56:14.879Z</time></trkpt><trkpt lat="39.1287683" lon="8.742174"><ele>273.57142857142856</ele><time>2026-03-22T08:56:18.879Z</time></trkpt><trkpt lat="39.12877" lon="8.7422579"><ele>274.71428571428567</ele><time>2026-03-22T08:56:23.88Z</time></trkpt><trkpt lat="39.1287776" lon="8.742348"><ele>275.85714285714283</ele><time>2026-03-22T08:56:28.879Z</time></trkpt><trkpt lat="39.1288167" lon="8.7424253"><ele>277.0</ele><time>2026-03-22T08:56:33.879Z</time></trkpt><trkpt lat="39.1288921" lon="8.742486"><ele>277.0</ele><time>2026-03-22T08:56:36.879Z</time></trkpt><trkpt lat="39.1289614" lon="8.7425302"><ele>277.0</ele><time>2026-03-22T08:56:39.881Z</time></trkpt><trkpt lat="39.1290115" lon="8.7425866"><ele>277.0</ele><time>2026-03-22T08:56:44.879Z</time></trkpt><trkpt lat="39.1290659" lon="8.7426457"><ele>277.0</ele><time>2026-03-22T08:56:47.878Z</time></trkpt><trkpt lat="39.1291143" lon="8.742698"><ele>277.0</ele><time>2026-03-22T08:56:51.878Z</time></trkpt><trkpt lat="39.129165" lon="8.7427524"><ele>277.0</ele><time>2026-03-22T08:56:55.878Z</time></trkpt><trkpt lat="39.1292139" lon="8.7428132"><ele>277.0</ele><time>2026-03-22T08:56:59.878Z</time></trkpt><trkpt lat="39.1292782" lon="8.742881"><ele>274.66666666666663</ele><time>2026-03-22T08:57:03.878Z</time></trkpt><trkpt lat="39.1293282" lon="8.7429377"><ele>272.3333333333333</ele><time>2026-03-22T08:57:06.878Z</time></trkpt><trkpt lat="39.1293851" lon="8.7430078"><ele>270.0</ele><time>2026-03-22T08:57:10.878Z</time></trkpt><trkpt lat="39.129432" lon="8.7430662"><ele>267.6666666666667</ele><time>2026-03-22T08:57:14.878Z</time></trkpt><trkpt lat="39.1294817" lon="8.7431491"><ele>265.33333333333337</ele><time>2026-03-22T08:57:18.878Z</time></trkpt><trkpt lat="39.1295356" lon="8.7432246"><ele>263.0</ele><time>2026-03-22T08:57:21.879Z</time></trkpt><trkpt lat="39.1295728" lon="8.7433187"><ele>263.0</ele><time>2026-03-22T08:57:25.879Z</time></trkpt><trkpt lat="39.1295989" lon="8.7434184"><ele>263.0</ele><time>2026-03-22T08:57:28.879Z</time></trkpt><trkpt lat="39.1296383" lon="8.7434992"><ele>263.0</ele><time>2026-03-22T08:57:31.879Z</time></trkpt><trkpt lat="39.1296805" lon="8.743566"><ele>263.0</ele><time>2026-03-22T08:57:34.879Z</time></trkpt><trkpt lat="39.1297111" lon="8.7436379"><ele>263.0</ele><time>2026-03-22T08:57:37.878Z</time></trkpt><trkpt lat="39.129748" lon="8.7437156"><ele>263.0</ele><time>2026-03-22T08:57:40.878Z</time></trkpt><trkpt lat="39.1297777" lon="8.7437933"><ele>263.0</ele><time>2026-03-22T08:57:45.878Z</time></trkpt><trkpt lat="39.1297879" lon="8.7438877"><ele>264.0</ele><time>2026-03-22T08:57:50.879Z</time></trkpt><trkpt lat="39.1298021" lon="8.743986"><ele>265.0</ele><time>2026-03-22T08:57:55.878Z</time></trkpt><trkpt lat="39.1298092" lon="8.7440677"><ele>266.0</ele><time>2026-03-22T08:57:58.878Z</time></trkpt><trkpt lat="39.1298333" lon="8.7441616"><ele>267.0</ele><time>2026-03-22T08:58:03.879Z</time></trkpt><trkpt lat="39.1298544" lon="8.7442466"><ele>268.0</ele><time>2026-03-22T08:58:06.878Z</time></trkpt><trkpt lat="39.1298867" lon="8.7443359"><ele>269.0</ele><time>2026-03-22T08:58:11.878Z</time></trkpt><trkpt lat="39.1299193" lon="8.7444139"><ele>270.0</ele><time>2026-03-22T08:58:16.878Z</time></trkpt><trkpt lat="39.1299582" lon="8.7444878"><ele>271.0</ele><time>2026-03-22T08:58:19.878Z</time></trkpt><trkpt lat="39.1299807" lon="8.7445816"><ele>272.0</ele><time>2026-03-22T08:58:23.879Z</time></trkpt><trkpt lat="39.1300141" lon="8.7446771"><ele>273.0</ele><time>2026-03-22T08:58:28.878Z</time></trkpt><trkpt lat="39.1300462" lon="8.7447513"><ele>274.0</ele><time>2026-03-22T08:58:32.878Z</time></trkpt><trkpt lat="39.130101" lon="8.7448302"><ele>275.0</ele><time>2026-03-22T08:58:36.878Z</time></trkpt><trkpt lat="39.130139" lon="8.7449105"><ele>276.0</ele><time>2026-03-22T08:58:39.878Z</time></trkpt><trkpt lat="39.13018" lon="8.7449842"><ele>277.0</ele><time>2026-03-22T08:58:42.878Z</time></trkpt><trkpt lat="39.1302142" lon="8.7450652"><ele>277.0</ele><time>2026-03-22T08:58:47.878Z</time></trkpt><trkpt lat="39.1302594" lon="8.7451316"><ele>277.0</ele><time>2026-03-22T08:58:50.878Z</time></trkpt><trkpt lat="39.1303216" lon="8.7451892"><ele>277.0</ele><time>2026-03-22T08:58:53.879Z</time></trkpt><trkpt lat="39.1303786" lon="8.7452444"><ele>277.0</ele><time>2026-03-22T08:58:57.878Z</time></trkpt><trkpt lat="39.1304194" lon="8.7453098"><ele>277.0</ele><time>2026-03-22T08:59:01.878Z</time></trkpt><trkpt lat="39.1304594" lon="8.7453829"><ele>277.0</ele><time>2026-03-22T08:59:06.878Z</time></trkpt><trkpt lat="39.130502" lon="8.7454543"><ele>277.0</ele><time>2026-03-22T08:59:10.878Z</time></trkpt><trkpt lat="39.1305395" lon="8.7455259"><ele>277.85714285714283</ele><time>2026-03-22T08:59:14.878Z</time></trkpt><trkpt lat="39.1305785" lon="8.7455969"><ele>278.71428571428567</ele><time>2026-03-22T08:59:18.878Z</time></trkpt><trkpt lat="39.1306215" lon="8.7456755"><ele>279.57142857142856</ele><time>2026-03-22T08:59:23.879Z</time></trkpt><trkpt lat="39.1306607" lon="8.7457619"><ele>280.42857142857144</ele><time>2026-03-22T08:59:27.878Z</time></trkpt><trkpt lat="39.1306754" lon="8.7458436"><ele>281.28571428571433</ele><time>2026-03-22T08:59:32.878Z</time></trkpt><trkpt lat="39.1307223" lon="8.7459333"><ele>282.14285714285717</ele><time>2026-03-22T08:59:36.878Z</time></trkpt><trkpt lat="39.1307628" lon="8.7460031"><ele>283.0</ele><time>2026-03-22T08:59:39.878Z</time></trkpt><trkpt lat="39.1308078" lon="8.7460844"><ele>284.5</ele><time>2026-03-22T08:59:43.878Z</time></trkpt><trkpt lat="39.1308576" lon="8.7461566"><ele>286.0</ele><time>2026-03-22T08:59:47.878Z</time></trkpt><trkpt lat="39.1308968" lon="8.7462369"><ele>287.5</ele><time>2026-03-22T08:59:52.878Z</time></trkpt><trkpt lat="39.1309328" lon="8.7463187"><ele>289.0</ele><time>2026-03-22T08:59:56.878Z</time></trkpt><trkpt lat="39.1309951" lon="8.7463999"><ele>290.5</ele><time>2026-03-22T08:59:59.878Z</time></trkpt><trkpt lat="39.1310477" lon="8.7464741"><ele>292.0</ele><time>2026-03-22T09:00:02.879Z</time></trkpt><trkpt lat="39.1310628" lon="8.7465565"><ele>292.0</ele><time>2026-03-22T09:00:06.878Z</time></trkpt><trkpt lat="39.1310776" lon="8.746642"><ele>292.0</ele><time>2026-03-22T09:00:10.878Z</time></trkpt><trkpt lat="39.1311239" lon="8.7467271"><ele>292.0</ele><time>2026-03-22T09:00:14.878Z</time></trkpt><trkpt lat="39.1311601" lon="8.7468089"><ele>292.0</ele><time>2026-03-22T09:00:18.878Z</time></trkpt><trkpt lat="39.1311863" lon="8.7468894"><ele>292.0</ele><time>2026-03-22T09:00:21.879Z</time></trkpt><trkpt lat="39.1312051" lon="8.7469759"><ele>292.0</ele><time>2026-03-22T09:00:25.878Z</time></trkpt><trkpt lat="39.1312343" lon="8.7470921"><ele>294.5</ele><time>2026-03-22T09:00:29.878Z</time></trkpt><trkpt lat="39.1312631" lon="8.7471879"><ele>297.0</ele><time>2026-03-22T09:00:34.878Z</time></trkpt><trkpt lat="39.1312881" lon="8.7472855"><ele>299.5</ele><time>2026-03-22T09:00:38.878Z</time></trkpt><trkpt lat="39.1313143" lon="8.7473753"><ele>302.0</ele><time>2026-03-22T09:00:41.879Z</time></trkpt><trkpt lat="39.1313377" lon="8.7474789"><ele>304.5</ele><time>2026-03-22T09:00:44.878Z</time></trkpt><trkpt lat="39.1313685" lon="8.7475867"><ele>307.0</ele><time>2026-03-22T09:00:47.879Z</time></trkpt><trkpt lat="39.1313834" lon="8.7476816"><ele>306.3333333333333</ele><time>2026-03-22T09:00:51.878Z</time></trkpt><trkpt lat="39.1314094" lon="8.7477601"><ele>305.66666666666663</ele><time>2026-03-22T09:00:53.878Z</time></trkpt><trkpt lat="39.1314531" lon="8.7478447"><ele>305.0</ele><time>2026-03-22T09:00:55.878Z</time></trkpt><trkpt lat="39.13149" lon="8.7479194"><ele>304.3333333333333</ele><time>2026-03-22T09:00:56.878Z</time></trkpt><trkpt lat="39.1315161" lon="8.7480129"><ele>303.6666666666667</ele><time>2026-03-22T09:00:58.878Z</time></trkpt><trkpt lat="39.1315875" lon="8.7480769"><ele>303.0</ele><time>2026-03-22T09:01:02.878Z</time></trkpt><trkpt lat="39.1316537" lon="8.7481403"><ele>303.0</ele><time>2026-03-22T09:01:06.879Z</time></trkpt><trkpt lat="39.1316942" lon="8.748222"><ele>303.0</ele><time>2026-03-22T09:01:10.878Z</time></trkpt><trkpt lat="39.1317117" lon="8.7483014"><ele>303.0</ele><time>2026-03-22T09:01:13.878Z</time></trkpt><trkpt lat="39.1317444" lon="8.7483907"><ele>303.0</ele><time>2026-03-22T09:01:18.879Z</time></trkpt><trkpt lat="39.1317978" lon="8.7484606"><ele>303.0</ele><time>2026-03-22T09:01:21.878Z</time></trkpt><trkpt lat="39.1318492" lon="8.7485274"><ele>303.0</ele><time>2026-03-22T09:01:24.878Z</time></trkpt><trkpt lat="39.1319051" lon="8.7485837"><ele>303.0</ele><time>2026-03-22T09:01:27.879Z</time></trkpt><trkpt lat="39.1319774" lon="8.7486128"><ele>305.57142857142856</ele><time>2026-03-22T09:01:31.878Z</time></trkpt><trkpt lat="39.1320344" lon="8.7486531"><ele>308.1428571428571</ele><time>2026-03-22T09:01:35.879Z</time></trkpt><trkpt lat="39.1321017" lon="8.7487143"><ele>310.71428571428567</ele><time>2026-03-22T09:01:39.879Z</time></trkpt><trkpt lat="39.1321748" lon="8.7487643"><ele>313.2857142857143</ele><time>2026-03-22T09:01:45.879Z</time></trkpt><trkpt lat="39.1322264" lon="8.7488126"><ele>315.85714285714283</ele><time>2026-03-22T09:01:48.879Z</time></trkpt><trkpt lat="39.1322774" lon="8.7488714"><ele>318.4285714285714</ele><time>2026-03-22T09:01:50.878Z</time></trkpt><trkpt lat="39.1323227" lon="8.7489669"><ele>321.0</ele><time>2026-03-22T09:01:54.878Z</time></trkpt><trkpt lat="39.1323668" lon="8.749025"><ele>319.8333333333333</ele><time>2026-03-22T09:01:57.878Z</time></trkpt><trkpt lat="39.1324305" lon="8.7490975"><ele>318.6666666666667</ele><time>2026-03-22T09:02:00.879Z</time></trkpt><trkpt lat="39.1324506" lon="8.7491968"><ele>317.5</ele><time>2026-03-22T09:02:08.879Z</time></trkpt><trkpt lat="39.1324673" lon="8.7493101"><ele>316.33333333333337</ele><time>2026-03-22T09:02:11.878Z</time></trkpt><trkpt lat="39.1324796" lon="8.7494028"><ele>315.1666666666667</ele><time>2026-03-22T09:02:14.879Z</time></trkpt><trkpt lat="39.1324615" lon="8.7494943"><ele>314.0</ele><time>2026-03-22T09:02:19.878Z</time></trkpt><trkpt lat="39.1324188" lon="8.7495694"><ele>315.85714285714283</ele><time>2026-03-22T09:02:25.877Z</time></trkpt><trkpt lat="39.1323702" lon="8.7496488"><ele>317.7142857142857</ele><time>2026-03-22T09:02:30.877Z</time></trkpt><trkpt lat="39.1323259" lon="8.749727"><ele>319.57142857142856</ele><time>2026-03-22T09:02:35.878Z</time></trkpt><trkpt lat="39.1322744" lon="8.7497856"><ele>321.42857142857144</ele><time>2026-03-22T09:02:39.877Z</time></trkpt><trkpt lat="39.1322314" lon="8.7498464"><ele>323.2857142857143</ele><time>2026-03-22T09:02:43.877Z</time></trkpt><trkpt lat="39.1321984" lon="8.7499295"><ele>325.1428571428571</ele><time>2026-03-22T09:02:47.877Z</time></trkpt><trkpt lat="39.1321746" lon="8.7500135"><ele>327.0</ele><time>2026-03-22T09:02:51.877Z</time></trkpt><trkpt lat="39.132152" lon="8.75009"><ele>327.0</ele><time>2026-03-22T09:02:54.877Z</time></trkpt><trkpt lat="39.1321418" lon="8.7501873"><ele>327.0</ele><time>2026-03-22T09:02:57.877Z</time></trkpt><trkpt lat="39.1321225" lon="8.7502714"><ele>327.0</ele><time>2026-03-22T09:03:01.877Z</time></trkpt><trkpt lat="39.1321065" lon="8.7503607"><ele>327.0</ele><time>2026-03-22T09:03:05.878Z</time></trkpt><trkpt lat="39.1320941" lon="8.7504471"><ele>327.0</ele><time>2026-03-22T09:03:10.877Z</time></trkpt><trkpt lat="39.132053" lon="8.7505245"><ele>327.0</ele><time>2026-03-22T09:03:15.877Z</time></trkpt><trkpt lat="39.1320117" lon="8.7505893"><ele>327.0</ele><time>2026-03-22T09:03:19.877Z</time></trkpt><trkpt lat="39.1319511" lon="8.7506464"><ele>327.0</ele><time>2026-03-22T09:03:25.877Z</time></trkpt><trkpt lat="39.131908" lon="8.7507153"><ele>327.0</ele><time>2026-03-22T09:03:29.877Z</time></trkpt><trkpt lat="39.1318487" lon="8.7507668"><ele>327.0</ele><time>2026-03-22T09:03:35.878Z</time></trkpt><trkpt lat="39.1317977" lon="8.7508285"><ele>327.0</ele><time>2026-03-22T09:03:41.877Z</time></trkpt><trkpt lat="39.1317571" lon="8.7509038"><ele>327.0</ele><time>2026-03-22T09:03:46.878Z</time></trkpt><trkpt lat="39.1317325" lon="8.7509928"><ele>327.0</ele><time>2026-03-22T09:03:51.878Z</time></trkpt><trkpt lat="39.1317158" lon="8.7510748"><ele>327.0</ele><time>2026-03-22T09:03:55.877Z</time></trkpt><trkpt lat="39.13169" lon="8.7511545"><ele>327.0</ele><time>2026-03-22T09:04:02.877Z</time></trkpt><trkpt lat="39.1316819" lon="8.7512497"><ele>327.0</ele><time>2026-03-22T09:04:06.877Z</time></trkpt><trkpt lat="39.131673" lon="8.7513466"><ele>327.0</ele><time>2026-03-22T09:04:10.877Z</time></trkpt><trkpt lat="39.1316616" lon="8.7514414"><ele>327.0</ele><time>2026-03-22T09:04:14.878Z</time></trkpt><trkpt lat="39.131662" lon="8.7515486"><ele>327.0</ele><time>2026-03-22T09:04:17.877Z</time></trkpt><trkpt lat="39.1316369" lon="8.751625"><ele>327.0</ele><time>2026-03-22T09:04:23.877Z</time></trkpt><trkpt lat="39.1316339" lon="8.7517265"><ele>327.0</ele><time>2026-03-22T09:04:28.877Z</time></trkpt><trkpt lat="39.1316236" lon="8.7518135"><ele>327.0</ele><time>2026-03-22T09:04:32.878Z</time></trkpt><trkpt lat="39.1316212" lon="8.7519029"><ele>327.0</ele><time>2026-03-22T09:04:38.878Z</time></trkpt><trkpt lat="39.1316393" lon="8.7519859"><ele>327.0</ele><time>2026-03-22T09:05:55.877Z</time></trkpt><trkpt lat="39.1316273" lon="8.7520697"><ele>327.0</ele><time>2026-03-22T09:06:02.877Z</time></trkpt><trkpt lat="39.1316288" lon="8.752193"><ele>327.0</ele><time>2026-03-22T09:06:09.877Z</time></trkpt><trkpt lat="39.1315958" lon="8.7522701"><ele>327.0</ele><time>2026-03-22T09:07:04.878Z</time></trkpt><trkpt lat="39.1315847" lon="8.7523619"><ele>327.85714285714283</ele><time>2026-03-22T09:10:06.877Z</time></trkpt><trkpt lat="39.131585" lon="8.7524493"><ele>328.7142857142857</ele><time>2026-03-22T09:10:13.878Z</time></trkpt><trkpt lat="39.131592" lon="8.7525498"><ele>329.57142857142856</ele><time>2026-03-22T09:10:50.877Z</time></trkpt><trkpt lat="39.1315611" lon="8.7526308"><ele>330.42857142857144</ele><time>2026-03-22T09:10:58.878Z</time></trkpt><trkpt lat="39.1315415" lon="8.7527133"><ele>331.2857142857143</ele><time>2026-03-22T09:11:02.877Z</time></trkpt><trkpt lat="39.1315364" lon="8.7528002"><ele>332.14285714285717</ele><time>2026-03-22T09:11:06.877Z</time></trkpt><trkpt lat="39.1315527" lon="8.7529155"><ele>333.0</ele><time>2026-03-22T09:11:12.877Z</time></trkpt><trkpt lat="39.1315859" lon="8.7529909"><ele>334.0</ele><time>2026-03-22T09:11:14.878Z</time></trkpt><trkpt lat="39.1315893" lon="8.7530967"><ele>335.0</ele><time>2026-03-22T09:11:18.878Z</time></trkpt><trkpt lat="39.1315878" lon="8.7531877"><ele>336.0</ele><time>2026-03-22T09:11:22.877Z</time></trkpt><trkpt lat="39.1316146" lon="8.7532768"><ele>337.0</ele><time>2026-03-22T09:11:26.877Z</time></trkpt><trkpt lat="39.1316172" lon="8.7533739"><ele>338.0</ele><time>2026-03-22T09:11:29.878Z</time></trkpt><trkpt lat="39.1315911" lon="8.7534633"><ele>339.0</ele><time>2026-03-22T09:11:34.877Z</time></trkpt><trkpt lat="39.1315806" lon="8.7535509"><ele>340.0</ele><time>2026-03-22T09:11:38.878Z</time></trkpt><trkpt lat="39.1315881" lon="8.7536465"><ele>340.42857142857144</ele><time>2026-03-22T09:12:24.878Z</time></trkpt><trkpt lat="39.131559" lon="8.7537349"><ele>340.85714285714283</ele><time>2026-03-22T09:12:30.877Z</time></trkpt><trkpt lat="39.1315433" lon="8.7538257"><ele>341.2857142857143</ele><time>2026-03-22T09:12:36.878Z</time></trkpt><trkpt lat="39.1315122" lon="8.7539122"><ele>341.7142857142857</ele><time>2026-03-22T09:12:41.878Z</time></trkpt><trkpt lat="39.1314636" lon="8.7539768"><ele>342.1428571428571</ele><time>2026-03-22T09:12:46.877Z</time></trkpt><trkpt lat="39.1314463" lon="8.7540566"><ele>342.57142857142856</ele><time>2026-03-22T09:12:50.877Z</time></trkpt><trkpt lat="39.1314337" lon="8.7541409"><ele>343.0</ele><time>2026-03-22T09:12:54.878Z</time></trkpt><trkpt lat="39.1314425" lon="8.7542377"><ele>344.0</ele><time>2026-03-22T09:12:58.878Z</time></trkpt><trkpt lat="39.1314256" lon="8.7543314"><ele>345.0</ele><time>2026-03-22T09:13:03.877Z</time></trkpt><trkpt lat="39.1314095" lon="8.7544245"><ele>346.0</ele><time>2026-03-22T09:13:08.878Z</time></trkpt><trkpt lat="39.1314087" lon="8.7545089"><ele>347.0</ele><time>2026-03-22T09:13:12.877Z</time></trkpt><trkpt lat="39.1314121" lon="8.7545909"><ele>348.0</ele><time>2026-03-22T09:13:16.877Z</time></trkpt><trkpt lat="39.1314312" lon="8.7546743"><ele>349.0</ele><time>2026-03-22T09:13:20.877Z</time></trkpt><trkpt lat="39.1314508" lon="8.7547607"><ele>350.0</ele><time>2026-03-22T09:13:24.877Z</time></trkpt><trkpt lat="39.1314673" lon="8.7548457"><ele>351.2857142857143</ele><time>2026-03-22T09:13:29.877Z</time></trkpt><trkpt lat="39.1314656" lon="8.754948"><ele>352.57142857142856</ele><time>2026-03-22T09:13:35.878Z</time></trkpt><trkpt lat="39.1314547" lon="8.7550297"><ele>353.8571428571429</ele><time>2026-03-22T09:13:39.878Z</time></trkpt><trkpt lat="39.1314775" lon="8.755117"><ele>355.1428571428571</ele><time>2026-03-22T09:13:43.878Z</time></trkpt><trkpt lat="39.1314848" lon="8.7552001"><ele>356.42857142857144</ele><time>2026-03-22T09:13:47.877Z</time></trkpt><trkpt lat="39.1315072" lon="8.7552964"><ele>357.7142857142857</ele><time>2026-03-22T09:13:51.876Z</time></trkpt><trkpt lat="39.1315202" lon="8.7553794"><ele>359.0</ele><time>2026-03-22T09:13:55.876Z</time></trkpt><trkpt lat="39.1315208" lon="8.7554834"><ele>358.14285714285717</ele><time>2026-03-22T09:14:00.876Z</time></trkpt><trkpt lat="39.1315332" lon="8.7555686"><ele>357.28571428571433</ele><time>2026-03-22T09:14:04.876Z</time></trkpt><trkpt lat="39.1315462" lon="8.7556564"><ele>356.42857142857144</ele><time>2026-03-22T09:14:08.877Z</time></trkpt><trkpt lat="39.1315928" lon="8.7557322"><ele>355.57142857142856</ele><time>2026-03-22T09:14:12.876Z</time></trkpt><trkpt lat="39.1316161" lon="8.7558079"><ele>354.7142857142857</ele><time>2026-03-22T09:14:16.876Z</time></trkpt><trkpt lat="39.1316545" lon="8.7558776"><ele>353.85714285714283</ele><time>2026-03-22T09:14:22.876Z</time></trkpt><trkpt lat="39.1317072" lon="8.7558301"><ele>353.0</ele><time>2026-03-22T09:15:17.876Z</time></trkpt><trkpt lat="39.1317086" lon="8.7555856"><ele>353.0</ele><time>2026-03-22T09:15:20.876Z</time></trkpt><trkpt lat="39.1317075" lon="8.7554525"><ele>353.0</ele><time>2026-03-22T09:15:21.876Z</time></trkpt><trkpt lat="39.1316752" lon="8.7553478"><ele>353.0</ele><time>2026-03-22T09:15:22.876Z</time></trkpt><trkpt lat="39.1316559" lon="8.7552422"><ele>353.0</ele><time>2026-03-22T09:15:23.877Z</time></trkpt><trkpt lat="39.1315782" lon="8.7551057"><ele>353.0</ele><time>2026-03-22T09:15:24.877Z</time></trkpt><trkpt lat="39.1315717" lon="8.7549851"><ele>352.5</ele><time>2026-03-22T09:15:25.876Z</time></trkpt><trkpt lat="39.1315403" lon="8.7548681"><ele>352.0</ele><time>2026-03-22T09:15:26.877Z</time></trkpt><trkpt lat="39.131528" lon="8.7547571"><ele>351.5</ele><time>2026-03-22T09:15:27.876Z</time></trkpt><trkpt lat="39.1315278" lon="8.7546494"><ele>351.0</ele><time>2026-03-22T09:15:28.876Z</time></trkpt><trkpt lat="39.1315059" lon="8.754529"><ele>350.5</ele><time>2026-03-22T09:15:29.876Z</time></trkpt><trkpt lat="39.1315113" lon="8.754427"><ele>350.0</ele><time>2026-03-22T09:15:30.876Z</time></trkpt><trkpt lat="39.1315319" lon="8.7543314"><ele>348.83333333333337</ele><time>2026-03-22T09:15:31.876Z</time></trkpt><trkpt lat="39.1315629" lon="8.754231"><ele>347.6666666666667</ele><time>2026-03-22T09:15:32.877Z</time></trkpt><trkpt lat="39.1315774" lon="8.7541161"><ele>346.5</ele><time>2026-03-22T09:15:33.877Z</time></trkpt><trkpt lat="39.1316062" lon="8.7540023"><ele>345.3333333333333</ele><time>2026-03-22T09:15:34.876Z</time></trkpt><trkpt lat="39.1316322" lon="8.7539101"><ele>344.16666666666663</ele><time>2026-03-22T09:15:35.876Z</time></trkpt><trkpt lat="39.1316531" lon="8.7538078"><ele>343.0</ele><time>2026-03-22T09:15:36.877Z</time></trkpt><trkpt lat="39.1316672" lon="8.7537042"><ele>343.0</ele><time>2026-03-22T09:15:37.876Z</time></trkpt><trkpt lat="39.1316673" lon="8.7536057"><ele>343.0</ele><time>2026-03-22T09:15:38.876Z</time></trkpt><trkpt lat="39.1316702" lon="8.7535068"><ele>343.0</ele><time>2026-03-22T09:15:39.877Z</time></trkpt><trkpt lat="39.1316589" lon="8.7533937"><ele>343.0</ele><time>2026-03-22T09:15:40.876Z</time></trkpt><trkpt lat="39.131641" lon="8.7532834"><ele>343.0</ele><time>2026-03-22T09:15:41.876Z</time></trkpt><trkpt lat="39.1316156" lon="8.7531744"><ele>343.0</ele><time>2026-03-22T09:15:42.876Z</time></trkpt><trkpt lat="39.1316067" lon="8.7530712"><ele>342.5</ele><time>2026-03-22T09:15:43.877Z</time></trkpt><trkpt lat="39.1316017" lon="8.7529672"><ele>342.0</ele><time>2026-03-22T09:15:44.876Z</time></trkpt><trkpt lat="39.1315943" lon="8.752848"><ele>341.5</ele><time>2026-03-22T09:15:45.876Z</time></trkpt><trkpt lat="39.1315816" lon="8.7527335"><ele>341.0</ele><time>2026-03-22T09:15:46.876Z</time></trkpt><trkpt lat="39.1315884" lon="8.7526194"><ele>340.5</ele><time>2026-03-22T09:15:47.876Z</time></trkpt><trkpt lat="39.1315915" lon="8.7525082"><ele>340.0</ele><time>2026-03-22T09:15:48.877Z</time></trkpt><trkpt lat="39.1316125" lon="8.7523851"><ele>338.6</ele><time>2026-03-22T09:15:49.877Z</time></trkpt><trkpt lat="39.1316231" lon="8.7522608"><ele>337.2</ele><time>2026-03-22T09:15:50.876Z</time></trkpt><trkpt lat="39.1316253" lon="8.752162"><ele>335.79999999999995</ele><time>2026-03-22T09:15:51.876Z</time></trkpt><trkpt lat="39.1316476" lon="8.7520536"><ele>334.4</ele><time>2026-03-22T09:15:52.876Z</time></trkpt><trkpt lat="39.1316738" lon="8.7519368"><ele>333.0</ele><time>2026-03-22T09:15:53.877Z</time></trkpt><trkpt lat="39.1316943" lon="8.751811"><ele>331.79999999999995</ele><time>2026-03-22T09:15:54.877Z</time></trkpt><trkpt lat="39.1317071" lon="8.7516968"><ele>330.6</ele><time>2026-03-22T09:15:55.876Z</time></trkpt><trkpt lat="39.1317106" lon="8.7515677"><ele>329.4</ele><time>2026-03-22T09:15:56.877Z</time></trkpt><trkpt lat="39.1317141" lon="8.7514406"><ele>328.20000000000005</ele><time>2026-03-22T09:15:57.876Z</time></trkpt><trkpt lat="39.1317454" lon="8.7513461"><ele>327.0</ele><time>2026-03-22T09:15:58.877Z</time></trkpt><trkpt lat="39.1317575" lon="8.7512313"><ele>327.0</ele><time>2026-03-22T09:15:59.877Z</time></trkpt><trkpt lat="39.1318011" lon="8.7511438"><ele>327.0</ele><time>2026-03-22T09:16:00.876Z</time></trkpt><trkpt lat="39.131831" lon="8.7510574"><ele>327.0</ele><time>2026-03-22T09:16:01.876Z</time></trkpt><trkpt lat="39.1318523" lon="8.7509582"><ele>327.0</ele><time>2026-03-22T09:16:02.877Z</time></trkpt><trkpt lat="39.1319062" lon="8.7508601"><ele>327.0</ele><time>2026-03-22T09:16:03.876Z</time></trkpt><trkpt lat="39.1319384" lon="8.7507479"><ele>327.0</ele><time>2026-03-22T09:16:04.876Z</time></trkpt><trkpt lat="39.1319949" lon="8.7506553"><ele>327.0</ele><time>2026-03-22T09:16:05.877Z</time></trkpt><trkpt lat="39.1320584" lon="8.7505655"><ele>327.0</ele><time>2026-03-22T09:16:06.876Z</time></trkpt><trkpt lat="39.1321096" lon="8.7504755"><ele>327.0</ele><time>2026-03-22T09:16:07.876Z</time></trkpt><trkpt lat="39.1321401" lon="8.7503864"><ele>327.0</ele><time>2026-03-22T09:16:08.876Z</time></trkpt><trkpt lat="39.1321516" lon="8.7502525"><ele>327.0</ele><time>2026-03-22T09:16:09.876Z</time></trkpt><trkpt lat="39.1321854" lon="8.7501299"><ele>327.0</ele><time>2026-03-22T09:16:10.876Z</time></trkpt><trkpt lat="39.1322278" lon="8.7500524"><ele>327.0</ele><time>2026-03-22T09:16:11.876Z</time></trkpt><trkpt lat="39.1322811" lon="8.74997"><ele>327.0</ele><time>2026-03-22T09:16:12.877Z</time></trkpt><trkpt lat="39.1323332" lon="8.7498878"><ele>327.0</ele><time>2026-03-22T09:16:13.877Z</time></trkpt><trkpt lat="39.1323896" lon="8.7498041"><ele>327.0</ele><time>2026-03-22T09:16:14.876Z</time></trkpt><trkpt lat="39.1324451" lon="8.7497014"><ele>327.0</ele><time>2026-03-22T09:16:15.876Z</time></trkpt><trkpt lat="39.1324822" lon="8.749606"><ele>324.40000000000003</ele><time>2026-03-22T09:16:16.877Z</time></trkpt><trkpt lat="39.1324864" lon="8.7494729"><ele>321.8</ele><time>2026-03-22T09:16:17.876Z</time></trkpt><trkpt lat="39.1324897" lon="8.749336"><ele>319.2</ele><time>2026-03-22T09:16:18.877Z</time></trkpt><trkpt lat="39.1324808" lon="8.7492252"><ele>316.6</ele><time>2026-03-22T09:16:19.876Z</time></trkpt><trkpt lat="39.1324608" lon="8.7491231"><ele>314.0</ele><time>2026-03-22T09:16:20.876Z</time></trkpt><trkpt lat="39.1324207" lon="8.7490273"><ele>315.4</ele><time>2026-03-22T09:16:21.876Z</time></trkpt><trkpt lat="39.1323563" lon="8.7489185"><ele>316.79999999999995</ele><time>2026-03-22T09:16:22.876Z</time></trkpt><trkpt lat="39.1322841" lon="8.7488484"><ele>318.20000000000005</ele><time>2026-03-22T09:16:23.877Z</time></trkpt><trkpt lat="39.1322148" lon="8.7487747"><ele>319.6</ele><time>2026-03-22T09:16:24.876Z</time></trkpt><trkpt lat="39.1321523" lon="8.7487102"><ele>321.0</ele><time>2026-03-22T09:16:25.876Z</time></trkpt><trkpt lat="39.1320807" lon="8.7486426"><ele>321.0</ele><time>2026-03-22T09:16:26.876Z</time></trkpt><trkpt lat="39.1320092" lon="8.7485586"><ele>321.0</ele><time>2026-03-22T09:16:27.876Z</time></trkpt><trkpt lat="39.1319472" lon="8.7484801"><ele>321.0</ele><time>2026-03-22T09:16:28.877Z</time></trkpt><trkpt lat="39.1318871" lon="8.7483942"><ele>321.0</ele><time>2026-03-22T09:16:29.876Z</time></trkpt><trkpt lat="39.1318248" lon="8.7483002"><ele>321.0</ele><time>2026-03-22T09:16:30.876Z</time></trkpt><trkpt lat="39.1317609" lon="8.748217"><ele>322.1666666666667</ele><time>2026-03-22T09:16:31.877Z</time></trkpt><trkpt lat="39.1317041" lon="8.7481253"><ele>323.3333333333333</ele><time>2026-03-22T09:16:32.876Z</time></trkpt><trkpt lat="39.1316503" lon="8.7480313"><ele>324.5</ele><time>2026-03-22T09:16:33.877Z</time></trkpt><trkpt lat="39.1316003" lon="8.7479565"><ele>325.66666666666663</ele><time>2026-03-22T09:16:34.876Z</time></trkpt><trkpt lat="39.1315592" lon="8.7478547"><ele>326.8333333333333</ele><time>2026-03-22T09:16:35.876Z</time></trkpt><trkpt lat="39.1315114" lon="8.7477564"><ele>328.0</ele><time>2026-03-22T09:16:36.876Z</time></trkpt><trkpt lat="39.1314774" lon="8.7476488"><ele>324.5</ele><time>2026-03-22T09:16:37.876Z</time></trkpt><trkpt lat="39.1314441" lon="8.7475454"><ele>321.0</ele><time>2026-03-22T09:16:38.877Z</time></trkpt><trkpt lat="39.1314215" lon="8.7474473"><ele>317.5</ele><time>2026-03-22T09:16:39.876Z</time></trkpt><trkpt lat="39.1314125" lon="8.7473607"><ele>314.0</ele><time>2026-03-22T09:16:40.876Z</time></trkpt><trkpt lat="39.1313907" lon="8.7472493"><ele>310.5</ele><time>2026-03-22T09:16:41.876Z</time></trkpt><trkpt lat="39.1313654" lon="8.747142"><ele>307.0</ele><time>2026-03-22T09:16:42.876Z</time></trkpt><trkpt lat="39.1313676" lon="8.7470478"><ele>307.0</ele><time>2026-03-22T09:16:43.876Z</time></trkpt><trkpt lat="39.131344" lon="8.7469678"><ele>307.0</ele><time>2026-03-22T09:16:44.877Z</time></trkpt><trkpt lat="39.1312938" lon="8.7468811"><ele>307.0</ele><time>2026-03-22T09:16:45.877Z</time></trkpt><trkpt lat="39.1312656" lon="8.7467827"><ele>307.0</ele><time>2026-03-22T09:16:46.876Z</time></trkpt><trkpt lat="39.1312198" lon="8.7466886"><ele>307.0</ele><time>2026-03-22T09:16:47.876Z</time></trkpt><trkpt lat="39.1311829" lon="8.7466026"><ele>307.0</ele><time>2026-03-22T09:16:48.876Z</time></trkpt><trkpt lat="39.1311469" lon="8.7465233"><ele>304.5</ele><time>2026-03-22T09:16:49.876Z</time></trkpt><trkpt lat="39.1311156" lon="8.7464269"><ele>302.0</ele><time>2026-03-22T09:16:50.876Z</time></trkpt><trkpt lat="39.1310806" lon="8.746324"><ele>299.5</ele><time>2026-03-22T09:16:51.877Z</time></trkpt><trkpt lat="39.131027" lon="8.7462246"><ele>297.0</ele><time>2026-03-22T09:16:52.876Z</time></trkpt><trkpt lat="39.1309795" lon="8.7461335"><ele>294.5</ele><time>2026-03-22T09:16:53.876Z</time></trkpt><trkpt lat="39.1309456" lon="8.7460532"><ele>292.0</ele><time>2026-03-22T09:16:54.876Z</time></trkpt><trkpt lat="39.130894" lon="8.7459408"><ele>290.4</ele><time>2026-03-22T09:16:55.876Z</time></trkpt><trkpt lat="39.1308507" lon="8.7458406"><ele>288.79999999999995</ele><time>2026-03-22T09:16:56.876Z</time></trkpt><trkpt lat="39.1307979" lon="8.7457376"><ele>287.2</ele><time>2026-03-22T09:16:57.876Z</time></trkpt><trkpt lat="39.1307469" lon="8.7456469"><ele>285.59999999999997</ele><time>2026-03-22T09:16:58.876Z</time></trkpt><trkpt lat="39.1306746" lon="8.7455587"><ele>284.0</ele><time>2026-03-22T09:16:59.876Z</time></trkpt><trkpt lat="39.1306201" lon="8.7454753"><ele>284.0</ele><time>2026-03-22T09:17:00.876Z</time></trkpt><trkpt lat="39.1305671" lon="8.7453922"><ele>284.0</ele><time>2026-03-22T09:17:01.877Z</time></trkpt><trkpt lat="39.1304939" lon="8.7453179"><ele>284.0</ele><time>2026-03-22T09:17:02.877Z</time></trkpt><trkpt lat="39.1304284" lon="8.7452345"><ele>284.0</ele><time>2026-03-22T09:17:03.876Z</time></trkpt><trkpt lat="39.1303518" lon="8.745156"><ele>284.0</ele><time>2026-03-22T09:17:04.877Z</time></trkpt><trkpt lat="39.130307" lon="8.7450873"><ele>284.0</ele><time>2026-03-22T09:17:05.877Z</time></trkpt><trkpt lat="39.1302463" lon="8.7449923"><ele>282.59999999999997</ele><time>2026-03-22T09:17:06.877Z</time></trkpt><trkpt lat="39.1301936" lon="8.7448962"><ele>281.2</ele><time>2026-03-22T09:17:07.876Z</time></trkpt><trkpt lat="39.1301244" lon="8.7448041"><ele>279.79999999999995</ele><time>2026-03-22T09:17:08.876Z</time></trkpt><trkpt lat="39.1300847" lon="8.7446854"><ele>278.4</ele><time>2026-03-22T09:17:09.876Z</time></trkpt><trkpt lat="39.1300507" lon="8.7445658"><ele>277.0</ele><time>2026-03-22T09:17:10.877Z</time></trkpt><trkpt lat="39.1300149" lon="8.7444419"><ele>275.6</ele><time>2026-03-22T09:17:11.877Z</time></trkpt><trkpt lat="39.1299843" lon="8.74432"><ele>274.2</ele><time>2026-03-22T09:17:12.877Z</time></trkpt><trkpt lat="39.1299498" lon="8.7442009"><ele>272.8</ele><time>2026-03-22T09:17:13.877Z</time></trkpt><trkpt lat="39.1299089" lon="8.7440741"><ele>271.4</ele><time>2026-03-22T09:17:14.876Z</time></trkpt><trkpt lat="39.1298923" lon="8.743953"><ele>270.0</ele><time>2026-03-22T09:17:15.876Z</time></trkpt><trkpt lat="39.1298643" lon="8.7438294"><ele>270.0</ele><time>2026-03-22T09:17:16.876Z</time></trkpt><trkpt lat="39.1298231" lon="8.7437028"><ele>270.0</ele><time>2026-03-22T09:17:17.876Z</time></trkpt><trkpt lat="39.1297903" lon="8.7435863"><ele>270.0</ele><time>2026-03-22T09:17:18.876Z</time></trkpt><trkpt lat="39.1297455" lon="8.7434752"><ele>270.0</ele><time>2026-03-22T09:17:19.877Z</time></trkpt><trkpt lat="39.1297067" lon="8.7433517"><ele>270.0</ele><time>2026-03-22T09:17:20.876Z</time></trkpt><trkpt lat="39.1296681" lon="8.7432414"><ele>268.6</ele><time>2026-03-22T09:17:21.876Z</time></trkpt><trkpt lat="39.1296058" lon="8.7431328"><ele>267.2</ele><time>2026-03-22T09:17:22.876Z</time></trkpt><trkpt lat="39.1295449" lon="8.7430323"><ele>265.8</ele><time>2026-03-22T09:17:23.876Z</time></trkpt><trkpt lat="39.1294707" lon="8.742943"><ele>264.4</ele><time>2026-03-22T09:17:24.876Z</time></trkpt><trkpt lat="39.1293821" lon="8.742868"><ele>263.0</ele><time>2026-03-22T09:17:25.877Z</time></trkpt><trkpt lat="39.1293057" lon="8.7427831"><ele>263.0</ele><time>2026-03-22T09:17:26.876Z</time></trkpt><trkpt lat="39.1292303" lon="8.7427147"><ele>263.0</ele><time>2026-03-22T09:17:27.876Z</time></trkpt><trkpt lat="39.1291686" lon="8.7426343"><ele>263.0</ele><time>2026-03-22T09:17:28.876Z</time></trkpt><trkpt lat="39.1291025" lon="8.7425714"><ele>263.0</ele><time>2026-03-22T09:17:29.876Z</time></trkpt><trkpt lat="39.1290478" lon="8.7425015"><ele>263.0</ele><time>2026-03-22T09:17:30.876Z</time></trkpt><trkpt lat="39.1289884" lon="8.7424529"><ele>263.0</ele><time>2026-03-22T09:17:31.876Z</time></trkpt><trkpt lat="39.1289395" lon="8.7423949"><ele>264.0</ele><time>2026-03-22T09:17:32.877Z</time></trkpt><trkpt lat="39.1288883" lon="8.7423445"><ele>265.0</ele><time>2026-03-22T09:17:33.876Z</time></trkpt><trkpt lat="39.1288445" lon="8.7422796"><ele>266.0</ele><time>2026-03-22T09:17:34.876Z</time></trkpt><trkpt lat="39.1288192" lon="8.7421962"><ele>267.0</ele><time>2026-03-22T09:17:35.876Z</time></trkpt><trkpt lat="39.12884" lon="8.7421139"><ele>268.0</ele><time>2026-03-22T09:17:36.877Z</time></trkpt><trkpt lat="39.1288867" lon="8.7419571"><ele>269.0</ele><time>2026-03-22T09:17:38.877Z</time></trkpt><trkpt lat="39.1288931" lon="8.7418582"><ele>269.0</ele><time>2026-03-22T09:17:39.877Z</time></trkpt><trkpt lat="39.1289059" lon="8.7417641"><ele>269.0</ele><time>2026-03-22T09:17:40.876Z</time></trkpt><trkpt lat="39.1289129" lon="8.7416708"><ele>269.0</ele><time>2026-03-22T09:17:41.877Z</time></trkpt><trkpt lat="39.1289148" lon="8.7415585"><ele>269.0</ele><time>2026-03-22T09:17:42.876Z</time></trkpt><trkpt lat="39.128899" lon="8.7414467"><ele>269.0</ele><time>2026-03-22T09:17:43.876Z</time></trkpt><trkpt lat="39.128888" lon="8.7413266"><ele>269.0</ele><time>2026-03-22T09:17:44.876Z</time></trkpt><trkpt lat="39.1288727" lon="8.7412012"><ele>269.0</ele><time>2026-03-22T09:17:45.876Z</time></trkpt><trkpt lat="39.1288562" lon="8.7410728"><ele>269.0</ele><time>2026-03-22T09:17:46.876Z</time></trkpt><trkpt lat="39.1288293" lon="8.7409436"><ele>269.0</ele><time>2026-03-22T09:17:47.876Z</time></trkpt><trkpt lat="39.1288161" lon="8.7408182"><ele>269.0</ele><time>2026-03-22T09:17:48.876Z</time></trkpt><trkpt lat="39.1288047" lon="8.7406777"><ele>269.0</ele><time>2026-03-22T09:17:49.877Z</time></trkpt><trkpt lat="39.1288065" lon="8.7405275"><ele>266.59999999999997</ele><time>2026-03-22T09:17:50.876Z</time></trkpt><trkpt lat="39.1288005" lon="8.7403848"><ele>264.2</ele><time>2026-03-22T09:17:51.876Z</time></trkpt><trkpt lat="39.1287714" lon="8.7402473"><ele>261.79999999999995</ele><time>2026-03-22T09:17:52.876Z</time></trkpt><trkpt lat="39.1287762" lon="8.7401109"><ele>259.4</ele><time>2026-03-22T09:17:53.876Z</time></trkpt><trkpt lat="39.1287802" lon="8.7399618"><ele>257.0</ele><time>2026-03-22T09:17:54.877Z</time></trkpt><trkpt lat="39.1287767" lon="8.7398176"><ele>254.0</ele><time>2026-03-22T09:17:55.876Z</time></trkpt><trkpt lat="39.1287804" lon="8.7396981"><ele>251.0</ele><time>2026-03-22T09:17:56.876Z</time></trkpt><trkpt lat="39.128776" lon="8.7395716"><ele>248.0</ele><time>2026-03-22T09:17:57.876Z</time></trkpt><trkpt lat="39.1287648" lon="8.7394446"><ele>245.0</ele><time>2026-03-22T09:17:58.876Z</time></trkpt><trkpt lat="39.1287759" lon="8.7393127"><ele>242.0</ele><time>2026-03-22T09:17:59.876Z</time></trkpt><trkpt lat="39.1287527" lon="8.7391852"><ele>241.0</ele><time>2026-03-22T09:18:00.876Z</time></trkpt><trkpt lat="39.1287254" lon="8.7390537"><ele>240.0</ele><time>2026-03-22T09:18:01.877Z</time></trkpt><trkpt lat="39.1286942" lon="8.7389236"><ele>239.0</ele><time>2026-03-22T09:18:02.876Z</time></trkpt><trkpt lat="39.1286527" lon="8.7387983"><ele>238.0</ele><time>2026-03-22T09:18:03.877Z</time></trkpt><trkpt lat="39.1286107" lon="8.7386719"><ele>237.0</ele><time>2026-03-22T09:18:04.876Z</time></trkpt><trkpt lat="39.1285735" lon="8.7385476"><ele>236.8</ele><time>2026-03-22T09:18:05.876Z</time></trkpt><trkpt lat="39.1285342" lon="8.7384348"><ele>236.6</ele><time>2026-03-22T09:18:06.877Z</time></trkpt><trkpt lat="39.1284962" lon="8.7383143"><ele>236.40000000000003</ele><time>2026-03-22T09:18:07.876Z</time></trkpt><trkpt lat="39.1284716" lon="8.7381951"><ele>236.20000000000002</ele><time>2026-03-22T09:18:08.876Z</time></trkpt><trkpt lat="39.128473" lon="8.7380782"><ele>236.0</ele><time>2026-03-22T09:18:09.876Z</time></trkpt><trkpt lat="39.1284703" lon="8.7379626"><ele>236.00000000000003</ele><time>2026-03-22T09:18:10.876Z</time></trkpt><trkpt lat="39.1284593" lon="8.737858"><ele>236.0</ele><time>2026-03-22T09:18:11.876Z</time></trkpt><trkpt lat="39.1284617" lon="8.7377445"><ele>236.0</ele><time>2026-03-22T09:18:12.877Z</time></trkpt><trkpt lat="39.1284526" lon="8.737633"><ele>236.0</ele><time>2026-03-22T09:18:13.877Z</time></trkpt><trkpt lat="39.1284546" lon="8.7375359"><ele>236.00000000000003</ele><time>2026-03-22T09:18:14.876Z</time></trkpt><trkpt lat="39.1284522" lon="8.737439"><ele>236.0</ele><time>2026-03-22T09:18:15.876Z</time></trkpt><trkpt lat="39.1284451" lon="8.7373282"><ele>235.50000000000003</ele><time>2026-03-22T09:18:16.876Z</time></trkpt><trkpt lat="39.1284527" lon="8.7372361"><ele>235.0</ele><time>2026-03-22T09:18:17.876Z</time></trkpt><trkpt lat="39.1284439" lon="8.7371365"><ele>234.5</ele><time>2026-03-22T09:18:18.876Z</time></trkpt><trkpt lat="39.1284436" lon="8.7370442"><ele>234.0</ele><time>2026-03-22T09:18:19.877Z</time></trkpt><trkpt lat="39.1284326" lon="8.736939"><ele>233.50000000000003</ele><time>2026-03-22T09:18:20.877Z</time></trkpt><trkpt lat="39.128425" lon="8.7368356"><ele>233.0</ele><time>2026-03-22T09:18:21.877Z</time></trkpt><trkpt lat="39.128429" lon="8.7367331"><ele>232.33333333333334</ele><time>2026-03-22T09:18:22.876Z</time></trkpt><trkpt lat="39.1284062" lon="8.7366393"><ele>231.66666666666669</ele><time>2026-03-22T09:18:23.876Z</time></trkpt><trkpt lat="39.1283957" lon="8.736535"><ele>231.0</ele><time>2026-03-22T09:18:24.876Z</time></trkpt><trkpt lat="39.1283885" lon="8.7364272"><ele>230.33333333333331</ele><time>2026-03-22T09:18:25.877Z</time></trkpt><trkpt lat="39.1284017" lon="8.7363228"><ele>229.66666666666666</ele><time>2026-03-22T09:18:26.876Z</time></trkpt><trkpt lat="39.1284165" lon="8.7362201"><ele>229.0</ele><time>2026-03-22T09:18:27.876Z</time></trkpt><trkpt lat="39.1284464" lon="8.7361269"><ele>228.66666666666666</ele><time>2026-03-22T09:18:28.877Z</time></trkpt><trkpt lat="39.128461" lon="8.7360297"><ele>228.33333333333331</ele><time>2026-03-22T09:18:29.876Z</time></trkpt><trkpt lat="39.128478" lon="8.7359241"><ele>228.0</ele><time>2026-03-22T09:18:30.876Z</time></trkpt><trkpt lat="39.1284944" lon="8.7358179"><ele>227.66666666666669</ele><time>2026-03-22T09:18:31.877Z</time></trkpt><trkpt lat="39.1284992" lon="8.7357179"><ele>227.33333333333334</ele><time>2026-03-22T09:18:32.876Z</time></trkpt><trkpt lat="39.1285095" lon="8.7356102"><ele>227.0</ele><time>2026-03-22T09:18:33.876Z</time></trkpt><trkpt lat="39.1285166" lon="8.7355023"><ele>227.00000000000003</ele><time>2026-03-22T09:18:34.876Z</time></trkpt><trkpt lat="39.1285138" lon="8.7353981"><ele>227.0</ele><time>2026-03-22T09:18:35.876Z</time></trkpt><trkpt lat="39.1285071" lon="8.7352918"><ele>227.0</ele><time>2026-03-22T09:18:36.876Z</time></trkpt><trkpt lat="39.1285241" lon="8.735187"><ele>227.0</ele><time>2026-03-22T09:18:37.876Z</time></trkpt><trkpt lat="39.1285476" lon="8.735095"><ele>227.00000000000003</ele><time>2026-03-22T09:18:38.877Z</time></trkpt><trkpt lat="39.1285551" lon="8.735001"><ele>227.0</ele><time>2026-03-22T09:18:39.878Z</time></trkpt><trkpt lat="39.1285708" lon="8.7349095"><ele>226.66666666666669</ele><time>2026-03-22T09:18:40.877Z</time></trkpt><trkpt lat="39.1285937" lon="8.7348099"><ele>226.33333333333334</ele><time>2026-03-22T09:18:41.877Z</time></trkpt><trkpt lat="39.1286136" lon="8.7347219"><ele>226.0</ele><time>2026-03-22T09:18:42.876Z</time></trkpt><trkpt lat="39.1286479" lon="8.734636"><ele>225.66666666666669</ele><time>2026-03-22T09:18:43.876Z</time></trkpt><trkpt lat="39.1286836" lon="8.7345397"><ele>225.33333333333334</ele><time>2026-03-22T09:18:44.876Z</time></trkpt><trkpt lat="39.1287082" lon="8.7344541"><ele>225.0</ele><time>2026-03-22T09:18:45.876Z</time></trkpt><trkpt lat="39.1287273" lon="8.7343676"><ele>224.71428571428575</ele><time>2026-03-22T09:18:46.876Z</time></trkpt><trkpt lat="39.1287491" lon="8.7342818"><ele>224.42857142857144</ele><time>2026-03-22T09:18:47.876Z</time></trkpt><trkpt lat="39.128773" lon="8.7341993"><ele>224.14285714285717</ele><time>2026-03-22T09:18:48.876Z</time></trkpt><trkpt lat="39.1287754" lon="8.7340971"><ele>223.8571428571429</ele><time>2026-03-22T09:18:49.876Z</time></trkpt><trkpt lat="39.1287967" lon="8.7340141"><ele>223.57142857142856</ele><time>2026-03-22T09:18:50.877Z</time></trkpt><trkpt lat="39.1288095" lon="8.7339251"><ele>223.28571428571428</ele><time>2026-03-22T09:18:51.876Z</time></trkpt><trkpt lat="39.1288211" lon="8.7338428"><ele>223.0</ele><time>2026-03-22T09:18:52.876Z</time></trkpt><trkpt lat="39.128846" lon="8.7337525"><ele>223.0</ele><time>2026-03-22T09:18:53.876Z</time></trkpt><trkpt lat="39.1288677" lon="8.7336757"><ele>223.0</ele><time>2026-03-22T09:18:54.876Z</time></trkpt><trkpt lat="39.1288934" lon="8.7335881"><ele>223.0</ele><time>2026-03-22T09:18:55.876Z</time></trkpt><trkpt lat="39.1289127" lon="8.7334861"><ele>223.0</ele><time>2026-03-22T09:18:56.876Z</time></trkpt><trkpt lat="39.1289302" lon="8.7334067"><ele>223.0</ele><time>2026-03-22T09:18:57.876Z</time></trkpt><trkpt lat="39.1289381" lon="8.7333148"><ele>223.0</ele><time>2026-03-22T09:18:58.876Z</time></trkpt><trkpt lat="39.1289247" lon="8.7332156"><ele>223.0</ele><time>2026-03-22T09:18:59.877Z</time></trkpt><trkpt lat="39.1289081" lon="8.7331295"><ele>222.2</ele><time>2026-03-22T09:19:00.876Z</time></trkpt><trkpt lat="39.1288669" lon="8.7330589"><ele>221.4</ele><time>2026-03-22T09:19:01.876Z</time></trkpt><trkpt lat="39.1288149" lon="8.7329188"><ele>220.59999999999997</ele><time>2026-03-22T09:19:03.876Z</time></trkpt><trkpt lat="39.1287562" lon="8.7327674"><ele>219.79999999999998</ele><time>2026-03-22T09:19:05.877Z</time></trkpt><trkpt lat="39.128735" lon="8.7326877"><ele>219.0</ele><time>2026-03-22T09:19:06.877Z</time></trkpt><trkpt lat="39.128703" lon="8.7325429"><ele>219.0</ele><time>2026-03-22T09:19:08.876Z</time></trkpt><trkpt lat="39.1286803" lon="8.7324385"><ele>219.0</ele><time>2026-03-22T09:19:10.876Z</time></trkpt><trkpt lat="39.128611" lon="8.7324263"><ele>219.0</ele><time>2026-03-22T09:19:12.876Z</time></trkpt><trkpt lat="39.1285517" lon="8.7324573"><ele>219.0</ele><time>2026-03-22T09:19:13.877Z</time></trkpt><trkpt lat="39.1284923" lon="8.7325038"><ele>219.0</ele><time>2026-03-22T09:19:14.876Z</time></trkpt><trkpt lat="39.1284093" lon="8.7326204"><ele>219.0</ele><time>2026-03-22T09:19:16.876Z</time></trkpt><trkpt lat="39.1283641" lon="8.7326796"><ele>219.0</ele><time>2026-03-22T09:19:17.876Z</time></trkpt><trkpt lat="39.1283084" lon="8.7327347"><ele>219.0</ele><time>2026-03-22T09:19:18.877Z</time></trkpt><trkpt lat="39.1282423" lon="8.7327798"><ele>219.0</ele><time>2026-03-22T09:19:19.877Z</time></trkpt><trkpt lat="39.1281759" lon="8.7328169"><ele>219.0</ele><time>2026-03-22T09:19:20.877Z</time></trkpt><trkpt lat="39.1281183" lon="8.7328578"><ele>219.0</ele><time>2026-03-22T09:19:21.876Z</time></trkpt><trkpt lat="39.1280569" lon="8.732895"><ele>219.0</ele><time>2026-03-22T09:19:22.876Z</time></trkpt><trkpt lat="39.1279947" lon="8.7329359"><ele>219.0</ele><time>2026-03-22T09:19:23.876Z</time></trkpt><trkpt lat="39.1279356" lon="8.7329788"><ele>218.2</ele><time>2026-03-22T09:19:24.876Z</time></trkpt><trkpt lat="39.1278758" lon="8.7330155"><ele>217.39999999999998</ele><time>2026-03-22T09:19:25.876Z</time></trkpt><trkpt lat="39.1277565" lon="8.7330793"><ele>216.6</ele><time>2026-03-22T09:19:27.877Z</time></trkpt><trkpt lat="39.1276966" lon="8.7331106"><ele>215.8</ele><time>2026-03-22T09:19:28.876Z</time></trkpt><trkpt lat="39.1276407" lon="8.7331548"><ele>215.0</ele><time>2026-03-22T09:19:29.877Z</time></trkpt><trkpt lat="39.1275345" lon="8.7332378"><ele>215.0</ele><time>2026-03-22T09:19:31.876Z</time></trkpt><trkpt lat="39.1274691" lon="8.733283"><ele>215.0</ele><time>2026-03-22T09:19:32.876Z</time></trkpt><trkpt lat="39.1274083" lon="8.7333328"><ele>215.0</ele><time>2026-03-22T09:19:33.877Z</time></trkpt><trkpt lat="39.1273096" lon="8.7334159"><ele>215.0</ele><time>2026-03-22T09:19:35.876Z</time></trkpt><trkpt lat="39.127211" lon="8.7335089"><ele>215.0</ele><time>2026-03-22T09:19:37.876Z</time></trkpt><trkpt lat="39.1271142" lon="8.7335997"><ele>215.5</ele><time>2026-03-22T09:19:39.876Z</time></trkpt><trkpt lat="39.1270133" lon="8.7336781"><ele>216.0</ele><time>2026-03-22T09:19:41.877Z</time></trkpt><trkpt lat="39.1269081" lon="8.733719"><ele>216.5</ele><time>2026-03-22T09:19:43.876Z</time></trkpt><trkpt lat="39.126797" lon="8.7337455"><ele>217.0</ele><time>2026-03-22T09:19:45.877Z</time></trkpt><trkpt lat="39.1266882" lon="8.7337556"><ele>216.99999999999997</ele><time>2026-03-22T09:19:47.876Z</time></trkpt><trkpt lat="39.1265902" lon="8.7337891"><ele>217.0</ele><time>2026-03-22T09:19:49.877Z</time></trkpt><trkpt lat="39.126496" lon="8.7338145"><ele>217.0</ele><time>2026-03-22T09:19:51.876Z</time></trkpt><trkpt lat="39.126414" lon="8.7338388"><ele>217.0</ele><time>2026-03-22T09:19:53.876Z</time></trkpt><trkpt lat="39.1263399" lon="8.7338536"><ele>216.99999999999997</ele><time>2026-03-22T09:19:55.877Z</time></trkpt><trkpt lat="39.1262516" lon="8.7338792"><ele>217.0</ele><time>2026-03-22T09:19:57.876Z</time></trkpt><trkpt lat="39.1261709" lon="8.7338866"><ele>216.2</ele><time>2026-03-22T09:19:59.877Z</time></trkpt><trkpt lat="39.1260725" lon="8.7339036"><ele>215.39999999999998</ele><time>2026-03-22T09:20:01.877Z</time></trkpt><trkpt lat="39.1259438" lon="8.733893"><ele>214.60000000000002</ele><time>2026-03-22T09:20:03.876Z</time></trkpt><trkpt lat="39.1258356" lon="8.733912"><ele>213.8</ele><time>2026-03-22T09:20:05.876Z</time></trkpt><trkpt lat="39.1257699" lon="8.7339398"><ele>213.0</ele><time>2026-03-22T09:20:06.877Z</time></trkpt><trkpt lat="39.1257147" lon="8.7339967"><ele>212.33333333333334</ele><time>2026-03-22T09:20:07.876Z</time></trkpt><trkpt lat="39.1256655" lon="8.7340579"><ele>211.66666666666669</ele><time>2026-03-22T09:20:08.876Z</time></trkpt><trkpt lat="39.1255611" lon="8.7341786"><ele>211.0</ele><time>2026-03-22T09:20:10.876Z</time></trkpt><trkpt lat="39.1254981" lon="8.7342187"><ele>210.33333333333334</ele><time>2026-03-22T09:20:11.877Z</time></trkpt><trkpt lat="39.1254436" lon="8.7342893"><ele>209.66666666666669</ele><time>2026-03-22T09:20:12.876Z</time></trkpt><trkpt lat="39.125386" lon="8.7343427"><ele>209.0</ele><time>2026-03-22T09:20:13.876Z</time></trkpt><trkpt lat="39.1253259" lon="8.7343731"><ele>209.00000000000003</ele><time>2026-03-22T09:20:14.876Z</time></trkpt><trkpt lat="39.1252632" lon="8.7344167"><ele>209.0</ele><time>2026-03-22T09:20:15.877Z</time></trkpt><trkpt lat="39.1252082" lon="8.7344798"><ele>209.0</ele><time>2026-03-22T09:20:16.877Z</time></trkpt><trkpt lat="39.1251066" lon="8.7345615"><ele>209.0</ele><time>2026-03-22T09:20:18.876Z</time></trkpt><trkpt lat="39.1250378" lon="8.7346486"><ele>209.00000000000003</ele><time>2026-03-22T09:20:20.876Z</time></trkpt><trkpt lat="39.1249729" lon="8.734673"><ele>209.0</ele><time>2026-03-22T09:20:22.877Z</time></trkpt><trkpt lat="39.1248866" lon="8.7346658"><ele>208.66666666666669</ele><time>2026-03-22T09:20:24.876Z</time></trkpt><trkpt lat="39.1247982" lon="8.7346643"><ele>208.33333333333334</ele><time>2026-03-22T09:20:26.876Z</time></trkpt><trkpt lat="39.1247125" lon="8.7346653"><ele>208.0</ele><time>2026-03-22T09:20:28.876Z</time></trkpt><trkpt lat="39.1246325" lon="8.7346901"><ele>207.66666666666669</ele><time>2026-03-22T09:20:30.876Z</time></trkpt><trkpt lat="39.1245555" lon="8.734705"><ele>207.33333333333334</ele><time>2026-03-22T09:20:32.877Z</time></trkpt><trkpt lat="39.1244766" lon="8.7347181"><ele>207.0</ele><time>2026-03-22T09:20:34.876Z</time></trkpt><trkpt lat="39.1243989" lon="8.7347441"><ele>207.0</ele><time>2026-03-22T09:20:36.876Z</time></trkpt><trkpt lat="39.1243161" lon="8.7347784"><ele>207.0</ele><time>2026-03-22T09:20:38.877Z</time></trkpt><trkpt lat="39.1242361" lon="8.7348127"><ele>207.0</ele><time>2026-03-22T09:20:40.876Z</time></trkpt><trkpt lat="39.1241539" lon="8.7347754"><ele>207.0</ele><time>2026-03-22T09:20:42.876Z</time></trkpt><trkpt lat="39.1240837" lon="8.7347086"><ele>207.0</ele><time>2026-03-22T09:20:44.876Z</time></trkpt><trkpt lat="39.1240292" lon="8.734622"><ele>207.0</ele><time>2026-03-22T09:20:46.877Z</time></trkpt><trkpt lat="39.1239836" lon="8.7345268"><ele>209.0</ele><time>2026-03-22T09:20:48.877Z</time></trkpt><trkpt lat="39.1239217" lon="8.7344263"><ele>211.0</ele><time>2026-03-22T09:20:50.876Z</time></trkpt><trkpt lat="39.1238322" lon="8.7343592"><ele>213.0</ele><time>2026-03-22T09:20:52.876Z</time></trkpt><trkpt lat="39.1237797" lon="8.7342461"><ele>215.0</ele><time>2026-03-22T09:20:54.876Z</time></trkpt><trkpt lat="39.1237331" lon="8.7341075"><ele>217.0</ele><time>2026-03-22T09:20:56.876Z</time></trkpt><trkpt lat="39.1236817" lon="8.7339866"><ele>217.0</ele><time>2026-03-22T09:20:58.876Z</time></trkpt><trkpt lat="39.1236395" lon="8.7338699"><ele>217.0</ele><time>2026-03-22T09:21:00.876Z</time></trkpt><trkpt lat="39.1235813" lon="8.7337388"><ele>217.0</ele><time>2026-03-22T09:21:02.877Z</time></trkpt><trkpt lat="39.1235218" lon="8.7336194"><ele>217.0</ele><time>2026-03-22T09:21:04.876Z</time></trkpt><trkpt lat="39.123481" lon="8.7334845"><ele>217.0</ele><time>2026-03-22T09:21:06.876Z</time></trkpt><trkpt lat="39.1234367" lon="8.7333612"><ele>217.39999999999998</ele><time>2026-03-22T09:21:08.877Z</time></trkpt><trkpt lat="39.1233803" lon="8.7332515"><ele>217.79999999999998</ele><time>2026-03-22T09:21:10.876Z</time></trkpt><trkpt lat="39.1233142" lon="8.7331596"><ele>218.2</ele><time>2026-03-22T09:21:12.876Z</time></trkpt><trkpt lat="39.1232506" lon="8.7330603"><ele>218.6</ele><time>2026-03-22T09:21:14.876Z</time></trkpt><trkpt lat="39.1231901" lon="8.7329442"><ele>219.0</ele><time>2026-03-22T09:21:16.876Z</time></trkpt><trkpt lat="39.1231207" lon="8.7328375"><ele>219.0</ele><time>2026-03-22T09:21:18.877Z</time></trkpt><trkpt lat="39.1230586" lon="8.732742"><ele>218.99999999999997</ele><time>2026-03-22T09:21:20.877Z</time></trkpt><trkpt lat="39.1230035" lon="8.7326553"><ele>218.99999999999997</ele><time>2026-03-22T09:21:22.876Z</time></trkpt><trkpt lat="39.1229339" lon="8.7325717"><ele>219.0</ele><time>2026-03-22T09:21:24.876Z</time></trkpt><trkpt lat="39.1228562" lon="8.7324994"><ele>219.0</ele><time>2026-03-22T09:21:26.876Z</time></trkpt><trkpt lat="39.1227849" lon="8.7324374"><ele>215.6</ele><time>2026-03-22T09:21:28.877Z</time></trkpt><trkpt lat="39.1227263" lon="8.7323432"><ele>212.2</ele><time>2026-03-22T09:21:30.876Z</time></trkpt><trkpt lat="39.1226908" lon="8.7322293"><ele>208.79999999999998</ele><time>2026-03-22T09:21:33.876Z</time></trkpt><trkpt lat="39.122644" lon="8.7321007"><ele>205.39999999999998</ele><time>2026-03-22T09:21:35.876Z</time></trkpt><trkpt lat="39.1226054" lon="8.7319734"><ele>202.0</ele><time>2026-03-22T09:21:37.876Z</time></trkpt><trkpt lat="39.1225853" lon="8.7318536"><ele>202.0</ele><time>2026-03-22T09:21:39.876Z</time></trkpt><trkpt lat="39.1225406" lon="8.7317328"><ele>202.0</ele><time>2026-03-22T09:21:41.876Z</time></trkpt><trkpt lat="39.1224979" lon="8.7316637"><ele>202.0</ele><time>2026-03-22T09:21:42.876Z</time></trkpt><trkpt lat="39.122483" lon="8.7315827"><ele>202.0</ele><time>2026-03-22T09:21:43.876Z</time></trkpt><trkpt lat="39.1224276" lon="8.7314339"><ele>202.0</ele><time>2026-03-22T09:21:45.876Z</time></trkpt><trkpt lat="39.1223666" lon="8.7313063"><ele>202.0</ele><time>2026-03-22T09:21:47.876Z</time></trkpt><trkpt lat="39.122328" lon="8.7312023"><ele>202.0</ele><time>2026-03-22T09:21:49.877Z</time></trkpt><trkpt lat="39.1222705" lon="8.7310907"><ele>202.0</ele><time>2026-03-22T09:21:51.876Z</time></trkpt><trkpt lat="39.1222102" lon="8.7309854"><ele>202.0</ele><time>2026-03-22T09:21:53.876Z</time></trkpt><trkpt lat="39.1221927" lon="8.7308865"><ele>202.0</ele><time>2026-03-22T09:21:55.876Z</time></trkpt><trkpt lat="39.1221395" lon="8.7307655"><ele>200.33333333333331</ele><time>2026-03-22T09:21:57.876Z</time></trkpt><trkpt lat="39.1221187" lon="8.7306829"><ele>198.66666666666666</ele><time>2026-03-22T09:21:58.877Z</time></trkpt><trkpt lat="39.1220684" lon="8.7305394"><ele>197.0</ele><time>2026-03-22T09:22:00.876Z</time></trkpt><trkpt lat="39.1220447" lon="8.7304612"><ele>195.33333333333331</ele><time>2026-03-22T09:22:01.876Z</time></trkpt><trkpt lat="39.122009" lon="8.7303804"><ele>193.66666666666666</ele><time>2026-03-22T09:22:02.876Z</time></trkpt><trkpt lat="39.1219875" lon="8.7302979"><ele>192.0</ele><time>2026-03-22T09:22:03.877Z</time></trkpt><trkpt lat="39.1219498" lon="8.730216"><ele>191.33333333333334</ele><time>2026-03-22T09:22:04.877Z</time></trkpt><trkpt lat="39.1219153" lon="8.7301449"><ele>190.66666666666666</ele><time>2026-03-22T09:22:05.876Z</time></trkpt><trkpt lat="39.1218649" lon="8.7300376"><ele>190.0</ele><time>2026-03-22T09:22:07.876Z</time></trkpt><trkpt lat="39.121822" lon="8.7299473"><ele>189.33333333333331</ele><time>2026-03-22T09:22:09.876Z</time></trkpt><trkpt lat="39.121762" lon="8.7298798"><ele>188.66666666666666</ele><time>2026-03-22T09:22:11.876Z</time></trkpt><trkpt lat="39.1216893" lon="8.7298143"><ele>188.0</ele><time>2026-03-22T09:22:13.876Z</time></trkpt><trkpt lat="39.1216206" lon="8.729749"><ele>188.4</ele><time>2026-03-22T09:22:15.877Z</time></trkpt><trkpt lat="39.1215484" lon="8.7296872"><ele>188.8</ele><time>2026-03-22T09:22:17.877Z</time></trkpt><trkpt lat="39.1214715" lon="8.7296291"><ele>189.2</ele><time>2026-03-22T09:22:19.876Z</time></trkpt><trkpt lat="39.1213877" lon="8.7295756"><ele>189.6</ele><time>2026-03-22T09:22:21.877Z</time></trkpt><trkpt lat="39.1212852" lon="8.7295155"><ele>190.0</ele><time>2026-03-22T09:22:23.876Z</time></trkpt><trkpt lat="39.1211907" lon="8.7294574"><ele>190.0</ele><time>2026-03-22T09:22:25.876Z</time></trkpt><trkpt lat="39.1211027" lon="8.729407"><ele>190.0</ele><time>2026-03-22T09:22:27.876Z</time></trkpt><trkpt lat="39.1210047" lon="8.7293623"><ele>190.0</ele><time>2026-03-22T09:22:29.876Z</time></trkpt><trkpt lat="39.120935" lon="8.7293414"><ele>190.0</ele><time>2026-03-22T09:22:30.877Z</time></trkpt><trkpt lat="39.1208616" lon="8.7293223"><ele>190.0</ele><time>2026-03-22T09:22:31.876Z</time></trkpt><trkpt lat="39.1207989" lon="8.7293063"><ele>190.0</ele><time>2026-03-22T09:22:32.876Z</time></trkpt><trkpt lat="39.12073" lon="8.7292775"><ele>189.16666666666669</ele><time>2026-03-22T09:22:33.876Z</time></trkpt><trkpt lat="39.1206587" lon="8.729261"><ele>188.33333333333334</ele><time>2026-03-22T09:22:34.876Z</time></trkpt><trkpt lat="39.1205252" lon="8.7292"><ele>187.5</ele><time>2026-03-22T09:22:36.877Z</time></trkpt><trkpt lat="39.1204552" lon="8.7292006"><ele>186.66666666666666</ele><time>2026-03-22T09:22:37.876Z</time></trkpt><trkpt lat="39.1203948" lon="8.7291718"><ele>185.83333333333331</ele><time>2026-03-22T09:22:38.876Z</time></trkpt><trkpt lat="39.1203347" lon="8.729144"><ele>185.0</ele><time>2026-03-22T09:22:39.876Z</time></trkpt><trkpt lat="39.1202702" lon="8.72913"><ele>185.0</ele><time>2026-03-22T09:22:40.876Z</time></trkpt><trkpt lat="39.1202012" lon="8.7291304"><ele>185.0</ele><time>2026-03-22T09:22:41.876Z</time></trkpt><trkpt lat="39.1201328" lon="8.7291191"><ele>185.0</ele><time>2026-03-22T09:22:42.876Z</time></trkpt><trkpt lat="39.120072" lon="8.7290926"><ele>185.0</ele><time>2026-03-22T09:22:43.876Z</time></trkpt><trkpt lat="39.1200124" lon="8.7290464"><ele>185.0</ele><time>2026-03-22T09:22:44.876Z</time></trkpt><trkpt lat="39.1199192" lon="8.7289641"><ele>185.0</ele><time>2026-03-22T09:22:46.877Z</time></trkpt><trkpt lat="39.1198686" lon="8.7288884"><ele>185.2</ele><time>2026-03-22T09:22:48.876Z</time></trkpt><trkpt lat="39.1198054" lon="8.7287931"><ele>185.4</ele><time>2026-03-22T09:22:50.876Z</time></trkpt><trkpt lat="39.1197369" lon="8.7287455"><ele>185.60000000000002</ele><time>2026-03-22T09:22:52.877Z</time></trkpt><trkpt lat="39.11968" lon="8.7286658"><ele>185.8</ele><time>2026-03-22T09:22:54.877Z</time></trkpt><trkpt lat="39.119617" lon="8.7285842"><ele>186.0</ele><time>2026-03-22T09:22:56.876Z</time></trkpt><trkpt lat="39.1195362" lon="8.7285036"><ele>186.0</ele><time>2026-03-22T09:22:58.876Z</time></trkpt><trkpt lat="39.1194737" lon="8.7283962"><ele>186.0</ele><time>2026-03-22T09:23:00.877Z</time></trkpt><trkpt lat="39.1193955" lon="8.7283197"><ele>186.0</ele><time>2026-03-22T09:23:02.877Z</time></trkpt><trkpt lat="39.1193499" lon="8.7282582"><ele>186.0</ele><time>2026-03-22T09:23:03.876Z</time></trkpt><trkpt lat="39.1192867" lon="8.7281477"><ele>186.0</ele><time>2026-03-22T09:23:05.876Z</time></trkpt><trkpt lat="39.1192023" lon="8.7280402"><ele>186.0</ele><time>2026-03-22T09:23:07.877Z</time></trkpt><trkpt lat="39.1191256" lon="8.7279316"><ele>186.0</ele><time>2026-03-22T09:23:09.877Z</time></trkpt><trkpt lat="39.1190544" lon="8.7278374"><ele>186.0</ele><time>2026-03-22T09:23:11.877Z</time></trkpt><trkpt lat="39.1189676" lon="8.7277463"><ele>186.0</ele><time>2026-03-22T09:23:13.877Z</time></trkpt><trkpt lat="39.1189174" lon="8.7276926"><ele>186.0</ele><time>2026-03-22T09:23:14.876Z</time></trkpt><trkpt lat="39.1188241" lon="8.7276121"><ele>185.4</ele><time>2026-03-22T09:23:16.876Z</time></trkpt><trkpt lat="39.1187432" lon="8.7275431"><ele>184.8</ele><time>2026-03-22T09:23:18.876Z</time></trkpt><trkpt lat="39.1186546" lon="8.7274884"><ele>184.20000000000002</ele><time>2026-03-22T09:23:20.877Z</time></trkpt><trkpt lat="39.118559" lon="8.7274279"><ele>183.60000000000002</ele><time>2026-03-22T09:23:22.876Z</time></trkpt><trkpt lat="39.1184623" lon="8.7273698"><ele>183.0</ele><time>2026-03-22T09:23:24.877Z</time></trkpt><trkpt lat="39.1183483" lon="8.7272951"><ele>183.0</ele><time>2026-03-22T09:23:26.876Z</time></trkpt><trkpt lat="39.1182834" lon="8.7272675"><ele>183.0</ele><time>2026-03-22T09:23:27.877Z</time></trkpt><trkpt lat="39.1182241" lon="8.7272294"><ele>183.0</ele><time>2026-03-22T09:23:28.876Z</time></trkpt><trkpt lat="39.118108" lon="8.7271632"><ele>183.0</ele><time>2026-03-22T09:23:30.876Z</time></trkpt><trkpt lat="39.1180416" lon="8.7271255"><ele>183.0</ele><time>2026-03-22T09:23:31.876Z</time></trkpt><trkpt lat="39.1179762" lon="8.7270961"><ele>183.0</ele><time>2026-03-22T09:23:32.876Z</time></trkpt><trkpt lat="39.1179064" lon="8.7270476"><ele>183.0</ele><time>2026-03-22T09:23:33.876Z</time></trkpt><trkpt lat="39.1178229" lon="8.726995"><ele>183.0</ele><time>2026-03-22T09:23:34.877Z</time></trkpt><trkpt lat="39.1177497" lon="8.7269376"><ele>183.0</ele><time>2026-03-22T09:23:35.877Z</time></trkpt><trkpt lat="39.1176854" lon="8.7268974"><ele>183.0</ele><time>2026-03-22T09:23:36.876Z</time></trkpt><trkpt lat="39.1176091" lon="8.7268495"><ele>183.0</ele><time>2026-03-22T09:23:37.877Z</time></trkpt><trkpt lat="39.1175301" lon="8.7267927"><ele>183.0</ele><time>2026-03-22T09:23:38.877Z</time></trkpt><trkpt lat="39.1174603" lon="8.726734"><ele>181.60000000000002</ele><time>2026-03-22T09:23:39.876Z</time></trkpt><trkpt lat="39.117394" lon="8.7266714"><ele>180.20000000000002</ele><time>2026-03-22T09:23:40.876Z</time></trkpt><trkpt lat="39.117323" lon="8.7266048"><ele>178.8</ele><time>2026-03-22T09:23:41.877Z</time></trkpt><trkpt lat="39.1172518" lon="8.7265259"><ele>177.4</ele><time>2026-03-22T09:23:42.876Z</time></trkpt><trkpt lat="39.1171841" lon="8.7264456"><ele>176.0</ele><time>2026-03-22T09:23:43.876Z</time></trkpt><trkpt lat="39.1171181" lon="8.7263508"><ele>176.0</ele><time>2026-03-22T09:23:44.876Z</time></trkpt><trkpt lat="39.1170599" lon="8.7262645"><ele>176.0</ele><time>2026-03-22T09:23:45.877Z</time></trkpt><trkpt lat="39.11701" lon="8.7261713"><ele>176.0</ele><time>2026-03-22T09:23:46.877Z</time></trkpt><trkpt lat="39.1169565" lon="8.7260778"><ele>176.0</ele><time>2026-03-22T09:23:47.876Z</time></trkpt><trkpt lat="39.1168995" lon="8.725975"><ele>176.0</ele><time>2026-03-22T09:23:48.877Z</time></trkpt><trkpt lat="39.1168434" lon="8.7258791"><ele>174.60000000000002</ele><time>2026-03-22T09:23:49.877Z</time></trkpt><trkpt lat="39.1167769" lon="8.7257888"><ele>173.2</ele><time>2026-03-22T09:23:50.877Z</time></trkpt><trkpt lat="39.1167162" lon="8.7256935"><ele>171.8</ele><time>2026-03-22T09:23:51.876Z</time></trkpt><trkpt lat="39.1166485" lon="8.7256028"><ele>170.39999999999998</ele><time>2026-03-22T09:23:52.876Z</time></trkpt><trkpt lat="39.1165838" lon="8.7255166"><ele>169.0</ele><time>2026-03-22T09:23:53.876Z</time></trkpt><trkpt lat="39.1165139" lon="8.7254245"><ele>168.39999999999998</ele><time>2026-03-22T09:23:54.877Z</time></trkpt><trkpt lat="39.116435" lon="8.7253292"><ele>167.8</ele><time>2026-03-22T09:23:55.877Z</time></trkpt><trkpt lat="39.1163591" lon="8.725238"><ele>167.2</ele><time>2026-03-22T09:23:56.876Z</time></trkpt><trkpt lat="39.1162895" lon="8.7251485"><ele>166.60000000000002</ele><time>2026-03-22T09:23:57.877Z</time></trkpt><trkpt lat="39.1162219" lon="8.7250618"><ele>166.0</ele><time>2026-03-22T09:23:58.877Z</time></trkpt><trkpt lat="39.1161387" lon="8.7249858"><ele>165.20000000000002</ele><time>2026-03-22T09:23:59.876Z</time></trkpt><trkpt lat="39.1160659" lon="8.7249104"><ele>164.4</ele><time>2026-03-22T09:24:00.876Z</time></trkpt><trkpt lat="39.1159829" lon="8.7248537"><ele>163.6</ele><time>2026-03-22T09:24:01.876Z</time></trkpt><trkpt lat="39.1158984" lon="8.7247828"><ele>162.8</ele><time>2026-03-22T09:24:02.877Z</time></trkpt><trkpt lat="39.1158128" lon="8.7247248"><ele>162.0</ele><time>2026-03-22T09:24:03.876Z</time></trkpt><trkpt lat="39.1157143" lon="8.7246651"><ele>161.4</ele><time>2026-03-22T09:24:04.876Z</time></trkpt><trkpt lat="39.1156325" lon="8.7246138"><ele>160.79999999999998</ele><time>2026-03-22T09:24:05.876Z</time></trkpt><trkpt lat="39.1155467" lon="8.7245597"><ele>160.2</ele><time>2026-03-22T09:24:06.876Z</time></trkpt><trkpt lat="39.1154705" lon="8.7245133"><ele>159.6</ele><time>2026-03-22T09:24:07.877Z</time></trkpt><trkpt lat="39.1153818" lon="8.7244716"><ele>159.0</ele><time>2026-03-22T09:24:08.877Z</time></trkpt><trkpt lat="39.1153041" lon="8.7244165"><ele>158.83333333333334</ele><time>2026-03-22T09:24:09.876Z</time></trkpt><trkpt lat="39.1152178" lon="8.7243704"><ele>158.66666666666666</ele><time>2026-03-22T09:24:10.876Z</time></trkpt><trkpt lat="39.1151362" lon="8.7243213"><ele>158.5</ele><time>2026-03-22T09:24:11.876Z</time></trkpt><trkpt lat="39.1150549" lon="8.7242884"><ele>158.33333333333331</ele><time>2026-03-22T09:24:12.876Z</time></trkpt><trkpt lat="39.1149779" lon="8.7242487"><ele>158.16666666666666</ele><time>2026-03-22T09:24:13.876Z</time></trkpt><trkpt lat="39.1148991" lon="8.7241866"><ele>158.0</ele><time>2026-03-22T09:24:14.877Z</time></trkpt><trkpt lat="39.1148221" lon="8.7241373"><ele>157.6</ele><time>2026-03-22T09:24:15.876Z</time></trkpt><trkpt lat="39.1147317" lon="8.7240959"><ele>157.20000000000002</ele><time>2026-03-22T09:24:16.876Z</time></trkpt><trkpt lat="39.1146492" lon="8.724054"><ele>156.8</ele><time>2026-03-22T09:24:17.876Z</time></trkpt><trkpt lat="39.1145644" lon="8.7240191"><ele>156.4</ele><time>2026-03-22T09:24:18.877Z</time></trkpt><trkpt lat="39.1144735" lon="8.7240078"><ele>156.0</ele><time>2026-03-22T09:24:19.877Z</time></trkpt><trkpt lat="39.1143875" lon="8.723978"><ele>156.0</ele><time>2026-03-22T09:24:20.876Z</time></trkpt><trkpt lat="39.1143052" lon="8.7239784"><ele>156.0</ele><time>2026-03-22T09:24:21.876Z</time></trkpt><trkpt lat="39.1142215" lon="8.7239866"><ele>156.0</ele><time>2026-03-22T09:24:22.876Z</time></trkpt><trkpt lat="39.1141154" lon="8.7240023"><ele>156.0</ele><time>2026-03-22T09:24:23.876Z</time></trkpt><trkpt lat="39.1140317" lon="8.7240177"><ele>156.0</ele><time>2026-03-22T09:24:24.876Z</time></trkpt><trkpt lat="39.1139553" lon="8.7240375"><ele>156.0</ele><time>2026-03-22T09:24:25.876Z</time></trkpt><trkpt lat="39.1138717" lon="8.7240784"><ele>155.5</ele><time>2026-03-22T09:24:26.876Z</time></trkpt><trkpt lat="39.1137957" lon="8.7241088"><ele>155.0</ele><time>2026-03-22T09:24:27.876Z</time></trkpt><trkpt lat="39.1137198" lon="8.7241385"><ele>154.5</ele><time>2026-03-22T09:24:28.876Z</time></trkpt><trkpt lat="39.1136461" lon="8.7241612"><ele>154.0</ele><time>2026-03-22T09:24:29.876Z</time></trkpt><trkpt lat="39.1135751" lon="8.7241833"><ele>153.5</ele><time>2026-03-22T09:24:30.876Z</time></trkpt><trkpt lat="39.1134965" lon="8.724202"><ele>153.0</ele><time>2026-03-22T09:24:31.877Z</time></trkpt><trkpt lat="39.1134259" lon="8.7242056"><ele>153.0</ele><time>2026-03-22T09:24:32.877Z</time></trkpt><trkpt lat="39.1133594" lon="8.724216"><ele>153.0</ele><time>2026-03-22T09:24:33.876Z</time></trkpt><trkpt lat="39.1132873" lon="8.7242114"><ele>153.0</ele><time>2026-03-22T09:24:34.877Z</time></trkpt><trkpt lat="39.1132193" lon="8.7242125"><ele>153.0</ele><time>2026-03-22T09:24:35.877Z</time></trkpt><trkpt lat="39.1131491" lon="8.7242021"><ele>153.0</ele><time>2026-03-22T09:24:36.876Z</time></trkpt><trkpt lat="39.1130807" lon="8.7241938"><ele>153.0</ele><time>2026-03-22T09:24:37.877Z</time></trkpt><trkpt lat="39.1130161" lon="8.7241785"><ele>153.0</ele><time>2026-03-22T09:24:38.876Z</time></trkpt><trkpt lat="39.1129501" lon="8.7241642"><ele>152.66666666666666</ele><time>2026-03-22T09:24:39.877Z</time></trkpt><trkpt lat="39.1128797" lon="8.7241486"><ele>152.33333333333334</ele><time>2026-03-22T09:24:40.877Z</time></trkpt><trkpt lat="39.1128148" lon="8.724159"><ele>152.0</ele><time>2026-03-22T09:24:41.877Z</time></trkpt><trkpt lat="39.112691" lon="8.7241229"><ele>151.66666666666669</ele><time>2026-03-22T09:24:43.876Z</time></trkpt><trkpt lat="39.1126268" lon="8.7240969"><ele>151.33333333333334</ele><time>2026-03-22T09:24:44.876Z</time></trkpt><trkpt lat="39.1125544" lon="8.7240928"><ele>151.0</ele><time>2026-03-22T09:24:45.876Z</time></trkpt><trkpt lat="39.1124683" lon="8.7240993"><ele>150.8</ele><time>2026-03-22T09:24:46.877Z</time></trkpt><trkpt lat="39.1123374" lon="8.7240918"><ele>150.6</ele><time>2026-03-22T09:24:48.877Z</time></trkpt><trkpt lat="39.112273" lon="8.7240562"><ele>150.4</ele><time>2026-03-22T09:24:49.876Z</time></trkpt><trkpt lat="39.1121563" lon="8.7239883"><ele>150.2</ele><time>2026-03-22T09:24:51.876Z</time></trkpt><trkpt lat="39.1120921" lon="8.7239408"><ele>150.0</ele><time>2026-03-22T09:24:52.877Z</time></trkpt><trkpt lat="39.1119925" lon="8.7238278"><ele>149.99999999999997</ele><time>2026-03-22T09:24:54.876Z</time></trkpt><trkpt lat="39.1119401" lon="8.7237692"><ele>150.0</ele><time>2026-03-22T09:24:55.877Z</time></trkpt><trkpt lat="39.111886" lon="8.7237059"><ele>150.0</ele><time>2026-03-22T09:24:56.876Z</time></trkpt><trkpt lat="39.111817" lon="8.7236663"><ele>150.0</ele><time>2026-03-22T09:24:57.877Z</time></trkpt><trkpt lat="39.1117534" lon="8.7236119"><ele>150.0</ele><time>2026-03-22T09:24:58.876Z</time></trkpt><trkpt lat="39.1116892" lon="8.7235632"><ele>149.99999999999997</ele><time>2026-03-22T09:24:59.877Z</time></trkpt><trkpt lat="39.1116273" lon="8.7235147"><ele>150.0</ele><time>2026-03-22T09:25:00.877Z</time></trkpt><trkpt lat="39.1115706" lon="8.7234644"><ele>149.5</ele><time>2026-03-22T09:25:01.876Z</time></trkpt><trkpt lat="39.1115154" lon="8.7234029"><ele>149.0</ele><time>2026-03-22T09:25:02.876Z</time></trkpt><trkpt lat="39.111462" lon="8.7233445"><ele>148.5</ele><time>2026-03-22T09:25:03.876Z</time></trkpt><trkpt lat="39.1113392" lon="8.7232455"><ele>148.0</ele><time>2026-03-22T09:25:05.877Z</time></trkpt><trkpt lat="39.1112821" lon="8.7231902"><ele>147.5</ele><time>2026-03-22T09:25:06.876Z</time></trkpt><trkpt lat="39.1112201" lon="8.7231456"><ele>147.0</ele><time>2026-03-22T09:25:07.876Z</time></trkpt><trkpt lat="39.1111469" lon="8.723098"><ele>147.0</ele><time>2026-03-22T09:25:08.877Z</time></trkpt><trkpt lat="39.1110804" lon="8.7230653"><ele>147.0</ele><time>2026-03-22T09:25:09.876Z</time></trkpt><trkpt lat="39.111008" lon="8.7230307"><ele>147.0</ele><time>2026-03-22T09:25:10.877Z</time></trkpt><trkpt lat="39.1109371" lon="8.7229987"><ele>147.0</ele><time>2026-03-22T09:25:11.876Z</time></trkpt><trkpt lat="39.1108697" lon="8.7229673"><ele>147.0</ele><time>2026-03-22T09:25:12.877Z</time></trkpt><trkpt lat="39.1107911" lon="8.7229336"><ele>147.0</ele><time>2026-03-22T09:25:13.876Z</time></trkpt><trkpt lat="39.1107053" lon="8.7229078"><ele>146.57142857142858</ele><time>2026-03-22T09:25:14.877Z</time></trkpt><trkpt lat="39.1106328" lon="8.7228789"><ele>146.14285714285714</ele><time>2026-03-22T09:25:15.876Z</time></trkpt><trkpt lat="39.1105622" lon="8.7228505"><ele>145.71428571428572</ele><time>2026-03-22T09:25:16.876Z</time></trkpt><trkpt lat="39.1104911" lon="8.7228244"><ele>145.28571428571428</ele><time>2026-03-22T09:25:17.876Z</time></trkpt><trkpt lat="39.1104219" lon="8.7227918"><ele>144.85714285714286</ele><time>2026-03-22T09:25:18.876Z</time></trkpt><trkpt lat="39.1103591" lon="8.7227636"><ele>144.42857142857144</ele><time>2026-03-22T09:25:19.876Z</time></trkpt><trkpt lat="39.1102953" lon="8.7227282"><ele>144.0</ele><time>2026-03-22T09:25:20.876Z</time></trkpt><trkpt lat="39.110232" lon="8.7226947"><ele>143.57142857142858</ele><time>2026-03-22T09:25:21.876Z</time></trkpt><trkpt lat="39.1101535" lon="8.7226646"><ele>143.14285714285714</ele><time>2026-03-22T09:25:22.877Z</time></trkpt><trkpt lat="39.1100821" lon="8.7226402"><ele>142.71428571428572</ele><time>2026-03-22T09:25:23.876Z</time></trkpt><trkpt lat="39.1100165" lon="8.7226184"><ele>142.28571428571428</ele><time>2026-03-22T09:25:24.877Z</time></trkpt><trkpt lat="39.1099425" lon="8.7226037"><ele>141.85714285714286</ele><time>2026-03-22T09:25:25.876Z</time></trkpt><trkpt lat="39.1098732" lon="8.7225923"><ele>141.42857142857144</ele><time>2026-03-22T09:25:26.876Z</time></trkpt><trkpt lat="39.1098049" lon="8.7225813"><ele>141.0</ele><time>2026-03-22T09:25:27.876Z</time></trkpt><trkpt lat="39.1097269" lon="8.7225819"><ele>141.0</ele><time>2026-03-22T09:25:28.876Z</time></trkpt><trkpt lat="39.1096424" lon="8.7225736"><ele>141.0</ele><time>2026-03-22T09:25:29.876Z</time></trkpt><trkpt lat="39.1095081" lon="8.7225642"><ele>141.0</ele><time>2026-03-22T09:25:31.877Z</time></trkpt><trkpt lat="39.1094371" lon="8.7225551"><ele>141.0</ele><time>2026-03-22T09:25:32.876Z</time></trkpt><trkpt lat="39.1093655" lon="8.7225438"><ele>141.0</ele><time>2026-03-22T09:25:33.876Z</time></trkpt><trkpt lat="39.1092981" lon="8.7225206"><ele>141.0</ele><time>2026-03-22T09:25:34.876Z</time></trkpt><trkpt lat="39.1092325" lon="8.7224952"><ele>141.0</ele><time>2026-03-22T09:25:35.876Z</time></trkpt><trkpt lat="39.1091692" lon="8.722457"><ele>141.0</ele><time>2026-03-22T09:25:36.876Z</time></trkpt><trkpt lat="39.1091129" lon="8.7224106"><ele>141.0</ele><time>2026-03-22T09:25:37.876Z</time></trkpt><trkpt lat="39.1090521" lon="8.7223594"><ele>141.0</ele><time>2026-03-22T09:25:38.876Z</time></trkpt><trkpt lat="39.1090048" lon="8.7222987"><ele>141.0</ele><time>2026-03-22T09:25:39.876Z</time></trkpt><trkpt lat="39.108949" lon="8.7222324"><ele>141.0</ele><time>2026-03-22T09:25:40.876Z</time></trkpt><trkpt lat="39.1088854" lon="8.7221731"><ele>141.0</ele><time>2026-03-22T09:25:41.876Z</time></trkpt><trkpt lat="39.1087942" lon="8.7220451"><ele>141.4</ele><time>2026-03-22T09:25:43.876Z</time></trkpt><trkpt lat="39.1087398" lon="8.7219802"><ele>141.8</ele><time>2026-03-22T09:25:44.876Z</time></trkpt><trkpt lat="39.1086736" lon="8.7219043"><ele>142.20000000000002</ele><time>2026-03-22T09:25:45.876Z</time></trkpt><trkpt lat="39.1086163" lon="8.7218529"><ele>142.6</ele><time>2026-03-22T09:25:46.876Z</time></trkpt><trkpt lat="39.1084999" lon="8.7217297"><ele>143.0</ele><time>2026-03-22T09:25:48.877Z</time></trkpt><trkpt lat="39.1084487" lon="8.7216688"><ele>142.6</ele><time>2026-03-22T09:25:49.877Z</time></trkpt><trkpt lat="39.1083887" lon="8.7216106"><ele>142.20000000000002</ele><time>2026-03-22T09:25:50.876Z</time></trkpt><trkpt lat="39.1083341" lon="8.7215616"><ele>141.8</ele><time>2026-03-22T09:25:51.876Z</time></trkpt><trkpt lat="39.1082189" lon="8.7214873"><ele>141.4</ele><time>2026-03-22T09:25:53.877Z</time></trkpt><trkpt lat="39.108159" lon="8.7214486"><ele>141.0</ele><time>2026-03-22T09:25:54.876Z</time></trkpt><trkpt lat="39.1080412" lon="8.7213744"><ele>141.0</ele><time>2026-03-22T09:25:56.877Z</time></trkpt><trkpt lat="39.107915" lon="8.721325"><ele>141.0</ele><time>2026-03-22T09:25:58.877Z</time></trkpt><trkpt lat="39.1078562" lon="8.7212903"><ele>141.0</ele><time>2026-03-22T09:25:59.876Z</time></trkpt><trkpt lat="39.1077947" lon="8.721261"><ele>141.0</ele><time>2026-03-22T09:26:00.876Z</time></trkpt><trkpt lat="39.1076813" lon="8.7212078"><ele>141.0</ele><time>2026-03-22T09:26:02.876Z</time></trkpt><trkpt lat="39.1075757" lon="8.7211488"><ele>141.0</ele><time>2026-03-22T09:26:04.876Z</time></trkpt><trkpt lat="39.1074833" lon="8.7210867"><ele>141.0</ele><time>2026-03-22T09:26:06.876Z</time></trkpt><trkpt lat="39.107391" lon="8.7210326"><ele>141.0</ele><time>2026-03-22T09:26:08.876Z</time></trkpt><trkpt lat="39.1073185" lon="8.7210195"><ele>141.0</ele><time>2026-03-22T09:26:09.876Z</time></trkpt><trkpt lat="39.1072181" lon="8.7209743"><ele>141.0</ele><time>2026-03-22T09:26:11.876Z</time></trkpt><trkpt lat="39.1071107" lon="8.7209125"><ele>141.2</ele><time>2026-03-22T09:26:13.876Z</time></trkpt><trkpt lat="39.1070114" lon="8.7208278"><ele>141.39999999999998</ele><time>2026-03-22T09:26:15.876Z</time></trkpt><trkpt lat="39.106915" lon="8.7207445"><ele>141.6</ele><time>2026-03-22T09:26:17.876Z</time></trkpt><trkpt lat="39.1068583" lon="8.720701"><ele>141.79999999999998</ele><time>2026-03-22T09:26:18.876Z</time></trkpt><trkpt lat="39.1067983" lon="8.720659"><ele>142.0</ele><time>2026-03-22T09:26:19.877Z</time></trkpt><trkpt lat="39.1066963" lon="8.720582"><ele>142.0</ele><time>2026-03-22T09:26:21.877Z</time></trkpt><trkpt lat="39.1066408" lon="8.7205363"><ele>142.0</ele><time>2026-03-22T09:26:22.876Z</time></trkpt><trkpt lat="39.1065763" lon="8.7204913"><ele>142.0</ele><time>2026-03-22T09:26:23.877Z</time></trkpt><trkpt lat="39.1065229" lon="8.7204322"><ele>142.0</ele><time>2026-03-22T09:26:24.876Z</time></trkpt><trkpt lat="39.106469" lon="8.7203798"><ele>142.0</ele><time>2026-03-22T09:26:25.876Z</time></trkpt><trkpt lat="39.106414" lon="8.720327"><ele>142.0</ele><time>2026-03-22T09:26:26.876Z</time></trkpt><trkpt lat="39.1063612" lon="8.7202706"><ele>142.0</ele><time>2026-03-22T09:26:27.877Z</time></trkpt><trkpt lat="39.1063111" lon="8.7202184"><ele>141.16666666666669</ele><time>2026-03-22T09:26:28.876Z</time></trkpt><trkpt lat="39.106248" lon="8.7201814"><ele>140.33333333333334</ele><time>2026-03-22T09:26:29.876Z</time></trkpt><trkpt lat="39.1061841" lon="8.7201307"><ele>139.5</ele><time>2026-03-22T09:26:30.876Z</time></trkpt><trkpt lat="39.1060789" lon="8.7200582"><ele>138.66666666666666</ele><time>2026-03-22T09:26:32.877Z</time></trkpt><trkpt lat="39.1060194" lon="8.7200224"><ele>137.83333333333331</ele><time>2026-03-22T09:26:33.876Z</time></trkpt><trkpt lat="39.1059535" lon="8.7199943"><ele>137.0</ele><time>2026-03-22T09:26:34.876Z</time></trkpt><trkpt lat="39.1058779" lon="8.7199615"><ele>137.00000000000003</ele><time>2026-03-22T09:26:35.876Z</time></trkpt><trkpt lat="39.1058107" lon="8.7199379"><ele>137.0</ele><time>2026-03-22T09:26:36.876Z</time></trkpt><trkpt lat="39.1057379" lon="8.7199205"><ele>137.0</ele><time>2026-03-22T09:26:37.877Z</time></trkpt><trkpt lat="39.1056676" lon="8.7199004"><ele>137.0</ele><time>2026-03-22T09:26:38.876Z</time></trkpt><trkpt lat="39.1056001" lon="8.719879"><ele>137.0</ele><time>2026-03-22T09:26:39.876Z</time></trkpt><trkpt lat="39.1055326" lon="8.7198572"><ele>137.00000000000003</ele><time>2026-03-22T09:26:40.877Z</time></trkpt><trkpt lat="39.105466" lon="8.7198385"><ele>137.0</ele><time>2026-03-22T09:26:41.876Z</time></trkpt><trkpt lat="39.1054027" lon="8.7198115"><ele>137.16666666666666</ele><time>2026-03-22T09:26:42.876Z</time></trkpt><trkpt lat="39.1052782" lon="8.7197891"><ele>137.33333333333331</ele><time>2026-03-22T09:26:44.876Z</time></trkpt><trkpt lat="39.105209" lon="8.7197673"><ele>137.5</ele><time>2026-03-22T09:26:45.877Z</time></trkpt><trkpt lat="39.1051454" lon="8.7197517"><ele>137.66666666666666</ele><time>2026-03-22T09:26:46.876Z</time></trkpt><trkpt lat="39.1050707" lon="8.7197471"><ele>137.83333333333334</ele><time>2026-03-22T09:26:47.877Z</time></trkpt><trkpt lat="39.1049984" lon="8.7197329"><ele>138.0</ele><time>2026-03-22T09:26:48.877Z</time></trkpt><trkpt lat="39.1049355" lon="8.7197123"><ele>138.57142857142858</ele><time>2026-03-22T09:26:49.877Z</time></trkpt><trkpt lat="39.1048671" lon="8.719694"><ele>139.14285714285717</ele><time>2026-03-22T09:26:50.876Z</time></trkpt><trkpt lat="39.1047972" lon="8.7196661"><ele>139.71428571428572</ele><time>2026-03-22T09:26:51.877Z</time></trkpt><trkpt lat="39.1047287" lon="8.7196318"><ele>140.28571428571428</ele><time>2026-03-22T09:26:52.876Z</time></trkpt><trkpt lat="39.1046665" lon="8.7196042"><ele>140.85714285714283</ele><time>2026-03-22T09:26:53.876Z</time></trkpt><trkpt lat="39.104607" lon="8.7195533"><ele>141.42857142857142</ele><time>2026-03-22T09:26:54.876Z</time></trkpt><trkpt lat="39.1045503" lon="8.7195067"><ele>142.0</ele><time>2026-03-22T09:26:55.876Z</time></trkpt><trkpt lat="39.1044452" lon="8.7194155"><ele>140.71428571428572</ele><time>2026-03-22T09:26:57.876Z</time></trkpt><trkpt lat="39.1043762" lon="8.7193842"><ele>139.42857142857142</ele><time>2026-03-22T09:26:58.877Z</time></trkpt><trkpt lat="39.104307" lon="8.7193417"><ele>138.14285714285714</ele><time>2026-03-22T09:26:59.877Z</time></trkpt><trkpt lat="39.1042485" lon="8.7192969"><ele>136.85714285714286</ele><time>2026-03-22T09:27:00.877Z</time></trkpt><trkpt lat="39.1041904" lon="8.7192505"><ele>135.57142857142856</ele><time>2026-03-22T09:27:01.877Z</time></trkpt><trkpt lat="39.1041232" lon="8.7192271"><ele>134.28571428571428</ele><time>2026-03-22T09:27:02.876Z</time></trkpt><trkpt lat="39.1040559" lon="8.7191935"><ele>133.0</ele><time>2026-03-22T09:27:03.876Z</time></trkpt><trkpt lat="39.1039794" lon="8.7191814"><ele>133.0</ele><time>2026-03-22T09:27:04.876Z</time></trkpt><trkpt lat="39.1039018" lon="8.7191804"><ele>133.0</ele><time>2026-03-22T09:27:05.876Z</time></trkpt><trkpt lat="39.1038223" lon="8.7191865"><ele>133.0</ele><time>2026-03-22T09:27:06.876Z</time></trkpt><trkpt lat="39.1037476" lon="8.7191779"><ele>133.0</ele><time>2026-03-22T09:27:07.877Z</time></trkpt><trkpt lat="39.1036821" lon="8.7191826"><ele>133.0</ele><time>2026-03-22T09:27:08.877Z</time></trkpt><trkpt lat="39.1035992" lon="8.719188"><ele>133.0</ele><time>2026-03-22T09:27:09.876Z</time></trkpt><trkpt lat="39.1035166" lon="8.7191951"><ele>133.0</ele><time>2026-03-22T09:27:10.876Z</time></trkpt><trkpt lat="39.1034482" lon="8.7192033"><ele>133.0</ele><time>2026-03-22T09:27:11.876Z</time></trkpt><trkpt lat="39.1033675" lon="8.719223"><ele>133.0</ele><time>2026-03-22T09:27:12.876Z</time></trkpt><trkpt lat="39.1032837" lon="8.7192458"><ele>133.0</ele><time>2026-03-22T09:27:13.876Z</time></trkpt><trkpt lat="39.1032125" lon="8.7192711"><ele>133.0</ele><time>2026-03-22T09:27:14.876Z</time></trkpt><trkpt lat="39.1031498" lon="8.7192963"><ele>133.0</ele><time>2026-03-22T09:27:15.876Z</time></trkpt><trkpt lat="39.1030655" lon="8.7193249"><ele>133.33333333333334</ele><time>2026-03-22T09:27:16.877Z</time></trkpt><trkpt lat="39.1029957" lon="8.7193454"><ele>133.66666666666669</ele><time>2026-03-22T09:27:17.876Z</time></trkpt><trkpt lat="39.1029201" lon="8.7193819"><ele>134.0</ele><time>2026-03-22T09:27:18.877Z</time></trkpt><trkpt lat="39.1028483" lon="8.719413"><ele>134.33333333333334</ele><time>2026-03-22T09:27:19.877Z</time></trkpt><trkpt lat="39.1027841" lon="8.7194433"><ele>134.66666666666666</ele><time>2026-03-22T09:27:20.876Z</time></trkpt><trkpt lat="39.1027134" lon="8.7194761"><ele>135.0</ele><time>2026-03-22T09:27:21.876Z</time></trkpt><trkpt lat="39.1025919" lon="8.7195241"><ele>135.0</ele><time>2026-03-22T09:27:23.877Z</time></trkpt><trkpt lat="39.1024856" lon="8.7195643"><ele>135.0</ele><time>2026-03-22T09:27:25.876Z</time></trkpt><trkpt lat="39.1023707" lon="8.7196136"><ele>135.0</ele><time>2026-03-22T09:27:27.877Z</time></trkpt><trkpt lat="39.102276" lon="8.7196425"><ele>135.0</ele><time>2026-03-22T09:27:29.876Z</time></trkpt><trkpt lat="39.1022045" lon="8.7196438"><ele>135.0</ele><time>2026-03-22T09:27:31.876Z</time></trkpt><trkpt lat="39.102123" lon="8.719649"><ele>134.5</ele><time>2026-03-22T09:27:33.876Z</time></trkpt><trkpt lat="39.102039" lon="8.719631"><ele>134.0</ele><time>2026-03-22T09:27:35.877Z</time></trkpt><trkpt lat="39.1019511" lon="8.7196152"><ele>133.5</ele><time>2026-03-22T09:27:37.876Z</time></trkpt><trkpt lat="39.1018646" lon="8.7195935"><ele>133.0</ele><time>2026-03-22T09:27:39.876Z</time></trkpt><trkpt lat="39.1017832" lon="8.7195893"><ele>132.5</ele><time>2026-03-22T09:27:41.876Z</time></trkpt><trkpt lat="39.1017004" lon="8.7195413"><ele>132.0</ele><time>2026-03-22T09:27:43.877Z</time></trkpt><trkpt lat="39.101615" lon="8.7194924"><ele>131.4</ele><time>2026-03-22T09:27:45.876Z</time></trkpt><trkpt lat="39.1015164" lon="8.7194489"><ele>130.79999999999998</ele><time>2026-03-22T09:27:47.877Z</time></trkpt><trkpt lat="39.1014267" lon="8.71941"><ele>130.2</ele><time>2026-03-22T09:27:49.876Z</time></trkpt><trkpt lat="39.1013364" lon="8.7193553"><ele>129.6</ele><time>2026-03-22T09:27:51.877Z</time></trkpt><trkpt lat="39.1012357" lon="8.7193125"><ele>129.0</ele><time>2026-03-22T09:27:53.876Z</time></trkpt><trkpt lat="39.1011302" lon="8.7192649"><ele>130.2</ele><time>2026-03-22T09:27:55.876Z</time></trkpt><trkpt lat="39.1010253" lon="8.7192239"><ele>131.4</ele><time>2026-03-22T09:27:57.876Z</time></trkpt><trkpt lat="39.1009395" lon="8.7191909"><ele>132.6</ele><time>2026-03-22T09:27:59.876Z</time></trkpt><trkpt lat="39.1008365" lon="8.7191812"><ele>133.8</ele><time>2026-03-22T09:28:01.876Z</time></trkpt><trkpt lat="39.1007349" lon="8.7191625"><ele>135.0</ele><time>2026-03-22T09:28:03.876Z</time></trkpt><trkpt lat="39.1006496" lon="8.719153"><ele>135.0</ele><time>2026-03-22T09:28:05.877Z</time></trkpt><trkpt lat="39.1005587" lon="8.7191515"><ele>135.0</ele><time>2026-03-22T09:28:07.876Z</time></trkpt><trkpt lat="39.1004768" lon="8.7191537"><ele>135.0</ele><time>2026-03-22T09:28:09.877Z</time></trkpt><trkpt lat="39.1003936" lon="8.7191565"><ele>135.0</ele><time>2026-03-22T09:28:11.876Z</time></trkpt><trkpt lat="39.1003124" lon="8.7191487"><ele>135.0</ele><time>2026-03-22T09:28:13.876Z</time></trkpt><trkpt lat="39.1002308" lon="8.7191307"><ele>135.0</ele><time>2026-03-22T09:28:15.877Z</time></trkpt><trkpt lat="39.1001341" lon="8.7190905"><ele>135.0</ele><time>2026-03-22T09:28:17.876Z</time></trkpt><trkpt lat="39.10006" lon="8.7190404"><ele>135.0</ele><time>2026-03-22T09:28:19.877Z</time></trkpt><trkpt lat="39.0999612" lon="8.7189392"><ele>135.0</ele><time>2026-03-22T09:28:21.876Z</time></trkpt><trkpt lat="39.0998716" lon="8.718829"><ele>135.0</ele><time>2026-03-22T09:28:23.877Z</time></trkpt><trkpt lat="39.099812" lon="8.7187754"><ele>135.0</ele><time>2026-03-22T09:28:24.876Z</time></trkpt><trkpt lat="39.0997614" lon="8.7187223"><ele>134.0</ele><time>2026-03-22T09:28:25.877Z</time></trkpt><trkpt lat="39.0996525" lon="8.7186181"><ele>133.0</ele><time>2026-03-22T09:28:27.877Z</time></trkpt><trkpt lat="39.0995912" lon="8.7185661"><ele>132.0</ele><time>2026-03-22T09:28:28.876Z</time></trkpt><trkpt lat="39.0995187" lon="8.7185155"><ele>131.0</ele><time>2026-03-22T09:28:29.876Z</time></trkpt><trkpt lat="39.0994592" lon="8.7184442"><ele>130.0</ele><time>2026-03-22T09:28:30.876Z</time></trkpt><trkpt lat="39.0993919" lon="8.718385"><ele>130.0</ele><time>2026-03-22T09:28:31.876Z</time></trkpt><trkpt lat="39.0993049" lon="8.7183153"><ele>130.0</ele><time>2026-03-22T09:28:32.876Z</time></trkpt><trkpt lat="39.0992301" lon="8.7182326"><ele>130.0</ele><time>2026-03-22T09:28:33.876Z</time></trkpt><trkpt lat="39.099152" lon="8.718156"><ele>130.0</ele><time>2026-03-22T09:28:34.877Z</time></trkpt><trkpt lat="39.0990789" lon="8.7180707"><ele>130.0</ele><time>2026-03-22T09:28:35.877Z</time></trkpt><trkpt lat="39.0989487" lon="8.7179775"><ele>127.5</ele><time>2026-03-22T09:28:36.876Z</time></trkpt><trkpt lat="39.0988602" lon="8.7178952"><ele>125.0</ele><time>2026-03-22T09:28:37.877Z</time></trkpt><trkpt lat="39.0987874" lon="8.7178208"><ele>122.5</ele><time>2026-03-22T09:28:38.876Z</time></trkpt><trkpt lat="39.0986479" lon="8.7177535"><ele>120.0</ele><time>2026-03-22T09:28:39.877Z</time></trkpt><trkpt lat="39.0985322" lon="8.7176917"><ele>120.0</ele><time>2026-03-22T09:28:40.877Z</time></trkpt><trkpt lat="39.0984222" lon="8.7176345"><ele>120.0</ele><time>2026-03-22T09:28:41.876Z</time></trkpt><trkpt lat="39.0983131" lon="8.7175713"><ele>120.0</ele><time>2026-03-22T09:28:42.876Z</time></trkpt><trkpt lat="39.0982002" lon="8.7175111"><ele>120.0</ele><time>2026-03-22T09:28:43.876Z</time></trkpt><trkpt lat="39.0980861" lon="8.7174728"><ele>119.0</ele><time>2026-03-22T09:28:44.876Z</time></trkpt><trkpt lat="39.09798" lon="8.7174227"><ele>118.0</ele><time>2026-03-22T09:28:45.876Z</time></trkpt><trkpt lat="39.0978764" lon="8.7173719"><ele>117.0</ele><time>2026-03-22T09:28:46.877Z</time></trkpt><trkpt lat="39.0977676" lon="8.7173291"><ele>116.0</ele><time>2026-03-22T09:28:47.876Z</time></trkpt><trkpt lat="39.097668" lon="8.7172987"><ele>115.0</ele><time>2026-03-22T09:28:48.876Z</time></trkpt><trkpt lat="39.0976076" lon="8.7172617"><ele>115.0</ele><time>2026-03-22T09:28:49.876Z</time></trkpt><trkpt lat="39.0975116" lon="8.7172146"><ele>115.0</ele><time>2026-03-22T09:28:50.876Z</time></trkpt><trkpt lat="39.0974327" lon="8.7171865"><ele>115.0</ele><time>2026-03-22T09:28:51.876Z</time></trkpt><trkpt lat="39.097351" lon="8.7171364"><ele>115.0</ele><time>2026-03-22T09:28:52.876Z</time></trkpt><trkpt lat="39.097264" lon="8.7171076"><ele>115.0</ele><time>2026-03-22T09:28:53.876Z</time></trkpt><trkpt lat="39.0971666" lon="8.7170787"><ele>116.0</ele><time>2026-03-22T09:28:54.876Z</time></trkpt><trkpt lat="39.0970874" lon="8.7170455"><ele>117.0</ele><time>2026-03-22T09:28:55.876Z</time></trkpt><trkpt lat="39.0969542" lon="8.7170014"><ele>118.0</ele><time>2026-03-22T09:28:57.876Z</time></trkpt><trkpt lat="39.096881" lon="8.7169969"><ele>119.0</ele><time>2026-03-22T09:28:58.876Z</time></trkpt><trkpt lat="39.096816" lon="8.7170037"><ele>120.0</ele><time>2026-03-22T09:28:59.876Z</time></trkpt><trkpt lat="39.0966894" lon="8.7170131"><ele>120.8</ele><time>2026-03-22T09:29:01.876Z</time></trkpt><trkpt lat="39.0965748" lon="8.71702"><ele>121.6</ele><time>2026-03-22T09:29:03.877Z</time></trkpt><trkpt lat="39.0964742" lon="8.7170388"><ele>122.4</ele><time>2026-03-22T09:29:05.876Z</time></trkpt><trkpt lat="39.0963851" lon="8.7170487"><ele>123.2</ele><time>2026-03-22T09:29:07.877Z</time></trkpt><trkpt lat="39.0962997" lon="8.7170492"><ele>124.0</ele><time>2026-03-22T09:29:09.876Z</time></trkpt><trkpt lat="39.0962131" lon="8.7170536"><ele>124.00000000000001</ele><time>2026-03-22T09:29:11.876Z</time></trkpt><trkpt lat="39.0961342" lon="8.717056"><ele>124.0</ele><time>2026-03-22T09:29:13.876Z</time></trkpt><trkpt lat="39.0960543" lon="8.7170328"><ele>124.0</ele><time>2026-03-22T09:29:15.876Z</time></trkpt><trkpt lat="39.0959888" lon="8.7169939"><ele>124.0</ele><time>2026-03-22T09:29:17.876Z</time></trkpt><trkpt lat="39.095924" lon="8.7169862"><ele>124.00000000000001</ele><time>2026-03-22T09:29:19.876Z</time></trkpt><trkpt lat="39.0958446" lon="8.7169634"><ele>124.0</ele><time>2026-03-22T09:29:23.877Z</time></trkpt><trkpt lat="39.0957716" lon="8.7169022"><ele>124.83333333333334</ele><time>2026-03-22T09:29:26.876Z</time></trkpt><trkpt lat="39.0957201" lon="8.7168345"><ele>125.66666666666667</ele><time>2026-03-22T09:29:28.876Z</time></trkpt><trkpt lat="39.0956454" lon="8.7167842"><ele>126.5</ele><time>2026-03-22T09:29:30.877Z</time></trkpt><trkpt lat="39.0955734" lon="8.7167247"><ele>127.33333333333334</ele><time>2026-03-22T09:29:32.877Z</time></trkpt><trkpt lat="39.0955011" lon="8.7166831"><ele>128.16666666666666</ele><time>2026-03-22T09:29:34.876Z</time></trkpt><trkpt lat="39.0954363" lon="8.7166297"><ele>129.0</ele><time>2026-03-22T09:29:36.877Z</time></trkpt><trkpt lat="39.0953848" lon="8.7165808"><ele>128.99999999999997</ele><time>2026-03-22T09:29:38.877Z</time></trkpt><trkpt lat="39.0953248" lon="8.716502"><ele>129.0</ele><time>2026-03-22T09:29:41.877Z</time></trkpt><trkpt lat="39.0952741" lon="8.7164514"><ele>129.0</ele><time>2026-03-22T09:29:43.877Z</time></trkpt><trkpt lat="39.0952123" lon="8.7163868"><ele>129.0</ele><time>2026-03-22T09:29:45.877Z</time></trkpt><trkpt lat="39.095152" lon="8.7163263"><ele>129.0</ele><time>2026-03-22T09:29:47.877Z</time></trkpt><trkpt lat="39.0950974" lon="8.7162783"><ele>128.99999999999997</ele><time>2026-03-22T09:29:49.876Z</time></trkpt><trkpt lat="39.0950371" lon="8.7162331"><ele>129.0</ele><time>2026-03-22T09:29:51.876Z</time></trkpt><trkpt lat="39.0949582" lon="8.7162079"><ele>129.0</ele><time>2026-03-22T09:29:53.876Z</time></trkpt><trkpt lat="39.0948758" lon="8.7161874"><ele>129.0</ele><time>2026-03-22T09:29:55.876Z</time></trkpt><trkpt lat="39.0948024" lon="8.7161761"><ele>129.0</ele><time>2026-03-22T09:29:57.876Z</time></trkpt><trkpt lat="39.0947391" lon="8.7161549"><ele>129.0</ele><time>2026-03-22T09:29:59.877Z</time></trkpt><trkpt lat="39.0947188" lon="8.7160588"><ele>129.0</ele><time>2026-03-22T09:30:02.877Z</time></trkpt><trkpt lat="39.0947204" lon="8.7159584"><ele>129.0</ele><time>2026-03-22T09:30:04.876Z</time></trkpt><trkpt lat="39.0947375" lon="8.7158355"><ele>129.0</ele><time>2026-03-22T09:30:06.877Z</time></trkpt><trkpt lat="39.0947438" lon="8.7156855"><ele>129.0</ele><time>2026-03-22T09:30:08.877Z</time></trkpt><trkpt lat="39.0947544" lon="8.7155886"><ele>129.0</ele><time>2026-03-22T09:30:09.876Z</time></trkpt><trkpt lat="39.0947781" lon="8.7155024"><ele>129.0</ele><time>2026-03-22T09:30:10.876Z</time></trkpt><trkpt lat="39.0948019" lon="8.715417"><ele>129.0</ele><time>2026-03-22T09:30:11.877Z</time></trkpt><trkpt lat="39.0948368" lon="8.7152228"><ele>128.28571428571428</ele><time>2026-03-22T09:30:13.876Z</time></trkpt><trkpt lat="39.0948371" lon="8.7151341"><ele>127.57142857142857</ele><time>2026-03-22T09:30:14.876Z</time></trkpt><trkpt lat="39.0948477" lon="8.7150484"><ele>126.85714285714286</ele><time>2026-03-22T09:30:15.876Z</time></trkpt><trkpt lat="39.0948513" lon="8.7149647"><ele>126.14285714285714</ele><time>2026-03-22T09:30:16.876Z</time></trkpt><trkpt lat="39.0948158" lon="8.7148931"><ele>125.42857142857144</ele><time>2026-03-22T09:30:17.876Z</time></trkpt><trkpt lat="39.0947717" lon="8.7148022"><ele>124.71428571428572</ele><time>2026-03-22T09:30:19.876Z</time></trkpt><trkpt lat="39.0947273" lon="8.714742"><ele>124.0</ele><time>2026-03-22T09:30:21.877Z</time></trkpt><trkpt lat="39.0947805" lon="8.7146938"><ele>124.0</ele><time>2026-03-22T09:30:23.877Z</time></trkpt><trkpt lat="39.0948705" lon="8.714636"><ele>124.0</ele><time>2026-03-22T09:30:25.876Z</time></trkpt><trkpt lat="39.0949918" lon="8.7145872"><ele>124.0</ele><time>2026-03-22T09:30:27.877Z</time></trkpt><trkpt lat="39.095066" lon="8.7145271"><ele>124.0</ele><time>2026-03-22T09:30:28.877Z</time></trkpt><trkpt lat="39.0951467" lon="8.7144711"><ele>124.0</ele><time>2026-03-22T09:30:29.877Z</time></trkpt><trkpt lat="39.095234" lon="8.7144015"><ele>122.4</ele><time>2026-03-22T09:30:30.876Z</time></trkpt><trkpt lat="39.0953113" lon="8.7143448"><ele>120.80000000000001</ele><time>2026-03-22T09:30:31.876Z</time></trkpt><trkpt lat="39.0953999" lon="8.7142855"><ele>119.19999999999999</ele><time>2026-03-22T09:30:32.876Z</time></trkpt><trkpt lat="39.0954934" lon="8.7142248"><ele>117.6</ele><time>2026-03-22T09:30:33.876Z</time></trkpt><trkpt lat="39.0955853" lon="8.714184"><ele>116.0</ele><time>2026-03-22T09:30:34.876Z</time></trkpt><trkpt lat="39.0956813" lon="8.7141259"><ele>115.19999999999999</ele><time>2026-03-22T09:30:35.877Z</time></trkpt><trkpt lat="39.0957699" lon="8.7140748"><ele>114.39999999999999</ele><time>2026-03-22T09:30:36.877Z</time></trkpt><trkpt lat="39.0958593" lon="8.7140207"><ele>113.6</ele><time>2026-03-22T09:30:37.876Z</time></trkpt><trkpt lat="39.0959528" lon="8.7139525"><ele>112.8</ele><time>2026-03-22T09:30:38.877Z</time></trkpt><trkpt lat="39.0960363" lon="8.71387"><ele>112.0</ele><time>2026-03-22T09:30:39.877Z</time></trkpt><trkpt lat="39.0960935" lon="8.713768"><ele>112.00000000000001</ele><time>2026-03-22T09:30:40.876Z</time></trkpt><trkpt lat="39.0961353" lon="8.713663"><ele>112.0</ele><time>2026-03-22T09:30:41.876Z</time></trkpt><trkpt lat="39.0961805" lon="8.7135474"><ele>112.0</ele><time>2026-03-22T09:30:42.876Z</time></trkpt><trkpt lat="39.0962233" lon="8.7134534"><ele>112.0</ele><time>2026-03-22T09:30:43.876Z</time></trkpt><trkpt lat="39.0962661" lon="8.7133533"><ele>112.00000000000001</ele><time>2026-03-22T09:30:44.877Z</time></trkpt><trkpt lat="39.0963065" lon="8.7132609"><ele>112.0</ele><time>2026-03-22T09:30:45.876Z</time></trkpt><trkpt lat="39.0963488" lon="8.7131702"><ele>111.39999999999999</ele><time>2026-03-22T09:30:46.876Z</time></trkpt><trkpt lat="39.0964105" lon="8.7130299"><ele>110.79999999999998</ele><time>2026-03-22T09:30:48.876Z</time></trkpt><trkpt lat="39.0964505" lon="8.7129532"><ele>110.2</ele><time>2026-03-22T09:30:49.876Z</time></trkpt><trkpt lat="39.096498" lon="8.7128049"><ele>109.6</ele><time>2026-03-22T09:30:51.876Z</time></trkpt><trkpt lat="39.0965619" lon="8.7126815"><ele>109.0</ele><time>2026-03-22T09:30:53.876Z</time></trkpt><trkpt lat="39.0966231" lon="8.712555"><ele>109.0</ele><time>2026-03-22T09:30:55.876Z</time></trkpt><trkpt lat="39.0966731" lon="8.7124536"><ele>109.0</ele><time>2026-03-22T09:30:57.876Z</time></trkpt><trkpt lat="39.0967191" lon="8.7123284"><ele>109.0</ele><time>2026-03-22T09:30:59.877Z</time></trkpt><trkpt lat="39.0967778" lon="8.7122427"><ele>109.0</ele><time>2026-03-22T09:31:01.876Z</time></trkpt><trkpt lat="39.0968243" lon="8.712132"><ele>109.0</ele><time>2026-03-22T09:31:03.876Z</time></trkpt><trkpt lat="39.0968533" lon="8.712013"><ele>109.00000000000001</ele><time>2026-03-22T09:31:05.877Z</time></trkpt><trkpt lat="39.0968927" lon="8.7119131"><ele>109.0</ele><time>2026-03-22T09:31:07.876Z</time></trkpt><trkpt lat="39.096934" lon="8.7118328"><ele>109.0</ele><time>2026-03-22T09:31:09.877Z</time></trkpt><trkpt lat="39.0969807" lon="8.7117576"><ele>109.0</ele><time>2026-03-22T09:31:11.876Z</time></trkpt><trkpt lat="39.0970198" lon="8.7116917"><ele>109.00000000000001</ele><time>2026-03-22T09:31:13.876Z</time></trkpt><trkpt lat="39.0970788" lon="8.7116143"><ele>109.0</ele><time>2026-03-22T09:31:16.877Z</time></trkpt><trkpt lat="39.0971209" lon="8.7115157"><ele>109.16666666666667</ele><time>2026-03-22T09:31:19.877Z</time></trkpt><trkpt lat="39.0971663" lon="8.7114567"><ele>109.33333333333334</ele><time>2026-03-22T09:31:21.876Z</time></trkpt><trkpt lat="39.0972259" lon="8.7114034"><ele>109.5</ele><time>2026-03-22T09:31:23.876Z</time></trkpt><trkpt lat="39.0973" lon="8.7113475"><ele>109.66666666666666</ele><time>2026-03-22T09:31:25.876Z</time></trkpt><trkpt lat="39.0973768" lon="8.7113051"><ele>109.83333333333333</ele><time>2026-03-22T09:31:27.876Z</time></trkpt><trkpt lat="39.0974553" lon="8.7112809"><ele>110.0</ele><time>2026-03-22T09:31:29.877Z</time></trkpt><trkpt lat="39.0975357" lon="8.7112488"><ele>110.16666666666666</ele><time>2026-03-22T09:31:31.876Z</time></trkpt><trkpt lat="39.0976235" lon="8.7112193"><ele>110.33333333333333</ele><time>2026-03-22T09:31:33.876Z</time></trkpt><trkpt lat="39.0977149" lon="8.7111954"><ele>110.5</ele><time>2026-03-22T09:31:35.876Z</time></trkpt><trkpt lat="39.0978038" lon="8.7111594"><ele>110.66666666666666</ele><time>2026-03-22T09:31:37.877Z</time></trkpt><trkpt lat="39.0978842" lon="8.7111177"><ele>110.83333333333333</ele><time>2026-03-22T09:31:39.877Z</time></trkpt><trkpt lat="39.0979553" lon="8.7110852"><ele>111.0</ele><time>2026-03-22T09:31:41.876Z</time></trkpt><trkpt lat="39.0980376" lon="8.7110163"><ele>111.0</ele><time>2026-03-22T09:31:43.877Z</time></trkpt><trkpt lat="39.0981209" lon="8.7109705"><ele>111.0</ele><time>2026-03-22T09:31:45.876Z</time></trkpt><trkpt lat="39.0982082" lon="8.7109129"><ele>111.0</ele><time>2026-03-22T09:31:47.876Z</time></trkpt><trkpt lat="39.0983021" lon="8.710852"><ele>111.0</ele><time>2026-03-22T09:31:49.877Z</time></trkpt><trkpt lat="39.0983763" lon="8.7107803"><ele>111.0</ele><time>2026-03-22T09:31:51.877Z</time></trkpt><trkpt lat="39.0984642" lon="8.7107177"><ele>110.8</ele><time>2026-03-22T09:31:53.876Z</time></trkpt><trkpt lat="39.0985476" lon="8.7106468"><ele>110.6</ele><time>2026-03-22T09:31:55.876Z</time></trkpt><trkpt lat="39.0986274" lon="8.7106006"><ele>110.4</ele><time>2026-03-22T09:31:57.876Z</time></trkpt><trkpt lat="39.0987183" lon="8.7105483"><ele>110.2</ele><time>2026-03-22T09:31:59.876Z</time></trkpt><trkpt lat="39.098804" lon="8.7104714"><ele>110.0</ele><time>2026-03-22T09:32:01.876Z</time></trkpt><trkpt lat="39.0988673" lon="8.7103788"><ele>110.0</ele><time>2026-03-22T09:32:03.876Z</time></trkpt><trkpt lat="39.0989069" lon="8.7102586"><ele>110.0</ele><time>2026-03-22T09:32:05.876Z</time></trkpt><trkpt lat="39.0989438" lon="8.7101149"><ele>110.0</ele><time>2026-03-22T09:32:07.876Z</time></trkpt><trkpt lat="39.0989634" lon="8.7100299"><ele>110.0</ele><time>2026-03-22T09:32:08.876Z</time></trkpt><trkpt lat="39.0990065" lon="8.7098861"><ele>110.0</ele><time>2026-03-22T09:32:10.876Z</time></trkpt><trkpt lat="39.0990613" lon="8.7097681"><ele>109.49999999999999</ele><time>2026-03-22T09:32:12.877Z</time></trkpt><trkpt lat="39.099137" lon="8.7096448"><ele>109.0</ele><time>2026-03-22T09:32:14.877Z</time></trkpt><trkpt lat="39.0991909" lon="8.7095999"><ele>108.5</ele><time>2026-03-22T09:32:15.876Z</time></trkpt><trkpt lat="39.0992335" lon="8.7095388"><ele>108.0</ele><time>2026-03-22T09:32:16.876Z</time></trkpt><trkpt lat="39.099267" lon="8.7094653"><ele>107.49999999999999</ele><time>2026-03-22T09:32:17.876Z</time></trkpt><trkpt lat="39.099353" lon="8.709377"><ele>107.0</ele><time>2026-03-22T09:32:19.876Z</time></trkpt><trkpt lat="39.0993937" lon="8.7093106"><ele>106.8</ele><time>2026-03-22T09:32:20.876Z</time></trkpt><trkpt lat="39.0994716" lon="8.7091942"><ele>106.6</ele><time>2026-03-22T09:32:22.876Z</time></trkpt><trkpt lat="39.0995535" lon="8.7090921"><ele>106.39999999999999</ele><time>2026-03-22T09:32:24.876Z</time></trkpt><trkpt lat="39.0996322" lon="8.7090177"><ele>106.19999999999999</ele><time>2026-03-22T09:32:26.879Z</time></trkpt><trkpt lat="39.0997042" lon="8.7089087"><ele>106.0</ele><time>2026-03-22T09:32:28.877Z</time></trkpt><trkpt lat="39.0997764" lon="8.7088225"><ele>106.0</ele><time>2026-03-22T09:32:30.877Z</time></trkpt><trkpt lat="39.0998509" lon="8.7087404"><ele>106.0</ele><time>2026-03-22T09:32:32.878Z</time></trkpt><trkpt lat="39.0999232" lon="8.7086338"><ele>106.0</ele><time>2026-03-22T09:32:34.876Z</time></trkpt><trkpt lat="39.0999983" lon="8.70854"><ele>106.0</ele><time>2026-03-22T09:32:36.884Z</time></trkpt><trkpt lat="39.1000721" lon="8.7084454"><ele>106.0</ele><time>2026-03-22T09:32:38.879Z</time></trkpt><trkpt lat="39.1001487" lon="8.7083551"><ele>106.0</ele><time>2026-03-22T09:32:40.879Z</time></trkpt><trkpt lat="39.1002222" lon="8.7082565"><ele>106.0</ele><time>2026-03-22T09:32:42.878Z</time></trkpt><trkpt lat="39.1003008" lon="8.7081481"><ele>106.0</ele><time>2026-03-22T09:32:44.879Z</time></trkpt><trkpt lat="39.1003665" lon="8.7080549"><ele>106.0</ele><time>2026-03-22T09:32:46.879Z</time></trkpt><trkpt lat="39.1004391" lon="8.7079459"><ele>106.0</ele><time>2026-03-22T09:32:48.879Z</time></trkpt><trkpt lat="39.1005188" lon="8.7078345"><ele>106.0</ele><time>2026-03-22T09:32:50.879Z</time></trkpt><trkpt lat="39.1006039" lon="8.7077487"><ele>106.0</ele><time>2026-03-22T09:32:52.879Z</time></trkpt><trkpt lat="39.1006442" lon="8.7076824"><ele>106.0</ele><time>2026-03-22T09:32:53.878Z</time></trkpt><trkpt lat="39.1007176" lon="8.7075709"><ele>106.0</ele><time>2026-03-22T09:32:55.879Z</time></trkpt><trkpt lat="39.1007963" lon="8.7074648"><ele>106.0</ele><time>2026-03-22T09:32:57.879Z</time></trkpt><trkpt lat="39.1008757" lon="8.7073766"><ele>106.0</ele><time>2026-03-22T09:32:59.878Z</time></trkpt><trkpt lat="39.1009588" lon="8.7072703"><ele>106.0</ele><time>2026-03-22T09:33:01.878Z</time></trkpt><trkpt lat="39.101042" lon="8.7071935"><ele>106.0</ele><time>2026-03-22T09:33:03.879Z</time></trkpt><trkpt lat="39.1011115" lon="8.7070818"><ele>106.0</ele><time>2026-03-22T09:33:05.878Z</time></trkpt><trkpt lat="39.1011929" lon="8.7069907"><ele>106.0</ele><time>2026-03-22T09:33:07.879Z</time></trkpt><trkpt lat="39.1012597" lon="8.7069055"><ele>105.8</ele><time>2026-03-22T09:33:09.878Z</time></trkpt><trkpt lat="39.1013222" lon="8.7068305"><ele>105.6</ele><time>2026-03-22T09:33:11.879Z</time></trkpt><trkpt lat="39.1013921" lon="8.7067251"><ele>105.4</ele><time>2026-03-22T09:33:13.879Z</time></trkpt><trkpt lat="39.1014638" lon="8.7066422"><ele>105.2</ele><time>2026-03-22T09:33:15.878Z</time></trkpt><trkpt lat="39.1015399" lon="8.7065565"><ele>105.0</ele><time>2026-03-22T09:33:17.879Z</time></trkpt><trkpt lat="39.1016074" lon="8.7064714"><ele>105.4</ele><time>2026-03-22T09:33:19.878Z</time></trkpt><trkpt lat="39.1016791" lon="8.7063971"><ele>105.8</ele><time>2026-03-22T09:33:21.878Z</time></trkpt><trkpt lat="39.1017479" lon="8.7063225"><ele>106.19999999999999</ele><time>2026-03-22T09:33:23.879Z</time></trkpt><trkpt lat="39.1018489" lon="8.7062443"><ele>106.6</ele><time>2026-03-22T09:33:25.878Z</time></trkpt><trkpt lat="39.1019263" lon="8.7061387"><ele>107.0</ele><time>2026-03-22T09:33:27.878Z</time></trkpt><trkpt lat="39.1019845" lon="8.7060551"><ele>107.0</ele><time>2026-03-22T09:33:29.879Z</time></trkpt><trkpt lat="39.1020357" lon="8.7059473"><ele>106.99999999999999</ele><time>2026-03-22T09:33:31.878Z</time></trkpt><trkpt lat="39.1020946" lon="8.7058421"><ele>106.99999999999999</ele><time>2026-03-22T09:33:33.878Z</time></trkpt><trkpt lat="39.1021482" lon="8.7057159"><ele>107.0</ele><time>2026-03-22T09:33:35.878Z</time></trkpt><trkpt lat="39.1022035" lon="8.7056206"><ele>107.0</ele><time>2026-03-22T09:33:37.878Z</time></trkpt><trkpt lat="39.1022584" lon="8.7054974"><ele>107.0</ele><time>2026-03-22T09:33:39.878Z</time></trkpt><trkpt lat="39.1023121" lon="8.7053866"><ele>106.99999999999999</ele><time>2026-03-22T09:33:41.878Z</time></trkpt><trkpt lat="39.1023791" lon="8.7052811"><ele>106.99999999999999</ele><time>2026-03-22T09:33:43.878Z</time></trkpt><trkpt lat="39.1024402" lon="8.7051681"><ele>107.0</ele><time>2026-03-22T09:33:45.879Z</time></trkpt><trkpt lat="39.1024895" lon="8.7050378"><ele>107.0</ele><time>2026-03-22T09:33:47.879Z</time></trkpt><trkpt lat="39.1025423" lon="8.7049266"><ele>107.0</ele><time>2026-03-22T09:33:49.878Z</time></trkpt><trkpt lat="39.1025966" lon="8.7048066"><ele>106.99999999999999</ele><time>2026-03-22T09:33:51.878Z</time></trkpt><trkpt lat="39.1026402" lon="8.7046831"><ele>106.99999999999999</ele><time>2026-03-22T09:33:53.879Z</time></trkpt><trkpt lat="39.1026963" lon="8.7045685"><ele>107.0</ele><time>2026-03-22T09:33:55.878Z</time></trkpt><trkpt lat="39.1027486" lon="8.7044509"><ele>107.0</ele><time>2026-03-22T09:33:57.879Z</time></trkpt><trkpt lat="39.1028015" lon="8.7043385"><ele>107.0</ele><time>2026-03-22T09:33:59.878Z</time></trkpt><trkpt lat="39.1028637" lon="8.7041799"><ele>106.99999999999999</ele><time>2026-03-22T09:34:01.878Z</time></trkpt><trkpt lat="39.1029275" lon="8.7040657"><ele>106.99999999999999</ele><time>2026-03-22T09:34:04.878Z</time></trkpt><trkpt lat="39.102974" lon="8.7039941"><ele>107.0</ele><time>2026-03-22T09:34:05.878Z</time></trkpt><trkpt lat="39.1030029" lon="8.7039136"><ele>107.0</ele><time>2026-03-22T09:34:07.878Z</time></trkpt><trkpt lat="39.1030689" lon="8.7037632"><ele>106.99999999999999</ele><time>2026-03-22T09:34:09.878Z</time></trkpt><trkpt lat="39.1030939" lon="8.703675"><ele>107.0</ele><time>2026-03-22T09:34:11.878Z</time></trkpt><trkpt lat="39.1031289" lon="8.7035923"><ele>107.0</ele><time>2026-03-22T09:34:13.879Z</time></trkpt><trkpt lat="39.1031783" lon="8.7035403"><ele>107.0</ele><time>2026-03-22T09:34:15.878Z</time></trkpt><trkpt lat="39.1032327" lon="8.703467"><ele>106.99999999999999</ele><time>2026-03-22T09:34:17.878Z</time></trkpt><trkpt lat="39.1032904" lon="8.7033821"><ele>107.0</ele><time>2026-03-22T09:34:19.879Z</time></trkpt><trkpt lat="39.1033433" lon="8.7032681"><ele>106.8</ele><time>2026-03-22T09:34:21.878Z</time></trkpt><trkpt lat="39.1034098" lon="8.7031679"><ele>106.6</ele><time>2026-03-22T09:34:23.879Z</time></trkpt><trkpt lat="39.1034683" lon="8.7030522"><ele>106.39999999999999</ele><time>2026-03-22T09:34:25.878Z</time></trkpt><trkpt lat="39.1035339" lon="8.7029463"><ele>106.19999999999999</ele><time>2026-03-22T09:34:27.878Z</time></trkpt><trkpt lat="39.1035975" lon="8.7028428"><ele>106.0</ele><time>2026-03-22T09:34:29.879Z</time></trkpt><trkpt lat="39.1036289" lon="8.7027641"><ele>105.8</ele><time>2026-03-22T09:34:30.878Z</time></trkpt><trkpt lat="39.1036953" lon="8.7026459"><ele>105.6</ele><time>2026-03-22T09:34:32.878Z</time></trkpt><trkpt lat="39.1037624" lon="8.7025405"><ele>105.4</ele><time>2026-03-22T09:34:34.879Z</time></trkpt><trkpt lat="39.1037776" lon="8.702461"><ele>105.2</ele><time>2026-03-22T09:34:35.878Z</time></trkpt><trkpt lat="39.1038371" lon="8.7023416"><ele>105.0</ele><time>2026-03-22T09:34:37.878Z</time></trkpt><trkpt lat="39.1038954" lon="8.7022638"><ele>105.0</ele><time>2026-03-22T09:34:39.878Z</time></trkpt><trkpt lat="39.1039367" lon="8.7021857"><ele>105.0</ele><time>2026-03-22T09:34:40.878Z</time></trkpt><trkpt lat="39.1039609" lon="8.702105"><ele>105.0</ele><time>2026-03-22T09:34:41.878Z</time></trkpt><trkpt lat="39.1040077" lon="8.7020081"><ele>105.0</ele><time>2026-03-22T09:34:43.879Z</time></trkpt><trkpt lat="39.1040657" lon="8.7019329"><ele>105.0</ele><time>2026-03-22T09:34:45.879Z</time></trkpt><trkpt lat="39.104096" lon="8.7018396"><ele>105.0</ele><time>2026-03-22T09:34:46.878Z</time></trkpt><trkpt lat="39.1041458" lon="8.7017103"><ele>104.83333333333333</ele><time>2026-03-22T09:34:48.878Z</time></trkpt><trkpt lat="39.1041903" lon="8.7016073"><ele>104.66666666666666</ele><time>2026-03-22T09:34:50.879Z</time></trkpt><trkpt lat="39.104244" lon="8.7015574"><ele>104.5</ele><time>2026-03-22T09:34:52.878Z</time></trkpt><trkpt lat="39.1043212" lon="8.7015406"><ele>104.33333333333333</ele><time>2026-03-22T09:34:54.878Z</time></trkpt><trkpt lat="39.1043741" lon="8.7014317"><ele>104.16666666666666</ele><time>2026-03-22T09:34:56.878Z</time></trkpt><trkpt lat="39.1044274" lon="8.7013143"><ele>104.0</ele><time>2026-03-22T09:34:58.878Z</time></trkpt><trkpt lat="39.104476" lon="8.7012026"><ele>104.0</ele><time>2026-03-22T09:35:00.878Z</time></trkpt><trkpt lat="39.1045377" lon="8.7011117"><ele>104.0</ele><time>2026-03-22T09:35:02.878Z</time></trkpt><trkpt lat="39.1046057" lon="8.7010198"><ele>104.0</ele><time>2026-03-22T09:35:04.878Z</time></trkpt><trkpt lat="39.1046698" lon="8.7009025"><ele>104.0</ele><time>2026-03-22T09:35:06.878Z</time></trkpt><trkpt lat="39.1047323" lon="8.700798"><ele>104.0</ele><time>2026-03-22T09:35:08.878Z</time></trkpt><trkpt lat="39.1047915" lon="8.7006842"><ele>103.6</ele><time>2026-03-22T09:35:10.878Z</time></trkpt><trkpt lat="39.1048502" lon="8.7005636"><ele>103.2</ele><time>2026-03-22T09:35:12.879Z</time></trkpt><trkpt lat="39.1049087" lon="8.7004474"><ele>102.8</ele><time>2026-03-22T09:35:14.878Z</time></trkpt><trkpt lat="39.1049731" lon="8.7003361"><ele>102.39999999999999</ele><time>2026-03-22T09:35:16.879Z</time></trkpt><trkpt lat="39.1050219" lon="8.7002311"><ele>102.0</ele><time>2026-03-22T09:35:18.879Z</time></trkpt><trkpt lat="39.10508" lon="8.7001209"><ele>102.0</ele><time>2026-03-22T09:35:20.878Z</time></trkpt><trkpt lat="39.1051363" lon="8.7000134"><ele>102.0</ele><time>2026-03-22T09:35:22.878Z</time></trkpt><trkpt lat="39.105208" lon="8.6998873"><ele>102.0</ele><time>2026-03-22T09:35:24.879Z</time></trkpt><trkpt lat="39.1052629" lon="8.6997527"><ele>102.0</ele><time>2026-03-22T09:35:26.879Z</time></trkpt><trkpt lat="39.1053121" lon="8.699657"><ele>102.0</ele><time>2026-03-22T09:35:28.878Z</time></trkpt><trkpt lat="39.1053609" lon="8.6995563"><ele>102.0</ele><time>2026-03-22T09:35:30.878Z</time></trkpt><trkpt lat="39.105406" lon="8.69948"><ele>102.0</ele><time>2026-03-22T09:35:31.878Z</time></trkpt><trkpt lat="39.1054395" lon="8.6993769"><ele>102.0</ele><time>2026-03-22T09:35:33.878Z</time></trkpt><trkpt lat="39.1055063" lon="8.6992835"><ele>102.0</ele><time>2026-03-22T09:35:35.878Z</time></trkpt><trkpt lat="39.1055527" lon="8.6991726"><ele>102.0</ele><time>2026-03-22T09:35:37.879Z</time></trkpt><trkpt lat="39.1056144" lon="8.6990669"><ele>102.0</ele><time>2026-03-22T09:35:39.878Z</time></trkpt><trkpt lat="39.1056822" lon="8.6989711"><ele>102.0</ele><time>2026-03-22T09:35:41.879Z</time></trkpt><trkpt lat="39.1057482" lon="8.6988735"><ele>102.0</ele><time>2026-03-22T09:35:43.879Z</time></trkpt><trkpt lat="39.1057913" lon="8.6987492"><ele>102.0</ele><time>2026-03-22T09:35:45.878Z</time></trkpt><trkpt lat="39.1058422" lon="8.6986216"><ele>102.0</ele><time>2026-03-22T09:35:47.878Z</time></trkpt><trkpt lat="39.1058941" lon="8.6984982"><ele>101.8</ele><time>2026-03-22T09:35:49.879Z</time></trkpt><trkpt lat="39.1059594" lon="8.6984057"><ele>101.6</ele><time>2026-03-22T09:35:51.878Z</time></trkpt><trkpt lat="39.1060121" lon="8.698292"><ele>101.39999999999999</ele><time>2026-03-22T09:35:53.878Z</time></trkpt><trkpt lat="39.1060831" lon="8.6981816"><ele>101.19999999999999</ele><time>2026-03-22T09:35:55.879Z</time></trkpt><trkpt lat="39.1061188" lon="8.698114"><ele>101.0</ele><time>2026-03-22T09:35:56.879Z</time></trkpt><trkpt lat="39.106166" lon="8.6979996"><ele>101.0</ele><time>2026-03-22T09:35:58.879Z</time></trkpt><trkpt lat="39.1062277" lon="8.6978874"><ele>101.0</ele><time>2026-03-22T09:36:00.879Z</time></trkpt><trkpt lat="39.1062568" lon="8.6978084"><ele>101.0</ele><time>2026-03-22T09:36:01.878Z</time></trkpt><trkpt lat="39.1062955" lon="8.697681"><ele>101.0</ele><time>2026-03-22T09:36:03.878Z</time></trkpt><trkpt lat="39.1063539" lon="8.6975372"><ele>101.0</ele><time>2026-03-22T09:36:05.878Z</time></trkpt><trkpt lat="39.1063941" lon="8.6974132"><ele>101.0</ele><time>2026-03-22T09:36:07.878Z</time></trkpt><trkpt lat="39.1064388" lon="8.6972892"><ele>101.0</ele><time>2026-03-22T09:36:09.878Z</time></trkpt><trkpt lat="39.1064882" lon="8.6971508"><ele>101.0</ele><time>2026-03-22T09:36:11.878Z</time></trkpt><trkpt lat="39.1065369" lon="8.6970086"><ele>101.0</ele><time>2026-03-22T09:36:13.878Z</time></trkpt><trkpt lat="39.1065911" lon="8.6969061"><ele>101.0</ele><time>2026-03-22T09:36:15.878Z</time></trkpt><trkpt lat="39.1066336" lon="8.6967807"><ele>101.16666666666666</ele><time>2026-03-22T09:36:17.878Z</time></trkpt><trkpt lat="39.10668" lon="8.6966663"><ele>101.33333333333333</ele><time>2026-03-22T09:36:19.879Z</time></trkpt><trkpt lat="39.1067206" lon="8.6965605"><ele>101.5</ele><time>2026-03-22T09:36:21.878Z</time></trkpt><trkpt lat="39.1067158" lon="8.6964548"><ele>101.66666666666666</ele><time>2026-03-22T09:36:23.879Z</time></trkpt><trkpt lat="39.1066825" lon="8.6963476"><ele>101.83333333333333</ele><time>2026-03-22T09:36:25.878Z</time></trkpt><trkpt lat="39.1066187" lon="8.6962923"><ele>102.0</ele><time>2026-03-22T09:36:27.878Z</time></trkpt><trkpt lat="39.1065492" lon="8.6962552"><ele>102.0</ele><time>2026-03-22T09:36:29.879Z</time></trkpt><trkpt lat="39.1064786" lon="8.6962318"><ele>102.0</ele><time>2026-03-22T09:36:31.878Z</time></trkpt><trkpt lat="39.106414" lon="8.6962198"><ele>102.0</ele><time>2026-03-22T09:36:33.878Z</time></trkpt><trkpt lat="39.1064" lon="8.6961338"><ele>102.0</ele><time>2026-03-22T09:36:37.879Z</time></trkpt><trkpt lat="39.1064662" lon="8.6960517"><ele>102.0</ele><time>2026-03-22T09:36:40.878Z</time></trkpt><trkpt lat="39.1065128" lon="8.6959871"><ele>102.0</ele><time>2026-03-22T09:36:42.878Z</time></trkpt><trkpt lat="39.1065656" lon="8.6959182"><ele>102.0</ele><time>2026-03-22T09:36:44.878Z</time></trkpt><trkpt lat="39.1066154" lon="8.6958591"><ele>101.66666666666667</ele><time>2026-03-22T09:36:46.878Z</time></trkpt><trkpt lat="39.1066763" lon="8.695792"><ele>101.33333333333334</ele><time>2026-03-22T09:36:48.878Z</time></trkpt><trkpt lat="39.1066959" lon="8.6956845"><ele>101.0</ele><time>2026-03-22T09:36:50.879Z</time></trkpt><trkpt lat="39.106724" lon="8.6956049"><ele>100.66666666666667</ele><time>2026-03-22T09:36:52.879Z</time></trkpt><trkpt lat="39.1067643" lon="8.6955307"><ele>100.33333333333334</ele><time>2026-03-22T09:36:54.879Z</time></trkpt><trkpt lat="39.1068319" lon="8.6954493"><ele>100.0</ele><time>2026-03-22T09:36:57.878Z</time></trkpt><trkpt lat="39.1069085" lon="8.6953837"><ele>100.00000000000001</ele><time>2026-03-22T09:37:00.878Z</time></trkpt><trkpt lat="39.1069822" lon="8.6953197"><ele>100.0</ele><time>2026-03-22T09:37:03.879Z</time></trkpt><trkpt lat="39.1070689" lon="8.6952968"><ele>100.0</ele><time>2026-03-22T09:37:06.879Z</time></trkpt><trkpt lat="39.1071527" lon="8.6952818"><ele>100.0</ele><time>2026-03-22T09:37:09.878Z</time></trkpt><trkpt lat="39.1072333" lon="8.6952648"><ele>100.00000000000001</ele><time>2026-03-22T09:37:12.878Z</time></trkpt><trkpt lat="39.1073221" lon="8.6952439"><ele>100.0</ele><time>2026-03-22T09:37:15.879Z</time></trkpt><trkpt lat="39.1073852" lon="8.6952388"><ele>99.83333333333334</ele><time>2026-03-22T09:37:17.879Z</time></trkpt><trkpt lat="39.1074477" lon="8.6952264"><ele>99.66666666666667</ele><time>2026-03-22T09:37:19.878Z</time></trkpt><trkpt lat="39.1075395" lon="8.6952031"><ele>99.5</ele><time>2026-03-22T09:37:22.879Z</time></trkpt><trkpt lat="39.1076034" lon="8.6951769"><ele>99.33333333333334</ele><time>2026-03-22T09:37:24.879Z</time></trkpt><trkpt lat="39.107669" lon="8.6951418"><ele>99.16666666666667</ele><time>2026-03-22T09:37:26.878Z</time></trkpt><trkpt lat="39.1077378" lon="8.6951093"><ele>99.0</ele><time>2026-03-22T09:37:28.878Z</time></trkpt><trkpt lat="39.1078286" lon="8.6950707"><ele>99.0</ele><time>2026-03-22T09:37:31.878Z</time></trkpt><trkpt lat="39.1079125" lon="8.6950412"><ele>99.0</ele><time>2026-03-22T09:37:33.879Z</time></trkpt><trkpt lat="39.1080019" lon="8.6949995"><ele>99.0</ele><time>2026-03-22T09:37:35.878Z</time></trkpt><trkpt lat="39.1080824" lon="8.6949663"><ele>99.0</ele><time>2026-03-22T09:37:37.878Z</time></trkpt><trkpt lat="39.1081846" lon="8.6949337"><ele>99.0</ele><time>2026-03-22T09:37:40.879Z</time></trkpt><trkpt lat="39.1082544" lon="8.6948983"><ele>99.0</ele><time>2026-03-22T09:37:42.878Z</time></trkpt><trkpt lat="39.1083192" lon="8.6948725"><ele>99.16666666666667</ele><time>2026-03-22T09:37:44.878Z</time></trkpt><trkpt lat="39.1083979" lon="8.6948647"><ele>99.33333333333334</ele><time>2026-03-22T09:37:46.878Z</time></trkpt><trkpt lat="39.1084827" lon="8.6948883"><ele>99.5</ele><time>2026-03-22T09:37:48.878Z</time></trkpt><trkpt lat="39.1085658" lon="8.6949071"><ele>99.66666666666667</ele><time>2026-03-22T09:37:50.878Z</time></trkpt><trkpt lat="39.1086415" lon="8.6949072"><ele>99.83333333333334</ele><time>2026-03-22T09:37:52.879Z</time></trkpt><trkpt lat="39.1087195" lon="8.6949207"><ele>100.0</ele><time>2026-03-22T09:37:54.878Z</time></trkpt><trkpt lat="39.108795" lon="8.694933"><ele>100.0</ele><time>2026-03-22T09:37:56.878Z</time></trkpt><trkpt lat="39.10903" lon="8.6949296"><ele>100.0</ele><time>2026-03-22T09:38:02.879Z</time></trkpt><trkpt lat="39.1091193" lon="8.6948846"><ele>100.0</ele><time>2026-03-22T09:38:04.878Z</time></trkpt><trkpt lat="39.1092171" lon="8.6948413"><ele>100.0</ele><time>2026-03-22T09:38:06.879Z</time></trkpt><trkpt lat="39.1093102" lon="8.6948007"><ele>100.50000000000001</ele><time>2026-03-22T09:38:08.878Z</time></trkpt><trkpt lat="39.1093865" lon="8.6947791"><ele>101.0</ele><time>2026-03-22T09:38:10.878Z</time></trkpt><trkpt lat="39.1094597" lon="8.6947288"><ele>101.5</ele><time>2026-03-22T09:38:12.878Z</time></trkpt><trkpt lat="39.109518" lon="8.6946962"><ele>102.0</ele><time>2026-03-22T09:38:14.879Z</time></trkpt><trkpt lat="39.1095968" lon="8.6946623"><ele>102.50000000000001</ele><time>2026-03-22T09:38:16.879Z</time></trkpt><trkpt lat="39.1096693" lon="8.6946309"><ele>103.0</ele><time>2026-03-22T09:38:18.879Z</time></trkpt><trkpt lat="39.1097333" lon="8.6946089"><ele>103.00000000000001</ele><time>2026-03-22T09:38:20.879Z</time></trkpt><trkpt lat="39.1097969" lon="8.6945823"><ele>103.0</ele><time>2026-03-22T09:38:22.879Z</time></trkpt><trkpt lat="39.1098713" lon="8.6945598"><ele>103.0</ele><time>2026-03-22T09:38:24.878Z</time></trkpt><trkpt lat="39.109952" lon="8.6945398"><ele>103.0</ele><time>2026-03-22T09:38:26.879Z</time></trkpt><trkpt lat="39.1100304" lon="8.6944915"><ele>103.00000000000001</ele><time>2026-03-22T09:38:28.878Z</time></trkpt><trkpt lat="39.1101127" lon="8.694421"><ele>103.0</ele><time>2026-03-22T09:38:30.878Z</time></trkpt><trkpt lat="39.1101742" lon="8.6943529"><ele>102.50000000000001</ele><time>2026-03-22T09:38:32.878Z</time></trkpt><trkpt lat="39.1102269" lon="8.6942931"><ele>102.0</ele><time>2026-03-22T09:38:34.878Z</time></trkpt><trkpt lat="39.1102781" lon="8.6942384"><ele>101.5</ele><time>2026-03-22T09:38:36.878Z</time></trkpt><trkpt lat="39.1103357" lon="8.69416"><ele>101.0</ele><time>2026-03-22T09:38:39.879Z</time></trkpt><trkpt lat="39.1104093" lon="8.6940849"><ele>100.50000000000001</ele><time>2026-03-22T09:38:42.878Z</time></trkpt><trkpt lat="39.1104684" lon="8.6939969"><ele>100.0</ele><time>2026-03-22T09:38:45.879Z</time></trkpt><trkpt lat="39.1105229" lon="8.6939179"><ele>100.00000000000001</ele><time>2026-03-22T09:38:48.878Z</time></trkpt><trkpt lat="39.1105604" lon="8.6938442"><ele>100.0</ele><time>2026-03-22T09:38:50.879Z</time></trkpt><trkpt lat="39.1105992" lon="8.6937693"><ele>100.0</ele><time>2026-03-22T09:38:52.879Z</time></trkpt><trkpt lat="39.1106674" lon="8.6936804"><ele>100.0</ele><time>2026-03-22T09:38:55.878Z</time></trkpt><trkpt lat="39.1107128" lon="8.6936084"><ele>100.00000000000001</ele><time>2026-03-22T09:38:58.879Z</time></trkpt><trkpt lat="39.1107649" lon="8.6935354"><ele>100.0</ele><time>2026-03-22T09:39:03.878Z</time></trkpt><trkpt lat="39.1108132" lon="8.6934553"><ele>99.85714285714286</ele><time>2026-03-22T09:39:07.878Z</time></trkpt><trkpt lat="39.1108739" lon="8.6933958"><ele>99.71428571428572</ele><time>2026-03-22T09:39:11.879Z</time></trkpt><trkpt lat="39.1109282" lon="8.6933299"><ele>99.57142857142858</ele><time>2026-03-22T09:39:15.878Z</time></trkpt><trkpt lat="39.110974" lon="8.6932412"><ele>99.42857142857143</ele><time>2026-03-22T09:39:18.878Z</time></trkpt><trkpt lat="39.1110188" lon="8.6931769"><ele>99.28571428571428</ele><time>2026-03-22T09:39:21.878Z</time></trkpt><trkpt lat="39.1110729" lon="8.6931238"><ele>99.14285714285715</ele><time>2026-03-22T09:39:25.878Z</time></trkpt><trkpt lat="39.1111273" lon="8.6930672"><ele>99.0</ele><time>2026-03-22T09:39:28.878Z</time></trkpt><trkpt lat="39.1111951" lon="8.6930081"><ele>99.0</ele><time>2026-03-22T09:39:31.879Z</time></trkpt><trkpt lat="39.111259" lon="8.692943"><ele>99.0</ele><time>2026-03-22T09:39:35.879Z</time></trkpt><trkpt lat="39.1113186" lon="8.6928906"><ele>99.0</ele><time>2026-03-22T09:39:39.878Z</time></trkpt><trkpt lat="39.1113773" lon="8.692828"><ele>99.0</ele><time>2026-03-22T09:39:42.879Z</time></trkpt><trkpt lat="39.1114294" lon="8.6927716"><ele>99.0</ele><time>2026-03-22T09:39:45.878Z</time></trkpt><trkpt lat="39.1114766" lon="8.6927048"><ele>99.0</ele><time>2026-03-22T09:39:48.878Z</time></trkpt><trkpt lat="39.1115364" lon="8.6926255"><ele>99.0</ele><time>2026-03-22T09:39:51.879Z</time></trkpt><trkpt lat="39.1115906" lon="8.6925526"><ele>99.0</ele><time>2026-03-22T09:39:55.878Z</time></trkpt><trkpt lat="39.111648" lon="8.6924856"><ele>99.0</ele><time>2026-03-22T09:39:59.878Z</time></trkpt><trkpt lat="39.111749" lon="8.6924426"><ele>99.0</ele><time>2026-03-22T09:40:12.878Z</time></trkpt><trkpt lat="39.1117896" lon="8.6923783"><ele>99.0</ele><time>2026-03-22T09:40:14.878Z</time></trkpt><trkpt lat="39.111835" lon="8.6923048"><ele>99.0</ele><time>2026-03-22T09:40:16.878Z</time></trkpt><trkpt lat="39.1118891" lon="8.692221"><ele>99.0</ele><time>2026-03-22T09:40:18.878Z</time></trkpt><trkpt lat="39.1119458" lon="8.692157"><ele>99.0</ele><time>2026-03-22T09:40:20.878Z</time></trkpt><trkpt lat="39.1119989" lon="8.6920948"><ele>99.0</ele><time>2026-03-22T09:40:22.878Z</time></trkpt><trkpt lat="39.1120543" lon="8.6920276"><ele>99.0</ele><time>2026-03-22T09:40:24.878Z</time></trkpt><trkpt lat="39.1121248" lon="8.6919705"><ele>99.0</ele><time>2026-03-22T09:40:26.878Z</time></trkpt><trkpt lat="39.1122051" lon="8.691902"><ele>99.0</ele><time>2026-03-22T09:40:28.879Z</time></trkpt><trkpt lat="39.1122888" lon="8.6918432"><ele>98.80000000000001</ele><time>2026-03-22T09:40:30.878Z</time></trkpt><trkpt lat="39.1123666" lon="8.6917273"><ele>98.60000000000001</ele><time>2026-03-22T09:40:32.879Z</time></trkpt><trkpt lat="39.1124418" lon="8.6916636"><ele>98.4</ele><time>2026-03-22T09:40:34.878Z</time></trkpt><trkpt lat="39.1125161" lon="8.6915752"><ele>98.2</ele><time>2026-03-22T09:40:36.878Z</time></trkpt><trkpt lat="39.1125841" lon="8.6915177"><ele>98.0</ele><time>2026-03-22T09:40:38.878Z</time></trkpt><trkpt lat="39.1126721" lon="8.6914265"><ele>97.99999999999999</ele><time>2026-03-22T09:40:40.878Z</time></trkpt><trkpt lat="39.112745" lon="8.6913618"><ele>98.0</ele><time>2026-03-22T09:40:42.879Z</time></trkpt><trkpt lat="39.1128408" lon="8.6913703"><ele>98.0</ele><time>2026-03-22T09:40:44.878Z</time></trkpt><trkpt lat="39.1128347" lon="8.6912806"><ele>98.0</ele><time>2026-03-22T09:40:47.878Z</time></trkpt><trkpt lat="39.1128065" lon="8.6911829"><ele>97.99999999999999</ele><time>2026-03-22T09:40:49.878Z</time></trkpt><trkpt lat="39.1127598" lon="8.6910687"><ele>98.0</ele><time>2026-03-22T09:40:51.878Z</time></trkpt><trkpt lat="39.1127271" lon="8.6909617"><ele>97.4</ele><time>2026-03-22T09:40:53.879Z</time></trkpt><trkpt lat="39.1126844" lon="8.6908465"><ele>96.80000000000001</ele><time>2026-03-22T09:40:55.878Z</time></trkpt><trkpt lat="39.1126489" lon="8.6907228"><ele>96.2</ele><time>2026-03-22T09:40:57.878Z</time></trkpt><trkpt lat="39.1126138" lon="8.6905887"><ele>95.6</ele><time>2026-03-22T09:40:59.878Z</time></trkpt><trkpt lat="39.1125611" lon="8.6904623"><ele>95.0</ele><time>2026-03-22T09:41:01.878Z</time></trkpt><trkpt lat="39.1125152" lon="8.6903317"><ele>95.0</ele><time>2026-03-22T09:41:03.879Z</time></trkpt><trkpt lat="39.1124671" lon="8.6901566"><ele>95.0</ele><time>2026-03-22T09:41:06.879Z</time></trkpt><trkpt lat="39.1124116" lon="8.6900491"><ele>95.0</ele><time>2026-03-22T09:41:08.879Z</time></trkpt><trkpt lat="39.1123369" lon="8.6898711"><ele>95.0</ele><time>2026-03-22T09:41:11.879Z</time></trkpt><trkpt lat="39.1122465" lon="8.6897802"><ele>95.0</ele><time>2026-03-22T09:41:13.878Z</time></trkpt><trkpt lat="39.1121909" lon="8.6897172"><ele>95.0</ele><time>2026-03-22T09:41:14.879Z</time></trkpt><trkpt lat="39.1121005" lon="8.6896276"><ele>95.0</ele><time>2026-03-22T09:41:16.878Z</time></trkpt><trkpt lat="39.1120306" lon="8.6895249"><ele>95.0</ele><time>2026-03-22T09:41:18.878Z</time></trkpt><trkpt lat="39.1119402" lon="8.6894452"><ele>95.0</ele><time>2026-03-22T09:41:20.878Z</time></trkpt><trkpt lat="39.1118784" lon="8.68942"><ele>95.0</ele><time>2026-03-22T09:41:21.878Z</time></trkpt><trkpt lat="39.111776" lon="8.6893494"><ele>95.0</ele><time>2026-03-22T09:41:23.879Z</time></trkpt><trkpt lat="39.1116914" lon="8.6892695"><ele>95.0</ele><time>2026-03-22T09:41:25.879Z</time></trkpt><trkpt lat="39.1116375" lon="8.6892265"><ele>95.0</ele><time>2026-03-22T09:41:26.878Z</time></trkpt><trkpt lat="39.1115895" lon="8.6891323"><ele>95.0</ele><time>2026-03-22T09:41:28.878Z</time></trkpt><trkpt lat="39.1115052" lon="8.6890854"><ele>94.6</ele><time>2026-03-22T09:41:29.879Z</time></trkpt><trkpt lat="39.1114268" lon="8.6889921"><ele>94.2</ele><time>2026-03-22T09:41:31.878Z</time></trkpt><trkpt lat="39.1113377" lon="8.6889098"><ele>93.80000000000001</ele><time>2026-03-22T09:41:33.878Z</time></trkpt><trkpt lat="39.1112819" lon="8.6888586"><ele>93.4</ele><time>2026-03-22T09:41:34.878Z</time></trkpt><trkpt lat="39.1111891" lon="8.6887525"><ele>93.0</ele><time>2026-03-22T09:41:36.879Z</time></trkpt><trkpt lat="39.1110997" lon="8.6886617"><ele>93.0</ele><time>2026-03-22T09:41:38.879Z</time></trkpt><trkpt lat="39.1110005" lon="8.6885617"><ele>93.0</ele><time>2026-03-22T09:41:40.879Z</time></trkpt><trkpt lat="39.1109094" lon="8.6884615"><ele>93.0</ele><time>2026-03-22T09:41:42.878Z</time></trkpt><trkpt lat="39.1108536" lon="8.6884205"><ele>93.0</ele><time>2026-03-22T09:41:43.878Z</time></trkpt><trkpt lat="39.1108045" lon="8.6883696"><ele>93.0</ele><time>2026-03-22T09:41:44.878Z</time></trkpt><trkpt lat="39.1107187" lon="8.6882755"><ele>93.0</ele><time>2026-03-22T09:41:46.878Z</time></trkpt><trkpt lat="39.1106312" lon="8.6881899"><ele>93.0</ele><time>2026-03-22T09:41:48.879Z</time></trkpt><trkpt lat="39.11053" lon="8.6881113"><ele>93.0</ele><time>2026-03-22T09:41:50.879Z</time></trkpt><trkpt lat="39.1104187" lon="8.6880658"><ele>93.0</ele><time>2026-03-22T09:41:52.878Z</time></trkpt><trkpt lat="39.1103175" lon="8.6880013"><ele>93.0</ele><time>2026-03-22T09:41:54.878Z</time></trkpt><trkpt lat="39.1102067" lon="8.6879713"><ele>93.0</ele><time>2026-03-22T09:41:56.879Z</time></trkpt><trkpt lat="39.1101439" lon="8.6879513"><ele>93.0</ele><time>2026-03-22T09:41:57.878Z</time></trkpt><trkpt lat="39.1100362" lon="8.6879071"><ele>93.0</ele><time>2026-03-22T09:41:59.878Z</time></trkpt><trkpt lat="39.1099406" lon="8.6878655"><ele>93.0</ele><time>2026-03-22T09:42:01.878Z</time></trkpt><trkpt lat="39.1098351" lon="8.6878097"><ele>93.16666666666667</ele><time>2026-03-22T09:42:03.879Z</time></trkpt><trkpt lat="39.1097622" lon="8.6877622"><ele>93.33333333333333</ele><time>2026-03-22T09:42:05.878Z</time></trkpt><trkpt lat="39.1096801" lon="8.6877199"><ele>93.5</ele><time>2026-03-22T09:42:07.878Z</time></trkpt><trkpt lat="39.1096113" lon="8.6877092"><ele>93.66666666666666</ele><time>2026-03-22T09:42:09.878Z</time></trkpt><trkpt lat="39.1095518" lon="8.6876783"><ele>93.83333333333333</ele><time>2026-03-22T09:42:11.879Z</time></trkpt><trkpt lat="39.10945" lon="8.6876361"><ele>94.0</ele><time>2026-03-22T09:42:13.878Z</time></trkpt><trkpt lat="39.1093899" lon="8.6876084"><ele>93.4</ele><time>2026-03-22T09:42:15.878Z</time></trkpt><trkpt lat="39.1093201" lon="8.6875765"><ele>92.80000000000001</ele><time>2026-03-22T09:42:17.878Z</time></trkpt><trkpt lat="39.109241" lon="8.6875235"><ele>92.19999999999999</ele><time>2026-03-22T09:42:19.878Z</time></trkpt><trkpt lat="39.1091477" lon="8.6874677"><ele>91.6</ele><time>2026-03-22T09:42:21.878Z</time></trkpt><trkpt lat="39.1090625" lon="8.687392"><ele>91.0</ele><time>2026-03-22T09:42:23.878Z</time></trkpt><trkpt lat="39.1089733" lon="8.6872759"><ele>91.0</ele><time>2026-03-22T09:42:25.878Z</time></trkpt><trkpt lat="39.108916" lon="8.687197"><ele>91.0</ele><time>2026-03-22T09:42:28.879Z</time></trkpt><trkpt lat="39.1088224" lon="8.687134"><ele>91.0</ele><time>2026-03-22T09:42:30.878Z</time></trkpt><trkpt lat="39.1087805" lon="8.6870516"><ele>91.0</ele><time>2026-03-22T09:42:34.878Z</time></trkpt><trkpt lat="39.1087184" lon="8.6869865"><ele>91.0</ele><time>2026-03-22T09:42:37.878Z</time></trkpt><trkpt lat="39.1086519" lon="8.6869263"><ele>91.0</ele><time>2026-03-22T09:42:39.878Z</time></trkpt><trkpt lat="39.1085818" lon="8.6868629"><ele>90.8</ele><time>2026-03-22T09:42:41.878Z</time></trkpt><trkpt lat="39.1085106" lon="8.6867905"><ele>90.6</ele><time>2026-03-22T09:42:43.879Z</time></trkpt><trkpt lat="39.1084416" lon="8.686714"><ele>90.4</ele><time>2026-03-22T09:42:45.879Z</time></trkpt><trkpt lat="39.1083638" lon="8.6866429"><ele>90.2</ele><time>2026-03-22T09:42:47.878Z</time></trkpt><trkpt lat="39.1082859" lon="8.6865707"><ele>90.0</ele><time>2026-03-22T09:42:49.878Z</time></trkpt><trkpt lat="39.1081991" lon="8.6864976"><ele>90.0</ele><time>2026-03-22T09:42:51.879Z</time></trkpt><trkpt lat="39.1081099" lon="8.686426"><ele>90.0</ele><time>2026-03-22T09:42:53.878Z</time></trkpt><trkpt lat="39.1080444" lon="8.6863356"><ele>90.0</ele><time>2026-03-22T09:42:55.878Z</time></trkpt><trkpt lat="39.107975" lon="8.6862377"><ele>90.0</ele><time>2026-03-22T09:42:57.878Z</time></trkpt><trkpt lat="39.107913" lon="8.686144"><ele>90.0</ele><time>2026-03-22T09:42:59.878Z</time></trkpt><trkpt lat="39.1078369" lon="8.6860513"><ele>89.6</ele><time>2026-03-22T09:43:01.878Z</time></trkpt><trkpt lat="39.1077628" lon="8.6859514"><ele>89.2</ele><time>2026-03-22T09:43:03.879Z</time></trkpt><trkpt lat="39.1076944" lon="8.6858604"><ele>88.80000000000001</ele><time>2026-03-22T09:43:05.878Z</time></trkpt><trkpt lat="39.1076124" lon="8.6857706"><ele>88.4</ele><time>2026-03-22T09:43:07.879Z</time></trkpt><trkpt lat="39.1075344" lon="8.6856793"><ele>88.0</ele><time>2026-03-22T09:43:09.878Z</time></trkpt><trkpt lat="39.1074743" lon="8.6855942"><ele>87.80000000000001</ele><time>2026-03-22T09:43:11.879Z</time></trkpt><trkpt lat="39.1073804" lon="8.6855472"><ele>87.6</ele><time>2026-03-22T09:43:13.878Z</time></trkpt><trkpt lat="39.1072822" lon="8.6855338"><ele>87.4</ele><time>2026-03-22T09:43:15.878Z</time></trkpt><trkpt lat="39.1071905" lon="8.6855002"><ele>87.19999999999999</ele><time>2026-03-22T09:43:17.878Z</time></trkpt><trkpt lat="39.1070936" lon="8.6854755"><ele>87.0</ele><time>2026-03-22T09:43:19.879Z</time></trkpt><trkpt lat="39.1069902" lon="8.6854028"><ele>87.0</ele><time>2026-03-22T09:43:21.878Z</time></trkpt><trkpt lat="39.1069026" lon="8.6853075"><ele>87.0</ele><time>2026-03-22T09:43:23.878Z</time></trkpt><trkpt lat="39.1068293" lon="8.6852143"><ele>87.0</ele><time>2026-03-22T09:43:25.879Z</time></trkpt><trkpt lat="39.1067695" lon="8.6851846"><ele>87.0</ele><time>2026-03-22T09:43:26.879Z</time></trkpt><trkpt lat="39.1066471" lon="8.6851827"><ele>87.0</ele><time>2026-03-22T09:43:28.879Z</time></trkpt><trkpt lat="39.1065324" lon="8.6852104"><ele>86.0</ele><time>2026-03-22T09:43:30.878Z</time></trkpt><trkpt lat="39.1064183" lon="8.6852241"><ele>85.0</ele><time>2026-03-22T09:43:32.878Z</time></trkpt><trkpt lat="39.1063167" lon="8.6851597"><ele>84.0</ele><time>2026-03-22T09:43:34.878Z</time></trkpt><trkpt lat="39.1062637" lon="8.6850312"><ele>83.0</ele><time>2026-03-22T09:43:36.879Z</time></trkpt><trkpt lat="39.1062088" lon="8.6849062"><ele>83.0</ele><time>2026-03-22T09:43:38.878Z</time></trkpt><trkpt lat="39.1061634" lon="8.6847648"><ele>83.0</ele><time>2026-03-22T09:43:40.879Z</time></trkpt><trkpt lat="39.1061184" lon="8.6846196"><ele>83.0</ele><time>2026-03-22T09:43:42.878Z</time></trkpt><trkpt lat="39.1060956" lon="8.6845397"><ele>83.0</ele><time>2026-03-22T09:43:43.879Z</time></trkpt><trkpt lat="39.1060495" lon="8.6843991"><ele>83.0</ele><time>2026-03-22T09:43:45.878Z</time></trkpt><trkpt lat="39.1060258" lon="8.684319"><ele>82.80000000000001</ele><time>2026-03-22T09:43:46.878Z</time></trkpt><trkpt lat="39.1059901" lon="8.684247"><ele>82.6</ele><time>2026-03-22T09:43:47.878Z</time></trkpt><trkpt lat="39.1059584" lon="8.6841696"><ele>82.4</ele><time>2026-03-22T09:43:48.878Z</time></trkpt><trkpt lat="39.1059001" lon="8.6840414"><ele>82.19999999999999</ele><time>2026-03-22T09:43:50.878Z</time></trkpt><trkpt lat="39.1058424" lon="8.6839001"><ele>82.0</ele><time>2026-03-22T09:43:52.878Z</time></trkpt><trkpt lat="39.1057975" lon="8.6838089"><ele>82.0</ele><time>2026-03-22T09:43:53.879Z</time></trkpt><trkpt lat="39.1057662" lon="8.6837346"><ele>82.0</ele><time>2026-03-22T09:43:54.878Z</time></trkpt><trkpt lat="39.1057728" lon="8.683649"><ele>82.0</ele><time>2026-03-22T09:43:55.878Z</time></trkpt><trkpt lat="39.1057475" lon="8.6835737"><ele>82.0</ele><time>2026-03-22T09:43:56.879Z</time></trkpt><trkpt lat="39.1056695" lon="8.6834819"><ele>82.0</ele><time>2026-03-22T09:43:57.878Z</time></trkpt><trkpt lat="39.1056304" lon="8.6833387"><ele>82.0</ele><time>2026-03-22T09:43:59.879Z</time></trkpt><trkpt lat="39.1055817" lon="8.6832236"><ele>81.83333333333333</ele><time>2026-03-22T09:44:00.879Z</time></trkpt><trkpt lat="39.1055502" lon="8.6831003"><ele>81.66666666666666</ele><time>2026-03-22T09:44:02.878Z</time></trkpt><trkpt lat="39.105524" lon="8.6830191"><ele>81.5</ele><time>2026-03-22T09:44:03.879Z</time></trkpt><trkpt lat="39.1054847" lon="8.6829388"><ele>81.33333333333333</ele><time>2026-03-22T09:44:04.878Z</time></trkpt><trkpt lat="39.1054493" lon="8.6828591"><ele>81.16666666666667</ele><time>2026-03-22T09:44:05.879Z</time></trkpt><trkpt lat="39.1054139" lon="8.6827794"><ele>81.0</ele><time>2026-03-22T09:44:06.878Z</time></trkpt><trkpt lat="39.1053821" lon="8.6827071"><ele>81.0</ele><time>2026-03-22T09:44:07.878Z</time></trkpt><trkpt lat="39.1053439" lon="8.6826269"><ele>81.0</ele><time>2026-03-22T09:44:08.878Z</time></trkpt><trkpt lat="39.1053028" lon="8.6825539"><ele>81.0</ele><time>2026-03-22T09:44:09.878Z</time></trkpt><trkpt lat="39.1052594" lon="8.6824845"><ele>81.0</ele><time>2026-03-22T09:44:10.878Z</time></trkpt><trkpt lat="39.1052083" lon="8.682416"><ele>81.0</ele><time>2026-03-22T09:44:11.878Z</time></trkpt><trkpt lat="39.1051634" lon="8.6823489"><ele>81.0</ele><time>2026-03-22T09:44:12.878Z</time></trkpt><trkpt lat="39.1051202" lon="8.6822774"><ele>81.0</ele><time>2026-03-22T09:44:13.878Z</time></trkpt><trkpt lat="39.1050742" lon="8.6822049"><ele>81.0</ele><time>2026-03-22T09:44:14.879Z</time></trkpt><trkpt lat="39.1050273" lon="8.6821299"><ele>81.0</ele><time>2026-03-22T09:44:15.878Z</time></trkpt><trkpt lat="39.104981" lon="8.6820628"><ele>81.0</ele><time>2026-03-22T09:44:16.878Z</time></trkpt><trkpt lat="39.1049415" lon="8.6819948"><ele>81.0</ele><time>2026-03-22T09:44:17.878Z</time></trkpt><trkpt lat="39.1048992" lon="8.6819252"><ele>81.0</ele><time>2026-03-22T09:44:18.878Z</time></trkpt><trkpt lat="39.104855" lon="8.6818549"><ele>81.0</ele><time>2026-03-22T09:44:19.878Z</time></trkpt><trkpt lat="39.1048163" lon="8.6817768"><ele>81.0</ele><time>2026-03-22T09:44:20.878Z</time></trkpt><trkpt lat="39.1047779" lon="8.6817018"><ele>80.71428571428572</ele><time>2026-03-22T09:44:21.879Z</time></trkpt><trkpt lat="39.1047526" lon="8.6816232"><ele>80.42857142857143</ele><time>2026-03-22T09:44:22.878Z</time></trkpt><trkpt lat="39.1047161" lon="8.681547"><ele>80.14285714285714</ele><time>2026-03-22T09:44:23.879Z</time></trkpt><trkpt lat="39.1046756" lon="8.6814762"><ele>79.85714285714286</ele><time>2026-03-22T09:44:24.879Z</time></trkpt><trkpt lat="39.104643" lon="8.6814003"><ele>79.57142857142857</ele><time>2026-03-22T09:44:25.879Z</time></trkpt><trkpt lat="39.1046097" lon="8.6813206"><ele>79.28571428571429</ele><time>2026-03-22T09:44:26.878Z</time></trkpt><trkpt lat="39.104583" lon="8.681244"><ele>79.0</ele><time>2026-03-22T09:44:27.879Z</time></trkpt><trkpt lat="39.1045563" lon="8.6811698"><ele>78.83333333333333</ele><time>2026-03-22T09:44:28.878Z</time></trkpt><trkpt lat="39.1045084" lon="8.6810196"><ele>78.66666666666666</ele><time>2026-03-22T09:44:30.878Z</time></trkpt><trkpt lat="39.104484" lon="8.6809401"><ele>78.5</ele><time>2026-03-22T09:44:31.879Z</time></trkpt><trkpt lat="39.1044698" lon="8.6808561"><ele>78.33333333333333</ele><time>2026-03-22T09:44:32.879Z</time></trkpt><trkpt lat="39.104452" lon="8.6807703"><ele>78.16666666666667</ele><time>2026-03-22T09:44:33.878Z</time></trkpt><trkpt lat="39.1044238" lon="8.6806871"><ele>78.0</ele><time>2026-03-22T09:44:34.878Z</time></trkpt><trkpt lat="39.1043949" lon="8.6806069"><ele>78.0</ele><time>2026-03-22T09:44:35.878Z</time></trkpt><trkpt lat="39.1043734" lon="8.6805195"><ele>78.0</ele><time>2026-03-22T09:44:36.878Z</time></trkpt><trkpt lat="39.1043493" lon="8.6804353"><ele>78.0</ele><time>2026-03-22T09:44:37.878Z</time></trkpt><trkpt lat="39.1043245" lon="8.6803438"><ele>78.0</ele><time>2026-03-22T09:44:38.878Z</time></trkpt><trkpt lat="39.1043013" lon="8.6802584"><ele>78.0</ele><time>2026-03-22T09:44:39.879Z</time></trkpt><trkpt lat="39.1042688" lon="8.680155"><ele>78.0</ele><time>2026-03-22T09:44:40.878Z</time></trkpt><trkpt lat="39.1042468" lon="8.6800626"><ele>78.0</ele><time>2026-03-22T09:44:41.879Z</time></trkpt><trkpt lat="39.1042359" lon="8.6798935"><ele>77.71428571428572</ele><time>2026-03-22T09:44:43.879Z</time></trkpt><trkpt lat="39.1042468" lon="8.6797852"><ele>77.42857142857142</ele><time>2026-03-22T09:44:44.879Z</time></trkpt><trkpt lat="39.1042473" lon="8.6796913"><ele>77.14285714285714</ele><time>2026-03-22T09:44:45.878Z</time></trkpt><trkpt lat="39.1042648" lon="8.6795992"><ele>76.85714285714286</ele><time>2026-03-22T09:44:46.879Z</time></trkpt><trkpt lat="39.1042729" lon="8.6795081"><ele>76.57142857142858</ele><time>2026-03-22T09:44:47.878Z</time></trkpt><trkpt lat="39.1042879" lon="8.6794198"><ele>76.28571428571428</ele><time>2026-03-22T09:44:48.878Z</time></trkpt><trkpt lat="39.1043025" lon="8.6793247"><ele>76.0</ele><time>2026-03-22T09:44:49.878Z</time></trkpt><trkpt lat="39.1043063" lon="8.6792346"><ele>75.85714285714285</ele><time>2026-03-22T09:44:50.878Z</time></trkpt><trkpt lat="39.1043163" lon="8.6791396"><ele>75.71428571428572</ele><time>2026-03-22T09:44:51.878Z</time></trkpt><trkpt lat="39.1043411" lon="8.6790571"><ele>75.57142857142857</ele><time>2026-03-22T09:44:52.878Z</time></trkpt><trkpt lat="39.1043268" lon="8.6789703"><ele>75.42857142857142</ele><time>2026-03-22T09:44:53.878Z</time></trkpt><trkpt lat="39.1043086" lon="8.6788594"><ele>75.28571428571428</ele><time>2026-03-22T09:44:54.879Z</time></trkpt><trkpt lat="39.1042784" lon="8.6787835"><ele>75.14285714285714</ele><time>2026-03-22T09:44:55.878Z</time></trkpt><trkpt lat="39.1042626" lon="8.6786939"><ele>75.0</ele><time>2026-03-22T09:44:56.879Z</time></trkpt><trkpt lat="39.1042366" lon="8.6785967"><ele>74.99999999999999</ele><time>2026-03-22T09:44:57.878Z</time></trkpt><trkpt lat="39.1042028" lon="8.6785193"><ele>75.0</ele><time>2026-03-22T09:44:58.879Z</time></trkpt><trkpt lat="39.104179" lon="8.6784351"><ele>75.0</ele><time>2026-03-22T09:44:59.879Z</time></trkpt><trkpt lat="39.1041448" lon="8.6783496"><ele>75.0</ele><time>2026-03-22T09:45:00.878Z</time></trkpt><trkpt lat="39.1041258" lon="8.6782581"><ele>75.0</ele><time>2026-03-22T09:45:01.879Z</time></trkpt><trkpt lat="39.1041037" lon="8.6781689"><ele>74.99999999999999</ele><time>2026-03-22T09:45:02.878Z</time></trkpt><trkpt lat="39.1040909" lon="8.6780822"><ele>75.0</ele><time>2026-03-22T09:45:03.879Z</time></trkpt><trkpt lat="39.1040789" lon="8.67799"><ele>74.57142857142857</ele><time>2026-03-22T09:45:04.879Z</time></trkpt><trkpt lat="39.1040538" lon="8.677899"><ele>74.14285714285714</ele><time>2026-03-22T09:45:05.878Z</time></trkpt><trkpt lat="39.104041" lon="8.6778144"><ele>73.71428571428572</ele><time>2026-03-22T09:45:06.878Z</time></trkpt><trkpt lat="39.1040152" lon="8.6777284"><ele>73.28571428571428</ele><time>2026-03-22T09:45:07.878Z</time></trkpt><trkpt lat="39.1039923" lon="8.6776415"><ele>72.85714285714286</ele><time>2026-03-22T09:45:08.879Z</time></trkpt><trkpt lat="39.1039696" lon="8.6775545"><ele>72.42857142857143</ele><time>2026-03-22T09:45:09.878Z</time></trkpt><trkpt lat="39.1039458" lon="8.6774724"><ele>72.0</ele><time>2026-03-22T09:45:10.878Z</time></trkpt><trkpt lat="39.1039099" lon="8.6773811"><ele>72.00000000000001</ele><time>2026-03-22T09:45:11.879Z</time></trkpt><trkpt lat="39.1038838" lon="8.6772996"><ele>72.0</ele><time>2026-03-22T09:45:12.879Z</time></trkpt><trkpt lat="39.1038547" lon="8.6772148"><ele>72.0</ele><time>2026-03-22T09:45:13.878Z</time></trkpt><trkpt lat="39.1038227" lon="8.6771302"><ele>72.0</ele><time>2026-03-22T09:45:14.879Z</time></trkpt><trkpt lat="39.1037956" lon="8.6770354"><ele>72.0</ele><time>2026-03-22T09:45:15.878Z</time></trkpt><trkpt lat="39.1037623" lon="8.6769516"><ele>72.00000000000001</ele><time>2026-03-22T09:45:16.878Z</time></trkpt><trkpt lat="39.1037337" lon="8.6768517"><ele>72.0</ele><time>2026-03-22T09:45:17.879Z</time></trkpt><trkpt lat="39.1037108" lon="8.6767686"><ele>71.83333333333333</ele><time>2026-03-22T09:45:18.878Z</time></trkpt><trkpt lat="39.1036784" lon="8.676696"><ele>71.66666666666667</ele><time>2026-03-22T09:45:19.878Z</time></trkpt><trkpt lat="39.103613" lon="8.6765478"><ele>71.5</ele><time>2026-03-22T09:45:21.878Z</time></trkpt><trkpt lat="39.1035963" lon="8.6764577"><ele>71.33333333333334</ele><time>2026-03-22T09:45:22.878Z</time></trkpt><trkpt lat="39.103567" lon="8.6763705"><ele>71.16666666666667</ele><time>2026-03-22T09:45:23.878Z</time></trkpt><trkpt lat="39.1035355" lon="8.676286"><ele>71.0</ele><time>2026-03-22T09:45:24.878Z</time></trkpt><trkpt lat="39.1035065" lon="8.6761975"><ele>71.0</ele><time>2026-03-22T09:45:25.879Z</time></trkpt><trkpt lat="39.1034688" lon="8.6761202"><ele>71.0</ele><time>2026-03-22T09:45:26.878Z</time></trkpt><trkpt lat="39.1034353" lon="8.6760387"><ele>71.0</ele><time>2026-03-22T09:45:27.878Z</time></trkpt><trkpt lat="39.1034093" lon="8.6759521"><ele>71.0</ele><time>2026-03-22T09:45:28.878Z</time></trkpt><trkpt lat="39.1033716" lon="8.675866"><ele>71.0</ele><time>2026-03-22T09:45:29.878Z</time></trkpt><trkpt lat="39.1033486" lon="8.6757699"><ele>71.0</ele><time>2026-03-22T09:45:30.878Z</time></trkpt><trkpt lat="39.1033205" lon="8.6756738"><ele>71.0</ele><time>2026-03-22T09:45:31.878Z</time></trkpt><trkpt lat="39.1033047" lon="8.6755762"><ele>70.83333333333334</ele><time>2026-03-22T09:45:32.878Z</time></trkpt><trkpt lat="39.1032766" lon="8.6754915"><ele>70.66666666666667</ele><time>2026-03-22T09:45:33.878Z</time></trkpt><trkpt lat="39.1032408" lon="8.6753995"><ele>70.5</ele><time>2026-03-22T09:45:34.879Z</time></trkpt><trkpt lat="39.1032199" lon="8.6753052"><ele>70.33333333333333</ele><time>2026-03-22T09:45:35.878Z</time></trkpt><trkpt lat="39.1031883" lon="8.6752161"><ele>70.16666666666666</ele><time>2026-03-22T09:45:36.878Z</time></trkpt><trkpt lat="39.1031538" lon="8.6751237"><ele>70.0</ele><time>2026-03-22T09:45:37.878Z</time></trkpt><trkpt lat="39.1031257" lon="8.6750239"><ele>69.83333333333333</ele><time>2026-03-22T09:45:38.878Z</time></trkpt><trkpt lat="39.1030722" lon="8.6749337"><ele>69.66666666666666</ele><time>2026-03-22T09:45:39.878Z</time></trkpt><trkpt lat="39.1030209" lon="8.6747859"><ele>69.5</ele><time>2026-03-22T09:45:41.878Z</time></trkpt><trkpt lat="39.1030031" lon="8.6747063"><ele>69.33333333333333</ele><time>2026-03-22T09:45:42.878Z</time></trkpt><trkpt lat="39.102972" lon="8.6746234"><ele>69.16666666666667</ele><time>2026-03-22T09:45:43.878Z</time></trkpt><trkpt lat="39.1029433" lon="8.6745229"><ele>69.0</ele><time>2026-03-22T09:45:44.878Z</time></trkpt><trkpt lat="39.1029126" lon="8.6744223"><ele>68.71428571428572</ele><time>2026-03-22T09:45:45.878Z</time></trkpt><trkpt lat="39.102889" lon="8.6743274"><ele>68.42857142857143</ele><time>2026-03-22T09:45:46.878Z</time></trkpt><trkpt lat="39.1028444" lon="8.6742402"><ele>68.14285714285714</ele><time>2026-03-22T09:45:47.878Z</time></trkpt><trkpt lat="39.1028162" lon="8.6741563"><ele>67.85714285714286</ele><time>2026-03-22T09:45:48.878Z</time></trkpt><trkpt lat="39.1027867" lon="8.674068"><ele>67.57142857142857</ele><time>2026-03-22T09:45:49.878Z</time></trkpt><trkpt lat="39.1027705" lon="8.673989"><ele>67.28571428571429</ele><time>2026-03-22T09:45:50.879Z</time></trkpt><trkpt lat="39.1027462" lon="8.6739024"><ele>67.0</ele><time>2026-03-22T09:45:51.878Z</time></trkpt><trkpt lat="39.1027058" lon="8.6738193"><ele>67.0</ele><time>2026-03-22T09:45:52.878Z</time></trkpt><trkpt lat="39.1026839" lon="8.6737298"><ele>67.0</ele><time>2026-03-22T09:45:53.879Z</time></trkpt><trkpt lat="39.1026859" lon="8.6736303"><ele>67.0</ele><time>2026-03-22T09:45:54.879Z</time></trkpt><trkpt lat="39.1026783" lon="8.6735391"><ele>67.0</ele><time>2026-03-22T09:45:55.878Z</time></trkpt><trkpt lat="39.1027785" lon="8.6734019"><ele>67.0</ele><time>2026-03-22T09:45:56.878Z</time></trkpt><trkpt lat="39.102786" lon="8.6733083"><ele>67.0</ele><time>2026-03-22T09:45:57.878Z</time></trkpt><trkpt lat="39.102835" lon="8.6732477"><ele>66.8</ele><time>2026-03-22T09:45:58.878Z</time></trkpt><trkpt lat="39.1028821" lon="8.6730835"><ele>66.6</ele><time>2026-03-22T09:46:00.879Z</time></trkpt><trkpt lat="39.102902" lon="8.6729986"><ele>66.39999999999999</ele><time>2026-03-22T09:46:01.878Z</time></trkpt><trkpt lat="39.1029121" lon="8.6729161"><ele>66.2</ele><time>2026-03-22T09:46:02.879Z</time></trkpt><trkpt lat="39.1029603" lon="8.6727791"><ele>66.0</ele><time>2026-03-22T09:46:04.878Z</time></trkpt><trkpt lat="39.1029848" lon="8.6726371"><ele>66.0</ele><time>2026-03-22T09:46:06.879Z</time></trkpt><trkpt lat="39.1029988" lon="8.6724772"><ele>66.0</ele><time>2026-03-22T09:46:08.878Z</time></trkpt><trkpt lat="39.103001" lon="8.6723276"><ele>66.0</ele><time>2026-03-22T09:46:10.879Z</time></trkpt><trkpt lat="39.1030047" lon="8.6721737"><ele>66.0</ele><time>2026-03-22T09:46:12.878Z</time></trkpt><trkpt lat="39.103013" lon="8.6720189"><ele>65.8</ele><time>2026-03-22T09:46:14.878Z</time></trkpt><trkpt lat="39.1030328" lon="8.6718958"><ele>65.6</ele><time>2026-03-22T09:46:16.878Z</time></trkpt><trkpt lat="39.1030329" lon="8.6717407"><ele>65.4</ele><time>2026-03-22T09:46:18.878Z</time></trkpt><trkpt lat="39.1030544" lon="8.6716101"><ele>65.2</ele><time>2026-03-22T09:46:20.878Z</time></trkpt><trkpt lat="39.1031033" lon="8.6714799"><ele>65.0</ele><time>2026-03-22T09:46:22.878Z</time></trkpt><trkpt lat="39.1031602" lon="8.6713565"><ele>65.00000000000001</ele><time>2026-03-22T09:46:24.878Z</time></trkpt><trkpt lat="39.1032218" lon="8.6712813"><ele>65.0</ele><time>2026-03-22T09:46:27.878Z</time></trkpt><trkpt lat="39.1032899" lon="8.6712425"><ele>65.0</ele><time>2026-03-22T09:46:31.878Z</time></trkpt><trkpt lat="39.1033451" lon="8.6711903"><ele>65.0</ele><time>2026-03-22T09:46:34.879Z</time></trkpt><trkpt lat="39.1034043" lon="8.6711238"><ele>65.0</ele><time>2026-03-22T09:46:38.878Z</time></trkpt><trkpt lat="39.1034327" lon="8.6710494"><ele>65.00000000000001</ele><time>2026-03-22T09:46:42.878Z</time></trkpt><trkpt lat="39.1034359" lon="8.6709683"><ele>65.0</ele><time>2026-03-22T09:46:49.879Z</time></trkpt><trkpt lat="39.1034507" lon="8.6708765"><ele>65.00000000000001</ele><time>2026-03-22T09:46:52.878Z</time></trkpt><trkpt lat="39.1034674" lon="8.6707837"><ele>65.0</ele><time>2026-03-22T09:46:58.879Z</time></trkpt><trkpt lat="39.1035003" lon="8.6706979"><ele>65.0</ele><time>2026-03-22T09:47:05.878Z</time></trkpt><trkpt lat="39.1035073" lon="8.670611"><ele>65.0</ele><time>2026-03-22T09:47:11.878Z</time></trkpt><trkpt lat="39.1035723" lon="8.6705405"><ele>65.0</ele><time>2026-03-22T09:48:55.879Z</time></trkpt><trkpt lat="39.1036338" lon="8.6705214"><ele>65.00000000000001</ele><time>2026-03-22T09:48:57.878Z</time></trkpt><trkpt lat="39.1037071" lon="8.6704967"><ele>65.0</ele><time>2026-03-22T09:48:59.878Z</time></trkpt><trkpt lat="39.1037811" lon="8.6704633"><ele>65.0</ele><time>2026-03-22T09:49:01.879Z</time></trkpt><trkpt lat="39.1038665" lon="8.6704088"><ele>65.0</ele><time>2026-03-22T09:49:03.879Z</time></trkpt><trkpt lat="39.1039226" lon="8.6703541"><ele>65.0</ele><time>2026-03-22T09:49:04.878Z</time></trkpt><trkpt lat="39.103991" lon="8.670254"><ele>65.0</ele><time>2026-03-22T09:49:06.878Z</time></trkpt><trkpt lat="39.1040246" lon="8.6701636"><ele>65.0</ele><time>2026-03-22T09:49:08.878Z</time></trkpt><trkpt lat="39.1040493" lon="8.6700659"><ele>65.0</ele><time>2026-03-22T09:49:10.878Z</time></trkpt><trkpt lat="39.1040567" lon="8.6699355"><ele>64.8</ele><time>2026-03-22T09:49:12.878Z</time></trkpt><trkpt lat="39.1040477" lon="8.6698536"><ele>64.6</ele><time>2026-03-22T09:49:13.878Z</time></trkpt><trkpt lat="39.1040454" lon="8.6697083"><ele>64.4</ele><time>2026-03-22T09:49:15.878Z</time></trkpt><trkpt lat="39.1040429" lon="8.6695812"><ele>64.2</ele><time>2026-03-22T09:49:17.878Z</time></trkpt><trkpt lat="39.104031" lon="8.6694693"><ele>64.0</ele><time>2026-03-22T09:49:19.878Z</time></trkpt><trkpt lat="39.1040667" lon="8.6693162"><ele>63.99999999999999</ele><time>2026-03-22T09:49:21.878Z</time></trkpt><trkpt lat="39.1040962" lon="8.6691535"><ele>64.0</ele><time>2026-03-22T09:49:23.879Z</time></trkpt><trkpt lat="39.1041211" lon="8.6690765"><ele>64.0</ele><time>2026-03-22T09:49:24.878Z</time></trkpt><trkpt lat="39.1041866" lon="8.6689645"><ele>64.0</ele><time>2026-03-22T09:49:26.878Z</time></trkpt><trkpt lat="39.1042597" lon="8.6689451"><ele>63.99999999999999</ele><time>2026-03-22T09:49:27.879Z</time></trkpt><trkpt lat="39.1043278" lon="8.6689203"><ele>64.0</ele><time>2026-03-22T09:49:28.878Z</time></trkpt><trkpt lat="39.1044376" lon="8.6689208"><ele>64.0</ele><time>2026-03-22T09:49:30.879Z</time></trkpt><trkpt lat="39.1045017" lon="8.6689586"><ele>64.0</ele><time>2026-03-22T09:49:31.878Z</time></trkpt><trkpt lat="39.1046328" lon="8.6690204"><ele>64.0</ele><time>2026-03-22T09:49:33.878Z</time></trkpt><trkpt lat="39.1046961" lon="8.66905"><ele>64.0</ele><time>2026-03-22T09:49:34.878Z</time></trkpt><trkpt lat="39.1047851" lon="8.669112"><ele>64.0</ele><time>2026-03-22T09:49:35.878Z</time></trkpt><trkpt lat="39.1048547" lon="8.6691423"><ele>64.0</ele><time>2026-03-22T09:49:36.879Z</time></trkpt><trkpt lat="39.1049624" lon="8.6692278"><ele>64.0</ele><time>2026-03-22T09:49:38.879Z</time></trkpt><trkpt lat="39.1050494" lon="8.6693488"><ele>64.0</ele><time>2026-03-22T09:49:40.878Z</time></trkpt><trkpt lat="39.1051037" lon="8.6693966"><ele>64.0</ele><time>2026-03-22T09:49:41.878Z</time></trkpt><trkpt lat="39.1051684" lon="8.6694285"><ele>64.0</ele><time>2026-03-22T09:49:42.878Z</time></trkpt><trkpt lat="39.1052307" lon="8.6694576"><ele>64.0</ele><time>2026-03-22T09:49:43.878Z</time></trkpt><trkpt lat="39.1052942" lon="8.6694801"><ele>63.99999999999999</ele><time>2026-03-22T09:49:44.879Z</time></trkpt><trkpt lat="39.1053627" lon="8.6695089"><ele>64.0</ele><time>2026-03-22T09:49:45.878Z</time></trkpt><trkpt lat="39.105429" lon="8.6695348"><ele>64.0</ele><time>2026-03-22T09:49:46.879Z</time></trkpt><trkpt lat="39.1054969" lon="8.669556"><ele>63.99999999999999</ele><time>2026-03-22T09:49:47.878Z</time></trkpt><trkpt lat="39.1055652" lon="8.6695741"><ele>64.0</ele><time>2026-03-22T09:49:48.879Z</time></trkpt><trkpt lat="39.10564" lon="8.6695799"><ele>64.0</ele><time>2026-03-22T09:49:49.878Z</time></trkpt><trkpt lat="39.105712" lon="8.669594"><ele>64.0</ele><time>2026-03-22T09:49:50.878Z</time></trkpt><trkpt lat="39.1057831" lon="8.6695992"><ele>63.99999999999999</ele><time>2026-03-22T09:49:51.878Z</time></trkpt><trkpt lat="39.1058556" lon="8.6696043"><ele>64.0</ele><time>2026-03-22T09:49:52.879Z</time></trkpt><trkpt lat="39.1059252" lon="8.6696143"><ele>64.0</ele><time>2026-03-22T09:49:53.879Z</time></trkpt><trkpt lat="39.106006" lon="8.6696192"><ele>63.99999999999999</ele><time>2026-03-22T09:49:54.878Z</time></trkpt><trkpt lat="39.1060784" lon="8.6696152"><ele>64.0</ele><time>2026-03-22T09:49:55.878Z</time></trkpt><trkpt lat="39.1061483" lon="8.6696146"><ele>64.0</ele><time>2026-03-22T09:49:56.878Z</time></trkpt><trkpt lat="39.1062207" lon="8.6696149"><ele>64.0</ele><time>2026-03-22T09:49:57.879Z</time></trkpt><trkpt lat="39.1063004" lon="8.6696183"><ele>63.99999999999999</ele><time>2026-03-22T09:49:58.878Z</time></trkpt><trkpt lat="39.106369" lon="8.6696299"><ele>64.0</ele><time>2026-03-22T09:49:59.878Z</time></trkpt><trkpt lat="39.1064367" lon="8.6696399"><ele>64.0</ele><time>2026-03-22T09:50:00.879Z</time></trkpt><trkpt lat="39.1065074" lon="8.6696249"><ele>63.99999999999999</ele><time>2026-03-22T09:50:01.878Z</time></trkpt><trkpt lat="39.1065801" lon="8.6696344"><ele>64.0</ele><time>2026-03-22T09:50:02.878Z</time></trkpt><trkpt lat="39.1066458" lon="8.6696535"><ele>64.0</ele><time>2026-03-22T09:50:03.878Z</time></trkpt><trkpt lat="39.1067079" lon="8.6696761"><ele>64.16666666666666</ele><time>2026-03-22T09:50:04.878Z</time></trkpt><trkpt lat="39.1068392" lon="8.6696813"><ele>64.33333333333333</ele><time>2026-03-22T09:50:06.878Z</time></trkpt><trkpt lat="39.1069045" lon="8.6696954"><ele>64.5</ele><time>2026-03-22T09:50:07.879Z</time></trkpt><trkpt lat="39.1069789" lon="8.6696876"><ele>64.66666666666667</ele><time>2026-03-22T09:50:08.879Z</time></trkpt><trkpt lat="39.1070475" lon="8.6697"><ele>64.83333333333334</ele><time>2026-03-22T09:50:09.878Z</time></trkpt><trkpt lat="39.1071162" lon="8.6697035"><ele>65.0</ele><time>2026-03-22T09:50:10.878Z</time></trkpt><trkpt lat="39.1072155" lon="8.6697927"><ele>65.0</ele><time>2026-03-22T09:50:12.878Z</time></trkpt><trkpt lat="39.1073216" lon="8.6698803"><ele>65.0</ele><time>2026-03-22T09:50:14.878Z</time></trkpt><trkpt lat="39.1073977" lon="8.6698953"><ele>65.0</ele><time>2026-03-22T09:50:15.879Z</time></trkpt><trkpt lat="39.1074759" lon="8.6698894"><ele>65.0</ele><time>2026-03-22T09:50:16.878Z</time></trkpt><trkpt lat="39.1075921" lon="8.6698622"><ele>65.0</ele><time>2026-03-22T09:50:18.879Z</time></trkpt><trkpt lat="39.1076614" lon="8.6698434"><ele>65.4</ele><time>2026-03-22T09:50:19.878Z</time></trkpt><trkpt lat="39.1077274" lon="8.6698231"><ele>65.8</ele><time>2026-03-22T09:50:20.878Z</time></trkpt><trkpt lat="39.1077931" lon="8.6697962"><ele>66.2</ele><time>2026-03-22T09:50:21.878Z</time></trkpt><trkpt lat="39.1079158" lon="8.6697418"><ele>66.6</ele><time>2026-03-22T09:50:23.879Z</time></trkpt><trkpt lat="39.1079745" lon="8.6697091"><ele>67.0</ele><time>2026-03-22T09:50:24.878Z</time></trkpt><trkpt lat="39.1080962" lon="8.6696372"><ele>67.0</ele><time>2026-03-22T09:50:26.879Z</time></trkpt><trkpt lat="39.108157" lon="8.6695971"><ele>67.0</ele><time>2026-03-22T09:50:27.878Z</time></trkpt><trkpt lat="39.1082214" lon="8.6695394"><ele>67.0</ele><time>2026-03-22T09:50:28.879Z</time></trkpt><trkpt lat="39.1082837" lon="8.6694984"><ele>67.0</ele><time>2026-03-22T09:50:29.879Z</time></trkpt><trkpt lat="39.1083476" lon="8.6694646"><ele>67.0</ele><time>2026-03-22T09:50:30.879Z</time></trkpt><trkpt lat="39.1084108" lon="8.6694174"><ele>67.0</ele><time>2026-03-22T09:50:31.878Z</time></trkpt><trkpt lat="39.108469" lon="8.669375"><ele>67.0</ele><time>2026-03-22T09:50:32.879Z</time></trkpt><trkpt lat="39.1085651" lon="8.6693146"><ele>66.25</ele><time>2026-03-22T09:50:34.879Z</time></trkpt><trkpt lat="39.1086799" lon="8.6692954"><ele>65.5</ele><time>2026-03-22T09:50:36.879Z</time></trkpt><trkpt lat="39.1087796" lon="8.669312"><ele>64.75</ele><time>2026-03-22T09:50:38.878Z</time></trkpt><trkpt lat="39.1088942" lon="8.6693776"><ele>64.0</ele><time>2026-03-22T09:50:40.878Z</time></trkpt><trkpt lat="39.1090021" lon="8.6694199"><ele>64.2</ele><time>2026-03-22T09:50:42.878Z</time></trkpt><trkpt lat="39.1091102" lon="8.6694529"><ele>64.4</ele><time>2026-03-22T09:50:44.878Z</time></trkpt><trkpt lat="39.1092015" lon="8.6694946"><ele>64.6</ele><time>2026-03-22T09:50:46.878Z</time></trkpt><trkpt lat="39.1092853" lon="8.6694006"><ele>64.8</ele><time>2026-03-22T09:50:49.879Z</time></trkpt><trkpt lat="39.1093135" lon="8.6693215"><ele>65.0</ele><time>2026-03-22T09:50:51.879Z</time></trkpt><trkpt lat="39.1093295" lon="8.6692326"><ele>65.0</ele><time>2026-03-22T09:50:54.878Z</time></trkpt><trkpt lat="39.1093996" lon="8.6691783"><ele>65.0</ele><time>2026-03-22T09:50:57.879Z</time></trkpt><trkpt lat="39.1094212" lon="8.6690844"><ele>65.0</ele><time>2026-03-22T09:51:01.878Z</time></trkpt><trkpt lat="39.1094525" lon="8.6690044"><ele>65.0</ele><time>2026-03-22T09:51:08.878Z</time></trkpt></trkseg></trk></gpx>